[[{"header":{"parameterUnit":"m.s-1","parameterCategory":1,"la1":30.6,"la2":28.766,"lo1":-90.7593,"lo2":-88.6598,"dy":0.0162,"dx":0.0183,"nx":116,"ny":114,"refTime":"2024-05-13T06:00:00:Z","depth":0,"parameterNumber":2,"parameterNumberName":"U-component_of_WINDS"},"data":[0.0,0.0,0.0,0.0,0.0,0.0,0.0,0.0,0.0,0.0,0.0,0.0,0.0,0.0,0.0,0.0,0.0,0.0,0.0,0.0,0.0,0.0,0.0,0.0,0.0,0.0,0.0,0.0,0.0,0.0,0.0,0.0,0.0,0.0,0.0,0.0,0.0,0.0,0.0,0.0,0.0,0.0,0.0,0.0,0.0,0.0,0.0,0.0,0.0,0.0,0.0,0.0,0.0,0.0,0.0,0.0,0.0,0.0,0.0,0.0,0.0,0.0,0.0,0.0,0.0,0.0,0.0,0.0,0.0,0.0,0.0,0.0,0.0,0.0,0.0,0.0,0.0,0.0,0.0,0.0,0.0,0.0,0.0,0.0,0.0,0.0,0.0,0.0,0.0,0.0,0.0,0.0,0.0,0.0,0.0,0.0,0.0,0.0,0.0,0.0,0.0,0.0,0.0,0.0,0.0,0.0,0.0,0.0,0.0,0.0,0.0,0.0,0.0,0.0,0.0,0.0,0.0,0.0,0.0,0.0,0.0,0.0,0.0,0.0,0.0,0.0,0.0,0.0,0.0,0.0,0.0,0.0,0.0,0.0,0.0,0.0,0.0,0.0,0.0,0.0,0.0,0.0,0.0,0.0,0.0,0.0,0.0,0.0,0.0,0.0,0.0,0.0,0.0,0.0,0.0,0.0,0.0,0.0,0.0,0.0,0.0,0.0,0.0,0.0,0.0,0.0,0.0,0.0,0.0,0.0,0.0,0.0,0.0,0.0,0.0,0.0,0.0,0.0,0.0,0.0,0.0,0.0,0.0,0.0,0.0,0.0,0.0,0.0,0.0,0.0,0.0,0.0,0.0,0.0,0.0,0.0,0.0,0.0,0.0,0.0,0.0,0.0,0.0,0.0,0.0,0.0,0.0,0.0,0.0,0.0,0.0,0.0,0.0,0.0,0.0,0.0,0.0,0.0,0.0,0.0,0.0,0.0,0.0,0.0,0.0,0.0,0.0,0.0,0.0,0.0,0.0,0.0,0.0,0.0,0.0,0.0,0.0,0.0,0.0,0.0,0.0,0.0,0.0,0.0,0.0,0.0,0.0,0.0,0.0,0.0,0.0,0.0,0.0,0.0,0.0,0.0,0.0,0.0,0.0,0.0,0.0,0.0,0.0,0.0,0.0,0.0,0.0,0.0,0.0,0.0,0.0,0.0,0.0,0.0,0.0,0.0,0.0,0.0,0.0,0.0,0.0,0.0,0.0,0.0,0.0,0.0,0.0,0.0,0.0,0.0,0.0,0.0,0.0,0.0,0.0,0.0,0.0,0.0,0.0,0.0,0.0,0.0,0.0,0.0,0.0,0.0,0.0,0.0,0.0,0.0,0.0,0.0,0.0,0.0,0.0,0.0,0.0,0.0,0.0,0.0,0.0,0.0,0.0,0.0,0.0,0.0,0.0,0.0,0.0,0.0,0.0,0.0,0.0,0.0,0.0,0.0,0.0,0.0,0.0,0.0,0.0,0.0,0.0,0.0,0.0,0.0,0.0,0.0,0.0,0.0,0.0,0.0,0.0,0.0,0.0,0.0,0.0,0.0,0.0,0.0,0.0,0.0,0.0,0.0,0.0,0.0,0.0,0.0,0.0,0.0,0.0,0.0,0.0,0.0,0.0,0.0,0.0,0.0,0.0,0.0,0.0,0.0,0.0,0.0,0.0,0.0,0.0,0.0,0.0,0.0,0.0,0.0,0.0,0.0,0.0,0.0,0.0,0.0,0.0,0.0,0.0,0.0,0.0,0.0,0.0,0.0,0.0,0.0,0.0,0.0,0.0,0.0,0.0,0.0,0.0,0.0,0.0,0.0,0.0,0.0,0.0,0.0,0.0,0.0,0.0,0.0,0.0,0.0,0.0,0.0,0.0,0.0,0.0,0.0,0.0,0.0,0.0,0.0,0.0,0.0,0.0,0.0,0.0,0.0,0.0,0.0,0.0,0.0,0.0,0.0,0.0,0.0,0.0,0.0,0.0,0.0,0.0,0.0,0.0,0.0,0.0,0.0,0.0,0.0,0.0,0.0,0.0,0.0,0.0,0.0,0.0,0.0,0.0,0.0,0.0,0.0,0.0,0.0,0.0,0.0,0.0,0.0,0.0,0.0,0.0,0.0,0.0,0.0,0.0,0.0,0.0,0.0,0.0,0.0,0.0,0.0,0.0,0.0,0.0,0.0,0.0,0.0,0.0,0.0,0.0,0.0,0.0,0.0,0.0,0.0,0.0,0.0,0.0,0.0,0.0,0.0,0.0,0.0,0.0,0.0,0.0,0.0,0.0,0.0,0.0,0.0,0.0,0.0,0.0,0.0,0.0,0.0,0.0,0.0,0.0,0.0,0.0,0.0,0.0,0.0,0.0,0.0,0.0,0.0,0.0,0.0,0.0,0.0,0.0,0.0,0.0,0.0,0.0,0.0,0.0,0.0,0.0,0.0,0.0,0.0,0.0,0.0,0.0,0.0,0.0,0.0,0.0,0.0,0.0,0.0,0.0,0.0,0.0,0.0,0.0,0.0,0.0,0.0,0.0,0.0,0.0,0.0,0.0,0.0,0.0,0.0,0.0,0.0,0.0,0.0,0.0,0.0,0.0,0.0,0.0,0.0,0.0,0.0,0.0,0.0,0.0,0.0,0.0,0.0,0.0,0.0,0.0,0.0,0.0,0.0,0.0,0.0,0.0,0.0,0.0,0.0,0.0,0.0,0.0,0.0,0.0,0.0,0.0,0.0,0.0,0.0,0.0,0.0,0.0,0.0,0.0,0.0,0.0,0.0,0.0,0.0,0.0,0.0,0.0,0.0,0.0,0.0,0.0,0.0,0.0,0.0,0.0,0.0,0.0,0.0,0.0,0.0,0.0,0.0,0.0,0.0,0.0,0.0,0.0,0.0,0.0,0.0,0.0,0.0,0.0,0.0,0.0,0.0,0.0,0.0,0.0,0.0,0.0,0.0,0.0,0.0,0.0,0.0,0.0,0.0,0.0,0.0,0.0,0.0,0.0,0.0,0.0,0.0,0.0,0.0,0.0,0.0,0.0,0.0,0.0,0.0,0.0,0.0,0.0,0.0,0.0,0.0,0.0,0.0,0.0,0.0,0.0,0.0,0.0,0.0,0.0,0.0,0.0,0.0,0.0,0.0,0.0,0.0,0.0,0.0,0.0,0.0,0.0,0.0,0.0,0.0,0.0,0.0,0.0,0.0,0.0,0.0,0.0,0.0,0.0,0.0,0.0,0.0,0.0,0.0,0.0,0.0,0.0,0.0,0.0,0.0,0.0,0.0,0.0,0.0,0.0,0.0,0.0,0.0,0.0,0.0,0.0,0.0,0.0,0.0,0.0,0.0,0.0,0.0,0.0,0.0,0.0,0.0,0.0,0.0,0.0,0.0,0.0,0.0,0.0,0.0,0.0,0.0,0.0,0.0,0.0,0.0,0.0,0.0,0.0,0.0,0.0,0.0,0.0,0.0,0.0,0.0,0.0,0.0,0.0,0.0,0.0,0.0,0.0,0.0,0.0,0.0,0.0,0.0,0.0,0.0,0.0,0.0,0.0,0.0,0.0,0.0,0.0,0.0,0.0,0.0,0.0,0.0,0.0,0.0,0.0,0.0,0.0,0.0,0.0,0.0,0.0,0.0,0.0,0.0,0.0,0.0,0.0,0.0,0.0,0.0,0.0,0.0,0.0,0.0,0.0,0.0,0.0,0.0,0.0,0.0,0.0,0.0,0.0,0.0,0.0,0.0,0.0,0.0,0.0,0.0,0.0,0.0,0.0,0.0,0.0,0.0,0.0,0.0,0.0,0.0,0.0,0.0,0.0,0.0,0.0,0.0,0.0,0.0,0.0,0.0,0.0,0.0,0.0,0.0,0.0,0.0,0.0,0.0,0.0,0.0,0.0,0.0,0.0,0.0,0.0,0.0,0.0,0.0,0.0,0.0,0.0,0.0,0.0,0.0,0.0,0.0,0.0,0.0,0.0,0.0,0.0,0.0,0.0,0.0,0.0,0.0,0.0,0.0,0.0,0.0,0.0,0.0,0.0,0.0,0.0,0.0,0.0,0.0,0.0,0.0,0.0,0.0,0.0,0.0,0.0,0.0,0.0,0.0,0.0,0.0,0.0,0.0,0.0,0.0,0.0,0.0,0.0,0.0,0.0,0.0,0.0,0.0,0.0,0.0,0.0,0.0,0.0,0.0,0.0,0.0,0.0,0.0,0.0,0.0,0.0,0.0,0.0,0.0,0.0,0.0,0.0,0.0,0.0,0.0,0.0,0.0,0.0,0.0,0.0,0.0,0.0,0.0,0.0,0.0,0.0,0.0,0.0,0.0,0.0,0.0,0.0,0.0,0.0,0.0,0.0,0.0,0.0,0.0,0.0,0.0,0.0,0.0,0.0,0.0,0.0,0.0,0.0,0.0,0.0,0.0,0.0,0.0,0.0,0.0,0.0,0.0,0.0,0.0,0.0,0.0,0.0,0.0,0.0,0.0,0.0,0.0,0.0,0.0,0.0,0.0,0.0,0.0,0.0,0.0,0.0,0.0,0.0,0.0,0.0,0.0,0.0,0.0,0.0,0.0,0.0,0.0,0.0,0.0,0.0,0.0,0.0,0.0,0.0,0.0,0.0,0.0,0.0,0.0,0.0,0.0,0.0,0.0,0.0,0.0,0.0,0.0,0.0,0.0,0.0,0.0,0.0,0.0,0.0,0.0,0.0,0.0,0.0,0.0,0.0,0.0,0.0,0.0,0.0,0.0,0.0,0.0,0.0,0.0,0.0,0.0,0.0,0.0,0.0,0.0,0.0,0.0,0.0,0.0,0.0,0.0,0.0,0.0,0.0,0.0,0.0,0.0,0.0,0.0,0.0,0.0,0.0,0.0,0.0,0.0,0.0,0.0,0.0,0.0,0.0,0.0,0.0,0.0,0.0,0.0,0.0,0.0,0.0,0.0,0.0,0.0,0.0,0.0,0.0,0.0,0.0,0.0,0.0,0.0,0.0,0.0,0.0,0.0,0.0,0.0,0.0,0.0,0.0,0.0,0.0,0.0,0.0,0.0,0.0,0.0,0.0,0.0,0.0,0.0,0.0,0.0,0.0,0.0,0.0,0.0,0.0,0.0,0.0,0.0,0.0,0.0,0.0,0.0,0.0,0.0,0.0,0.0,0.0,0.0,0.0,0.0,0.0,0.0,0.0,0.0,0.0,0.0,0.0,0.0,0.0,0.0,0.0,0.0,0.0,0.0,0.0,0.0,0.0,0.0,0.0,0.0,0.0,0.0,0.0,0.0,0.0,0.0,0.0,0.0,0.0,0.0,0.0,0.0,0.0,0.0,0.0,0.0,0.0,0.0,0.0,0.0,0.0,0.0,0.0,0.0,0.0,0.0,0.0,0.0,0.0,0.0,0.0,0.0,0.0,0.0,0.0,0.0,0.0,0.0,0.0,0.0,0.0,0.0,0.0,0.0,0.0,0.0,0.0,0.0,0.0,0.0,0.0,0.0,0.0,0.0,0.0,0.0,0.0,0.0,0.0,0.0,0.0,0.0,0.0,0.0,0.0,0.0,0.0,0.0,0.0,0.0,0.0,0.0,0.0,0.0,0.0,0.0,0.0,0.0,0.0,0.0,0.0,0.0,0.0,0.0,0.0,0.0,0.0,0.0,0.0,0.0,0.0,0.0,0.0,0.0,0.0,0.0,0.0,0.0,0.0,0.0,0.0,0.0,0.0,0.0,0.0,0.0,0.0,0.0,0.0,0.0,0.0,0.0,0.0,0.0,0.0,0.0,0.0,0.0,0.0,0.0,0.0,0.0,0.0,0.0,0.0,0.0,0.0,0.0,0.0,0.0,0.0,0.0,0.0,0.0,0.0,0.0,0.0,0.0,0.0,0.0,0.0,0.0,0.0,0.0,0.0,0.0,0.0,0.0,0.0,0.0,0.0,0.0,0.0,0.0,0.0,0.0,0.0,0.0,0.0,0.0,0.0,0.0,0.0,0.0,0.0,0.0,0.0,0.0,0.0,0.0,0.0,0.0,0.0,0.0,0.0,0.0,0.0,0.0,0.0,0.0,0.0,0.0,0.0,0.0,-5.0196,0.0,0.0,0.0,0.0,0.0,0.0,0.0,0.0,0.0,0.0,0.0,0.0,0.0,0.0,0.0,0.0,0.0,0.0,0.0,0.0,0.0,0.0,0.0,0.0,-3.3548,-3.3955,-3.4788,-3.4902,-3.5126,-3.5632,0.0,0.0,0.0,0.0,0.0,-3.4373,-3.4548,-3.4186,-3.3252,-3.3105,-3.1678,-2.9056,-2.9711,-3.0071,-3.0249,0.0,0.0,0.0,0.0,0.0,0.0,0.0,0.0,0.0,0.0,0.0,0.0,0.0,0.0,0.0,0.0,0.0,0.0,0.0,0.0,0.0,0.0,0.0,0.0,0.0,0.0,0.0,0.0,0.0,0.0,0.0,0.0,0.0,0.0,0.0,0.0,0.0,0.0,0.0,0.0,0.0,0.0,0.0,0.0,0.0,0.0,0.0,0.0,0.0,0.0,0.0,0.0,0.0,0.0,0.0,0.0,0.0,0.0,0.0,0.0,0.0,0.0,0.0,0.0,0.0,0.0,0.0,0.0,0.0,0.0,0.0,-5.1055,0.0,0.0,0.0,0.0,0.0,0.0,0.0,0.0,0.0,0.0,0.0,0.0,0.0,0.0,0.0,0.0,0.0,0.0,0.0,0.0,0.0,-3.2264,-3.3414,-3.3973,-3.45,-3.5136,-3.5341,-3.5516,-3.5742,-3.5659,0.0,0.0,0.0,-3.4843,-3.4223,-3.3975,-3.3388,-3.244,-3.0939,-2.9753,-2.886,-2.939,-2.9378,-2.9013,-3.2152,0.0,0.0,0.0,0.0,0.0,0.0,0.0,0.0,0.0,0.0,0.0,0.0,0.0,0.0,0.0,0.0,0.0,0.0,0.0,0.0,0.0,0.0,0.0,0.0,0.0,0.0,0.0,0.0,0.0,0.0,0.0,0.0,0.0,0.0,0.0,0.0,0.0,0.0,0.0,0.0,0.0,0.0,0.0,0.0,0.0,0.0,0.0,0.0,0.0,0.0,0.0,0.0,0.0,0.0,0.0,0.0,0.0,0.0,0.0,0.0,0.0,0.0,0.0,-4.8322,-4.9185,-5.0384,-5.0465,-5.0743,-5.1199,-5.3375,-5.3465,-5.2059,0.0,0.0,0.0,0.0,0.0,0.0,0.0,0.0,0.0,0.0,0.0,0.0,0.0,0.0,0.0,0.0,0.0,0.0,0.0,0.0,-3.2031,-3.2155,-3.3304,-3.4322,-3.507,-3.4925,-3.5254,-3.6238,-3.5637,-3.5637,-3.6535,-3.5412,-3.4898,-3.5128,-3.4641,-3.3175,-3.0637,-2.8367,-2.8201,-2.993,-2.8692,-2.8387,-2.8889,-3.1176,-3.1442,-2.9832,0.0,0.0,0.0,0.0,0.0,0.0,0.0,0.0,0.0,0.0,0.0,0.0,0.0,0.0,0.0,0.0,0.0,0.0,0.0,0.0,0.0,0.0,0.0,0.0,0.0,0.0,0.0,0.0,0.0,0.0,0.0,0.0,0.0,0.0,0.0,0.0,0.0,0.0,0.0,0.0,0.0,-3.0854,-3.0792,0.0,0.0,0.0,0.0,0.0,0.0,0.0,0.0,0.0,0.0,0.0,0.0,0.0,-4.7161,-4.7608,-4.8153,-4.8276,-4.7821,-4.8911,-5.0073,-5.1294,-5.1793,-5.3308,-5.562,-5.7562,0.0,-5.1585,-5.0862,0.0,0.0,0.0,0.0,0.0,0.0,0.0,0.0,0.0,0.0,0.0,0.0,0.0,0.0,0.0,0.0,0.0,0.0,0.0,0.0,0.0,-3.4121,-3.5272,-3.6407,-3.7205,-3.7466,-3.6993,-3.7204,-3.7101,-3.6555,-3.5997,-3.5458,-3.4907,-3.4125,-3.1742,-2.7653,-2.6257,-2.5792,-2.6024,-2.6527,-2.7172,-2.7949,-2.985,-3.0459,-2.974,-2.3766,0.0,0.0,0.0,0.0,0.0,0.0,0.0,0.0,0.0,0.0,0.0,0.0,0.0,0.0,0.0,0.0,0.0,0.0,0.0,0.0,0.0,0.0,0.0,0.0,0.0,0.0,0.0,0.0,0.0,0.0,0.0,0.0,0.0,0.0,0.0,0.0,0.0,0.0,0.0,-2.9329,-3.1526,-3.0967,-3.4463,-3.6741,0.0,0.0,0.0,0.0,0.0,0.0,0.0,0.0,0.0,-4.7077,-4.7638,-4.7916,-4.7982,-4.9209,-5.0053,-5.0745,-5.185,-5.3128,-5.4541,-5.4465,-5.6106,-5.8885,-6.0041,-5.9815,-5.8532,-5.5797,-5.4104,-5.3162,0.0,0.0,0.0,0.0,-5.4581,-5.5472,0.0,0.0,0.0,0.0,0.0,0.0,0.0,0.0,0.0,0.0,0.0,0.0,-3.3708,-3.4982,-3.631,-3.764,-3.8717,-3.9009,-3.8295,-3.7965,-3.7623,-3.718,-3.6919,-3.6402,-3.555,-3.3343,-3.0277,-2.6213,-2.464,-2.346,-2.2754,-2.4569,-2.5758,-2.6508,-2.8658,-2.987,-2.9939,-2.2424,-1.8611,-1.6483,0.0,0.0,0.0,0.0,0.0,0.0,0.0,0.0,0.0,0.0,0.0,0.0,0.0,0.0,0.0,0.0,0.0,0.0,0.0,0.0,0.0,0.0,0.0,0.0,0.0,0.0,0.0,0.0,0.0,0.0,0.0,0.0,0.0,0.0,0.0,0.0,0.0,-2.9844,-3.1621,-3.088,-3.4703,-3.7342,0.0,0.0,0.0,0.0,0.0,0.0,-4.611,-4.6303,-4.7054,-4.9075,-4.9438,-4.9592,-5.0017,-5.1272,-5.2678,-5.421,-5.5039,-5.6143,-5.7449,-5.744,-5.8662,-6.0498,-6.2283,-6.3688,-6.4337,-6.0626,-5.85,-5.7213,-5.5548,-5.5788,-5.7141,-5.8389,-5.9145,-5.9805,0.0,0.0,0.0,0.0,0.0,0.0,0.0,0.0,0.0,0.0,0.0,-3.1019,-3.3586,-3.5413,-3.6926,-3.8036,-3.7741,-3.832,-4.049,-3.6858,-3.5997,-3.9004,-3.8137,-3.7683,-3.8016,-3.2592,-2.9173,-2.7936,-2.3445,-2.1715,-2.2595,-2.368,-2.4396,-2.471,-2.8052,-2.94,-2.8874,-2.3834,-1.9368,-1.5606,-1.529,0.0,0.0,0.0,0.0,0.0,0.0,0.0,0.0,0.0,0.0,0.0,0.0,0.0,0.0,0.0,0.0,0.0,0.0,0.0,0.0,0.0,0.0,0.0,0.0,0.0,0.0,0.0,0.0,0.0,0.0,0.0,0.0,0.0,0.0,0.0,0.0,0.0,0.0,-2.9913,-3.4475,0.0,0.0,0.0,0.0,-4.2913,-4.3888,-4.5433,-4.7817,-4.7854,-4.9014,-5.1859,-5.2916,-5.411,-5.5767,-5.5867,-5.6495,-5.765,-5.77,-5.8052,-5.8629,-6.0431,-6.0539,-5.9942,-6.4785,-6.6302,-6.5114,-6.2917,-6.2745,-6.3549,-6.1005,-6.1257,-6.306,-6.3481,-6.4586,-6.5823,0.0,0.0,0.0,0.0,0.0,-3.0428,-3.0472,-3.0948,-3.1322,-3.135,-3.178,-3.2879,-3.488,-3.6505,-3.8034,-3.9598,-4.0202,-4.0696,-4.1156,-3.9355,-3.8791,-3.9971,-3.9566,-3.9208,-3.8995,-3.3232,-2.9173,-2.7148,-2.1803,-1.9066,-1.8806,-2.0429,-2.148,-2.2064,-2.4734,-2.6618,-2.7836,-2.8152,-2.7727,-2.6737,-2.5934,-2.965,0.0,0.0,0.0,0.0,0.0,0.0,0.0,0.0,0.0,0.0,0.0,0.0,0.0,0.0,0.0,0.0,0.0,0.0,0.0,0.0,0.0,0.0,0.0,0.0,0.0,0.0,0.0,0.0,0.0,0.0,0.0,0.0,0.0,0.0,0.0,0.0,0.0,-3.2767,-3.6457,0.0,-3.9047,-3.9961,-4.1582,-4.3873,-4.5132,-4.6951,-4.9926,-5.0781,-5.2402,-5.5189,-5.5315,-5.5767,-5.6721,-5.6746,-5.6771,-5.6821,-5.8276,-5.9092,-5.9273,-6.0695,-6.2452,-6.4495,-6.5978,-6.7831,-6.9829,-6.9568,-6.8726,-6.7295,-6.6045,-6.6146,-6.7212,-6.8272,-6.9054,-6.9648,0.0,0.0,0.0,-2.901,-2.9754,-3.0341,-3.0743,-3.1008,-3.1184,-3.1161,-3.1687,-3.2878,-3.4866,-3.6492,-3.8221,-4.0132,-4.0593,-4.1082,-4.158,-3.9818,-3.9413,-4.0781,-4.1905,-4.1795,-4.019,-3.5973,-3.1709,-2.7434,-2.2253,-1.8541,-1.6131,-1.8269,-1.8986,-1.8937,-2.114,-2.329,-2.5423,-2.7595,-2.98,-3.1918,-3.26,-3.8974,-4.8143,0.0,0.0,0.0,0.0,0.0,0.0,0.0,0.0,0.0,0.0,0.0,0.0,0.0,0.0,0.0,0.0,0.0,0.0,0.0,0.0,0.0,0.0,0.0,0.0,0.0,0.0,0.0,0.0,0.0,0.0,0.0,0.0,0.0,0.0,0.0,-3.5211,-3.4574,-3.8293,-4.1114,-4.153,-4.2255,-4.372,-4.608,-4.7355,-4.9264,-5.2226,-5.3256,-5.4687,-5.6696,-5.7131,-5.7397,-5.7601,-5.813,-5.8212,-5.7966,-5.944,-6.028,-6.0647,-6.1985,-6.4144,-6.6944,-6.7727,-6.9649,-7.2512,-7.3807,-7.3175,-7.1313,-7.0709,-7.0809,-7.1379,-7.1887,-7.2529,-7.3308,0.0,-2.6009,-2.7163,-2.8343,-2.9269,-3.018,-3.1222,-3.0634,-3.0263,-3.0813,-3.0297,-3.0877,-3.3456,-3.5404,-3.7311,-3.9261,-3.8397,-3.8893,-4.1633,-3.7888,-3.7403,-4.157,-4.5012,-4.5247,-4.1902,-4.0748,-3.6621,-2.9332,-2.4894,-2.0239,-1.5302,-1.7269,-1.718,-1.5582,-1.7813,-1.9834,-2.1797,-2.1581,-2.4674,-2.9887,-3.4802,-3.8782,-4.217,0.0,0.0,0.0,0.0,0.0,0.0,0.0,0.0,0.0,0.0,0.0,0.0,0.0,0.0,0.0,0.0,0.0,0.0,0.0,0.0,0.0,0.0,0.0,0.0,0.0,0.0,0.0,0.0,0.0,0.0,0.0,0.0,0.0,-3.4223,-3.5446,-3.6013,-3.5008,-3.9735,-4.275,-4.1601,-4.5435,-4.8485,-4.9719,-5.0852,-5.2412,-5.4577,-5.5232,-5.5786,-5.6314,-5.8485,-5.9315,-5.8789,-6.0484,-6.1271,-6.1244,-6.1378,-6.1837,-6.2687,-6.4508,-6.5849,-6.6883,-6.9982,-7.182,-7.2846,-7.4892,-7.5709,-7.5642,-7.4965,-7.51,-7.5506,-7.4086,-7.4931,-7.6724,-2.609,-2.6854,-2.7725,-2.906,-2.9922,-3.055,-3.0849,-3.1499,-3.1583,-3.0535,-3.2357,-3.3938,-3.4449,-3.5015,-3.5608,-3.6089,-3.4077,-3.3725,-3.5819,-3.4622,-3.6536,-4.2654,-4.4249,-4.5597,-4.6873,-4.2166,-3.7899,-3.4474,-2.7989,-2.2994,-1.9774,-1.9197,-1.7855,-1.6165,-1.6868,-1.753,-1.8309,-1.8358,-2.0782,-2.5117,-3.0384,-3.6473,-4.2684,0.0,0.0,0.0,0.0,0.0,0.0,0.0,0.0,0.0,0.0,0.0,0.0,0.0,0.0,0.0,0.0,0.0,0.0,0.0,0.0,0.0,0.0,0.0,0.0,0.0,0.0,0.0,0.0,0.0,0.0,0.0,0.0,-4.109,-3.6991,-3.7769,-3.8959,-3.9592,-4.1783,-4.4835,-4.8452,-5.0074,-5.2,-5.4952,-5.6084,-5.7216,-5.8187,-5.8779,-5.937,-5.9824,-6.0131,-6.0185,-6.0022,-6.0121,-6.0357,-6.0989,-6.229,-6.3565,-6.4866,-6.6603,-6.8405,-7.0253,-7.1585,-7.2944,-7.4186,-7.5918,-7.6217,-7.5743,-7.6115,-7.5709,-7.4931,-7.5033,-7.5134,-7.5067,-2.6943,-2.7506,-2.8115,-2.8822,-2.9285,-2.965,-2.9783,-3.0257,-3.0155,-2.8881,-3.2115,-3.4381,-3.3956,-3.0791,-2.8897,-2.9572,-2.4983,-2.3372,-2.6542,-3.107,-3.5532,-3.9753,-4.2292,-4.442,-4.6113,-4.2862,-3.9757,-3.6949,-3.2152,-2.799,-2.4433,-2.2955,-2.1188,-1.9473,-1.7687,-1.7019,-1.6902,-1.5101,-1.6204,-1.9115,-2.2043,-3.1186,-4.3454,-4.7448,-5.4259,-6.1582,-6.1368,-6.2251,-6.2748,-5.7677,0.0,0.0,0.0,0.0,0.0,0.0,0.0,0.0,0.0,0.0,0.0,0.0,0.0,0.0,0.0,0.0,0.0,0.0,0.0,0.0,0.0,0.0,0.0,0.0,-4.6512,-4.6277,-4.4352,-4.3184,-4.308,-4.4492,-4.6081,-4.8803,-5.2756,-5.4129,-5.5679,-5.7839,-5.8971,-5.9911,-6.0518,-6.1154,-6.1623,-6.1847,-6.2068,-6.2015,-6.1762,-6.2457,-6.308,-6.3564,-6.5102,-6.6667,-6.817,-6.9227,-7.0763,0.0,-7.3271,-7.386,-7.4695,-7.5574,-7.5473,0.0,0.0,0.0,0.0,0.0,-7.5033,-7.4052,-2.768,-2.8131,-2.8443,-2.8001,-2.7834,-2.7865,-2.8122,-2.7669,-2.698,-2.6047,-2.9921,-3.2279,-3.0948,-2.3925,-1.9436,-1.9849,-1.2678,-1.0354,-1.547,-2.6268,-3.2901,-3.4027,-3.8552,-4.1258,-4.1829,-4.2763,-4.1613,-3.8265,-3.6869,-3.3915,-2.9712,-2.786,-2.6109,-2.4106,-2.0328,-1.8075,-1.712,-1.2898,-1.18,-1.2746,-1.195,-2.3429,-4.1902,-4.7127,-5.5693,-6.5184,-6.6814,-6.7123,-6.6036,-6.1565,0.0,0.0,0.0,0.0,0.0,0.0,0.0,0.0,0.0,0.0,0.0,0.0,0.0,0.0,0.0,0.0,0.0,0.0,0.0,0.0,0.0,0.0,0.0,0.0,-5.0233,-5.1518,-5.3967,-5.0761,-4.861,-4.9552,-5.142,-5.3535,-5.5522,-5.7962,-5.954,-5.9751,-6.0941,-6.1837,-6.2368,0.0,0.0,0.0,0.0,-6.4289,-6.396,-6.6174,-6.7349,-6.7652,-6.9032,-7.0382,-7.1853,-7.1853,-7.2871,-7.4728,-7.4661,-7.4627,-7.4593,-7.4525,-7.4086,-7.3544,-7.4221,-7.4999,-7.5676,-7.5506,-7.4661,-7.368,-2.9523,-2.9297,-2.8788,-2.7714,-2.6927,-2.627,-2.567,-2.5082,-2.4036,-2.2182,-2.5614,-2.5918,-1.9833,-1.6637,-1.2021,-0.4876,-0.0493,-0.0784,-0.7049,-1.5963,-2.2871,-2.6922,-2.9516,-3.3356,-3.8803,-4.0672,-4.1731,-4.214,-4.0163,-3.8287,-3.6398,-3.3533,-3.0286,-2.6816,-2.5956,-2.2594,-1.748,-1.4703,-1.15,-0.8105,-0.578,-1.3774,-2.7615,-3.3918,-4.3733,-5.468,-5.8184,-6.4731,-7.0644,-6.3094,-5.9828,-5.7084,-4.6987,-4.0802,0.0,0.0,0.0,0.0,0.0,0.0,0.0,0.0,0.0,0.0,0.0,0.0,0.0,0.0,0.0,0.0,0.0,0.0,0.0,-5.1757,-5.3656,-5.5458,-5.8033,-5.7851,-5.6554,-5.4078,-5.4261,-5.6046,-5.9821,-6.1183,-6.2563,-6.4533,-6.5424,-6.5896,-6.6044,-6.6162,0.0,-6.6221,-6.5878,-6.6162,-6.7225,-6.7239,-6.8419,-7.0689,0.0,0.0,-7.3979,-7.3979,-7.4573,-7.5439,-7.4864,-7.4627,-7.4559,-7.395,-7.3612,-7.351,-7.3646,-7.4525,-7.554,-7.4356,-7.4119,-7.4255,-2.866,-2.847,-2.7916,-2.6405,-2.4708,-2.3213,-2.2113,-2.1114,-1.999,-1.8561,-2.278,-2.3405,-1.6799,-1.2338,-0.6658,0.1174,0.3257,0.2928,0.0069,-1.0835,-1.789,-1.9639,-2.3129,-2.773,-3.3251,-3.6624,-3.8851,-3.9649,-4.0246,-3.9963,-3.8769,-3.6597,-3.3991,-3.1033,-2.8717,-2.4613,-1.9315,-1.5768,-1.0661,-0.5003,-0.1067,-0.1543,-0.5647,-1.7029,-2.6392,-3.4879,-4.595,-5.4129,-5.9858,-6.0671,-6.0375,-5.8084,-4.884,-4.2941,-3.8851,0.0,0.0,0.0,0.0,0.0,0.0,0.0,0.0,0.0,0.0,0.0,0.0,0.0,0.0,-4.1477,-4.4668,0.0,-5.1267,-5.5463,-5.7329,-5.9198,-6.1822,-6.2733,-6.2108,-5.9593,-5.9875,-6.1703,-6.5109,-6.6375,-6.7291,-6.8145,-6.9032,-6.9274,-6.8465,-6.8794,-6.8794,-6.8495,-6.7837,-6.7666,-6.8118,-6.8945,-7.0008,-7.1422,-7.2912,-7.4157,-7.5168,-7.5168,-7.5337,-7.5676,-7.4931,-7.439,-7.3984,-7.324,-7.3172,-7.3544,-7.4289,-7.5033,-7.5608,-7.4864,-7.51,-7.554,-2.6808,-2.6289,-2.5575,-2.4149,-2.1764,-1.9551,-1.8199,-1.6684,-1.5565,-1.51,-1.9437,-2.0353,-1.4595,-0.9132,-0.2968,0.4355,0.5954,0.6098,0.5086,-0.7458,-1.4303,-1.3358,-1.8195,-2.2886,-2.7108,-3.2378,-3.5224,-3.5826,-3.8783,-4.0011,-3.9265,-3.755,-3.5828,-3.3839,-2.9798,-2.5458,-2.0925,-1.5242,-0.8922,-0.2167,0.4666,1.1351,1.5965,0.477,-0.4065,-1.2511,-2.7493,-3.7617,-4.5176,-5.2794,-5.6882,-5.7458,-4.9866,-4.4608,-4.0795,-3.8487,-3.6724,0.0,0.0,0.0,0.0,0.0,0.0,0.0,0.0,0.0,-3.8143,-4.1673,-4.2905,-4.47,-4.9034,-5.167,-5.4493,-5.877,-6.0827,-6.2714,-6.5151,-6.6185,-6.6172,-6.4942,-6.5584,-6.7023,-6.918,-7.0663,-7.1124,-7.0365,-7.1696,-7.1841,-7.0356,-7.0712,-7.0772,-7.026,-6.94,-6.877,-6.8421,-7.0683,-7.1785,-7.1821,-7.4672,-7.5845,-7.5709,-7.5709,-7.5709,-7.5642,-7.4762,-7.4052,-7.3443,-7.2868,-7.3138,-7.4052,-7.5405,-7.6014,-7.6115,-7.598,-7.6352,-7.6657,-2.5178,-2.2546,-2.0595,-2.0379,-1.8092,-1.5835,-1.4488,-1.2613,-1.1372,-1.1532,-1.3279,-1.2269,-0.64,-0.5856,-0.1617,0.9073,1.4335,1.3826,0.621,-0.3499,-0.922,-0.9679,-1.4088,-1.8224,-2.2191,-2.9041,-3.3448,-3.5121,-3.6655,-3.8154,-3.9814,-3.6588,-3.3806,-3.1722,-2.9147,-2.5385,-2.0793,-1.1594,-0.4852,0.091,1.4668,2.293,2.7984,3.501,2.5197,0.7052,0.3392,-1.4215,-3.5615,-3.4826,-4.608,-5.9289,-5.2748,-4.8119,-4.4578,-4.2562,-3.9985,-3.7922,-3.8528,-3.663,-3.4801,-3.6332,-3.7011,-3.8239,0.0,0.0,-4.3669,-4.6301,-4.7272,-4.8378,-5.0818,-5.374,-5.6869,-6.0392,-6.3072,-6.5346,-6.7424,-6.8337,-6.9046,-6.9377,-6.8567,-6.8371,-6.9212,-7.0556,-7.1013,-7.0279,-7.2013,-7.257,-7.1131,-7.1072,-7.1072,-7.1131,-6.9695,-6.9362,-6.9988,-7.2199,-7.3263,-7.3361,-7.567,-7.6386,-7.5709,-7.5709,-7.5709,-7.5608,-7.4221,-7.3578,-7.3477,-7.3409,-7.4187,-7.554,-7.642,-7.7164,-7.7638,-7.6995,-7.6826,-7.6589,-2.1012,-1.8437,-1.6309,-1.4677,-1.3861,-1.292,-1.1465,-0.9787,-0.8735,-0.8806,-0.8318,-0.6857,-0.3925,-0.1943,0.1201,0.6088,0.3967,0.2749,0.3591,-0.6367,-1.1358,-0.9153,-1.2088,-1.5754,-1.9908,-2.4354,-2.7834,-3.0176,-3.0816,-3.2348,-3.4491,-3.3385,-3.1028,-2.7513,-2.8023,-2.4153,-1.6876,-1.1257,-0.4563,0.3319,1.3971,2.3897,3.3525,4.3742,4.4449,3.799,2.4181,0.3077,0.0,-2.7017,-4.4075,-6.0988,-5.4614,-4.9766,-4.6039,-4.4327,-4.1314,-3.856,-3.8117,-3.8918,-3.976,0.0,-4.0815,-4.2753,-4.4857,-4.5713,-4.6783,-4.9734,-5.1699,-5.3684,-5.6093,-5.8523,-6.1019,0.0,-6.4866,-6.6307,-6.8426,-6.8918,-6.8954,-6.8282,-6.8927,-7.0166,-7.2151,-7.3276,-7.3985,-7.401,-7.4451,-7.4218,-7.3191,-7.2664,-7.2443,-7.259,-7.1518,-7.1361,-7.2148,-7.3476,-7.4228,-7.4295,-7.6071,-7.6487,-7.5709,-7.5709,-7.5473,-7.5033,-7.4424,-7.3883,-7.351,-7.395,-7.4492,-7.5202,-7.642,-7.7096,-7.7299,-7.6995,-7.6589,-7.5946,-1.6646,-1.4354,-1.235,-1.051,-1.0441,-1.022,-0.9037,-0.8013,-0.7434,-0.7567,-0.593,-0.4841,-0.5023,-0.2546,-0.1129,-0.1816,-0.9025,-0.9882,-0.1301,-1.0762,-1.4667,-1.0185,-1.2663,-1.601,-1.9759,-2.1874,-2.3961,-2.5757,-2.5602,-2.6313,-2.7921,-2.8533,-2.6215,-2.1884,-2.3894,-2.0495,-1.3224,-0.9237,-0.2973,0.487,1.4487,2.5021,3.6096,4.6365,5.2995,5.4687,3.7547,1.6375,-0.5961,-2.2211,-4.2616,-6.0449,-5.5883,-5.1824,-4.8243,-4.6202,-4.3301,-4.0564,-3.9577,-4.2052,0.0,-4.3767,-4.5758,-4.8259,-4.9271,-5.0144,-5.1571,-5.441,-5.6274,-5.8153,-6.0178,-6.2077,-6.3858,-6.5732,-6.6461,-6.7491,-6.9474,-6.9184,-6.8353,-6.7331,-6.8031,-6.9722,-7.2496,-7.3984,-7.4996,-7.5581,-7.5459,-7.5043,-7.4328,-7.3895,-7.3734,-7.3844,-7.3114,-7.2892,-7.3291,-7.4645,-7.5048,-7.4757,-7.6641,-7.7096,-7.6318,-7.6318,-7.6048,-7.5506,-7.51,-7.4728,-7.4424,-7.4559,-7.4864,-7.5371,-7.6454,-7.6893,-7.6893,-7.6893,-7.6386,-7.5473,-1.2636,-1.0302,-0.8657,-0.9243,-0.8482,-0.7729,-0.74,-0.7409,-0.765,-0.8169,-0.708,-0.7227,-0.9746,-1.0105,-1.1532,-1.4874,-2.0555,-1.9396,-0.8592,-1.5601,-1.7809,-1.2429,-1.6311,-1.9747,-2.2198,-2.3202,-2.3833,-2.3868,-2.2129,-2.1272,-2.1238,-2.1516,-1.9165,-1.4483,-1.4702,-1.3412,-1.0392,-0.3195,0.152,0.5342,1.9585,2.9232,3.622,4.5889,4.8472,4.6276,4.2479,2.5444,0.1537,-1.89,-3.9501,-5.6611,-5.6706,-5.4847,-5.2124,-4.8995,-4.6813,-4.5203,-4.475,-4.6381,-4.8425,-4.9667,-5.1986,-5.4491,-5.631,-5.7797,-5.9228,-6.1278,-6.1183,-6.0959,-6.1694,-6.288,-6.4219,-6.5758,-6.7681,-6.9594,-7.1339,-6.9457,-6.8012,-6.8137,-6.6143,-6.5662,0.0,-7.077,-7.2479,-7.2579,-7.3864,-7.4295,-7.3632,-7.4291,-7.4686,-7.4686,-7.3889,-7.3116,-7.2586,-7.5288,-7.607,-7.479,-7.7682,-7.8653,-7.7908,-7.7908,-7.7908,-7.7807,-7.6318,-7.6082,-7.669,-7.5202,-7.5473,-7.6826,-7.6893,-7.6893,-7.6893,-7.6893,-7.6386,-7.5371,-0.4296,-0.3357,-0.2847,-0.2949,-0.3891,-0.4833,-0.5418,-0.6738,-0.8223,-0.9712,-0.8969,0.0,0.0,0.0,0.0,0.0,-1.2047,-1.0333,-0.832,-0.9525,-1.0845,-1.1961,-1.3303,-1.5709,-1.9166,-1.7545,-1.6896,-1.705,-1.5101,-1.4021,-1.4112,-1.4414,-1.1849,-0.7366,-0.9238,-0.6772,-0.0928,0.3377,0.824,1.391,2.1941,3.1073,4.0406,4.637,4.2048,3.1303,0.0,0.7182,-0.6929,-2.1264,-3.9458,-5.5864,-5.4317,-5.2915,-5.1458,-4.9016,-4.887,-4.9489,-4.9533,-5.2049,-5.5011,-5.6017,-5.7847,-5.9653,-6.0293,-6.1055,-6.1466,-6.07,-6.1019,-6.1075,-6.0326,-6.1234,-6.293,-6.5377,-6.6794,-6.8727,-7.194,-7.0653,-6.8965,-6.7661,-6.7112,0.0,0.0,0.0,0.0,-7.3625,-7.4748,-7.545,-7.5802,-7.5972,-7.6106,-7.6106,-7.5406,-7.5604,-7.6867,-7.7345,-7.7581,-7.7581,-7.815,-7.8247,-7.7976,-7.8742,-7.8469,-7.7329,-7.7535,-7.7066,-7.6048,-7.554,-7.5642,-7.6115,-7.6115,-7.6115,-7.6048,-7.5574,-7.4897,-7.4119,0.0,0.3131,0.2627,0.1775,0.0228,0.0,0.0,0.0,0.0,0.0,0.0,0.0,0.0,0.0,0.0,0.0,0.0,-0.4296,0.0488,-0.3839,-0.7217,-0.8621,-1.1337,-1.5211,-2.0145,-1.684,-1.4944,-1.4806,-1.1421,-0.8779,-0.7172,-0.8211,-0.5712,-0.0521,-0.2984,-0.0891,0.4717,0.8027,1.2675,1.8366,2.3619,3.1569,4.0327,3.7546,2.9352,0.0,-0.3228,-1.507,-2.2893,-3.3475,-4.5321,-5.5366,-5.3786,-5.2541,-5.1538,-5.0737,-5.1888,-5.3539,-5.4582,-5.7734,-6.0922,-6.1731,-6.3143,-6.4203,-6.3883,-6.3498,-6.2558,-6.0402,-6.0289,-6.0189,-5.8727,-5.9074,-6.0757,-6.3971,-6.4918,-6.6719,-7.0972,-7.0038,-6.8625,-6.7661,-6.7031,-6.6373,0.0,0.0,0.0,-7.3206,-7.4356,-7.5371,-7.642,-7.6758,-7.713,-7.7671,-7.6927,-7.7367,-7.9092,-7.8889,-7.9295,-8.0276,-7.9261,-7.8923,-7.9259,-8.0071,-7.9462,-7.7769,-7.8649,-7.7915,-7.6115,-7.5811,-7.5709,-7.5709,-7.5709,-7.5709,-7.5642,-7.5168,-7.4525,-7.3815,0.0,0.0,0.7285,0.0,0.0,0.0,0.0,0.0,0.0,0.0,0.0,0.0,0.0,0.0,0.0,0.0,0.0,0.0,1.5849,0.0957,-0.6861,-0.3135,-1.0912,-1.8397,-2.4849,-2.0553,-1.763,-1.6392,-1.109,-0.5763,-0.061,-0.3315,-0.0802,0.565,0.3474,0.4058,0.6887,1.1009,1.518,1.9463,2.5309,3.1683,3.5932,2.1248,1.1615,0.2385,-2.5047,-3.8342,-4.4216,-5.3235,-5.5695,-5.5025,-5.4988,-5.3718,-5.2676,-5.4399,-5.5922,-5.7552,-6.0046,-6.3254,-6.6117,-6.6846,-6.7489,-6.7692,-6.6914,-6.4986,-6.2685,-6.0419,-5.9302,-5.8287,0.0,0.0,-5.7915,-6.1772,-6.2493,-6.4176,-6.8976,-6.822,-6.753,0.0,0.0,0.0,0.0,0.0,0.0,-7.1334,0.0,-7.4221,-7.5676,-7.6555,-7.7638,-7.9025,-7.8382,-7.8416,-7.916,-7.9938,-8.0987,-8.234,-8.0919,-8.0581,-8.1393,-8.1689,-8.0871,-7.9189,-7.9579,-7.8671,-7.6826,-7.6014,-7.5709,-7.5743,-7.5709,-7.5709,-7.5709,-7.5709,-7.5202,-7.4356,0.0,0.0,0.0,0.0,0.0,0.0,0.0,0.0,0.0,0.0,0.0,0.0,0.0,0.0,0.0,0.0,0.0,0.0,1.6136,0.627,-0.0577,-0.1893,-1.1731,-1.9538,-2.4514,-2.101,-1.7247,-1.3337,-1.038,-0.4765,0.2993,0.0149,0.1816,0.7252,0.4507,0.6165,1.1318,1.6402,2.2917,3.0307,3.4922,3.5009,3.1536,2.3526,0.4984,-1.8028,-2.7376,-4.0748,-5.4226,-5.5803,-5.5695,-5.4801,-5.3609,-5.409,-5.5644,-5.8232,-6.0029,-6.192,-6.5369,-6.7757,-6.946,-6.9964,-6.9011,-6.7557,-6.6271,-6.3396,-6.0317,-5.8118,-5.619,-5.4803,0.0,0.0,0.0,-6.1501,-6.3528,0.0,-7.2226,-7.2676,0.0,-7.3082,0.0,-7.1868,-7.1693,-7.2649,0.0,0.0,-7.4775,-7.5574,-7.6555,-7.7841,-7.845,-7.828,-7.8619,-7.916,-7.9904,-8.119,-8.1765,-8.1562,-8.119,-8.1254,-8.175,-8.1886,-8.0997,-7.9511,-7.9671,-7.8671,-7.6826,-7.6014,-7.6048,-7.6521,-7.5946,-7.5709,-7.5709,-7.5709,-7.4897,-7.3713,0.0,0.0,0.0,0.0,0.0,0.0,0.0,0.0,0.0,0.0,0.0,0.0,0.0,0.0,0.0,0.0,0.0,0.0,0.0,0.4101,-0.2218,-0.6151,-1.5726,-2.2852,-2.6795,-2.299,-1.9085,-1.5468,-1.0621,-0.4752,0.1688,0.1351,0.2195,0.3832,0.2252,0.1563,0.2401,1.5311,1.8729,0.0,0.0,2.4189,1.41,0.1981,-1.3849,-3.0711,-3.9262,-4.8664,-5.6868,-5.5808,-5.5118,-5.4896,-5.5747,-5.7444,-5.9715,-6.2793,-6.4649,-6.6325,-6.8713,-7.0453,-7.1443,-7.09,-6.9101,-6.7052,-6.5551,-6.2027,-5.853,-5.6253,-5.4274,-5.2853,-5.2545,-5.2255,0.0,0.0,0.0,0.0,-7.1336,-7.3164,-7.4109,0.0,-7.5327,0.0,-7.5347,-7.6604,-7.7363,0.0,-7.6871,-7.6893,-7.7367,-7.8788,-7.9532,-7.9431,-7.9837,-8.0581,-8.1629,-8.2171,-8.234,-8.2238,-8.1596,-8.1426,-8.1702,-8.1767,-8.08,-7.899,0.0,-7.8465,-7.6352,-7.6284,-7.6487,-7.686,-7.6386,-7.6217,-7.6183,-7.5845,-7.5168,-7.4356,0.0,0.0,0.0,0.0,0.0,0.0,0.0,0.0,0.0,0.0,-0.1501,-0.1494,0.0,0.0,0.0,0.0,0.0,0.0,0.0,0.0,-0.8465,-1.3052,-2.1415,-2.7448,-3.065,-2.63,-2.2862,-2.0668,-1.3204,-0.744,-0.3317,-0.0946,-0.12,-0.3595,-0.3556,-0.7245,-1.2397,0.7484,0.6674,-0.6464,0.8378,0.6044,-0.8381,0.0,-3.5411,-3.9345,-5.3544,-5.7077,-5.5018,-5.4751,-5.481,-5.5684,-5.9391,-6.1814,-6.398,-6.732,-6.9136,-7.0123,-7.0949,-7.1952,-7.2375,-7.0633,-6.8309,-6.609,-6.465,-6.0583,-5.6576,-5.4747,-5.3077,-5.1848,-5.1396,-5.0901,-5.249,-5.8481,0.0,-6.3308,-6.9491,-7.2392,-7.4508,-7.6182,-7.7143,-7.8075,-7.8859,-8.0313,-8.1072,-8.0631,-7.9643,-7.8816,-7.845,-7.9735,-8.0818,-8.1562,-8.1562,-8.2238,-8.3625,-8.3016,-8.2915,-8.3321,-8.2035,-8.1427,-8.1393,-8.1593,-8.0432,-7.8371,0.0,0.0,-7.6183,-7.6792,-7.7063,-7.7029,-7.6927,-7.6826,-7.6657,-7.5946,-7.5642,-7.5371,0.0,0.0,0.0,0.0,0.0,0.0,0.0,0.0,0.0,0.0,0.0649,0.3968,0.0,0.0,0.0,0.0,0.0,0.0,0.0,0.0,0.0,-1.7577,-2.641,-3.2188,-3.4272,-3.2401,-2.943,-2.5418,-2.3392,-1.8916,-1.2162,-1.2708,-1.3733,-1.4933,-1.6414,-1.8028,-1.9161,-1.236,-0.9153,-0.8132,-0.2012,-0.7627,-2.0483,-2.8122,0.0,0.0,-5.4537,-5.4262,-5.2232,-5.4987,-5.699,-5.8731,-6.075,-6.3466,-6.6623,-7.0513,-7.1247,-7.1231,-7.315,-7.3256,-7.2403,-7.0774,-6.7143,-6.382,-6.3126,-5.7917,0.0,-5.3564,-5.1865,-5.0752,-5.1828,-5.2459,-5.4828,-6.0984,0.0,0.0,0.0,0.0,-7.8471,0.0,0.0,0.0,0.0,0.0,0.0,0.0,0.0,-8.3075,-8.0885,-8.1562,-8.2374,-8.3084,-8.3118,-8.3524,-8.4403,-8.4302,-8.3693,-8.2611,-8.234,-8.2103,-8.1741,-8.0936,-8.039,-8.0224,-7.9507,0.0,-7.8483,-7.801,-7.7807,-7.7739,-7.713,-7.6487,-7.5879,-7.5743,-7.5303,-7.4695,0.0,0.0,0.0,0.0,0.0,0.0,0.0,-0.3986,-1.0121,-1.5764,-0.9414,-0.2822,0.1393,0.1687,0.1115,0.0,0.0,0.0,0.0,0.0,0.0,-2.8049,-3.3726,-3.6822,-3.7006,-3.5779,-3.388,-3.1233,0.0,-2.5425,-2.1747,-2.0927,-2.2563,-2.6287,-2.7164,-3.016,-3.3872,-2.3083,-2.3117,-2.9569,-2.0204,-2.5302,-3.8989,-4.2913,0.0,0.0,-5.453,-5.3507,-5.2441,-5.5561,-5.7492,-5.9292,-6.3481,-6.6733,-6.9706,-7.3303,-7.3995,-7.376,-7.4185,-7.431,-7.3693,-7.1131,-6.6977,-6.3453,-6.3315,0.0,0.0,-5.4291,-5.2713,-5.1464,-5.2508,-5.2749,0.0,-5.9355,-6.0948,0.0,0.0,0.0,0.0,0.0,0.0,0.0,0.0,0.0,0.0,0.0,0.0,-8.568,-8.3007,-8.2922,-8.3321,-8.4065,-8.4065,-8.4268,-8.464,-8.464,-8.4065,-8.2983,-8.2577,-8.2072,-8.1513,-8.0612,-8.0134,-7.9871,-7.9356,0.0,-7.8517,-7.8551,-7.8585,-7.8551,-7.8179,-7.757,-7.6826,-7.6454,-7.5845,-7.4904,0.0,0.0,0.0,0.0,0.0,0.0,0.6079,-0.483,-1.5921,-2.553,-2.0075,-1.1449,-0.1392,0.0571,0.0246,0.0,0.0,0.0,0.0,0.0,0.0,0.0,0.0,0.0,0.0,0.0,0.0,0.0,-3.3826,0.0,0.0,0.0,0.0,0.0,-3.7336,-4.1674,-4.7974,-3.4723,-3.7847,0.0,0.0,-4.2271,0.0,0.0,0.0,0.0,0.0,-5.3124,-5.2928,-5.5485,-5.6835,-5.8525,-6.4345,-6.8277,-7.1232,-7.4022,-7.5165,-7.5389,-7.4798,-7.5048,-7.4762,-7.1874,-6.7227,-6.3451,-6.3538,-5.8081,-5.3408,-5.4987,-5.3754,-5.2516,-5.3085,-5.2916,-5.3797,0.0,-5.8287,-6.1552,0.0,0.0,0.0,0.0,0.0,0.0,0.0,0.0,0.0,0.0,0.0,0.0,-8.4426,-8.3978,-8.3998,-8.4606,-8.464,-8.464,-8.464,-8.464,-8.4167,-8.3253,-8.2678,-8.1934,-8.1021,-8.0445,-7.9803,-7.9126,-7.9126,0.0,0.0,-7.8619,-7.8788,-7.8653,-7.8653,-7.8179,-7.7401,-7.669,-7.5788,-7.4724,0.0,0.0,0.0,0.0,0.0,0.0,1.4261,0.3343,-1.1254,-2.9529,-2.2812,-1.5427,-1.3265,-0.8082,-0.6025,0.0,0.0,0.0,0.0,0.0,0.0,0.0,0.0,0.0,0.0,0.0,0.0,0.0,0.0,0.0,0.0,0.0,0.0,0.0,0.0,0.0,-5.4917,-5.519,0.0,0.0,0.0,0.0,0.0,0.0,0.0,0.0,0.0,-5.2025,-5.1974,-5.3619,-5.492,-5.6486,-6.0102,-6.4616,-6.8827,-7.0238,0.0,0.0,-7.5322,-7.5048,-7.4254,-7.3326,-6.7851,-6.263,-6.2829,0.0,-5.2564,-5.4179,-5.3769,-5.314,-5.3213,-5.3756,-5.5029,-5.7591,-5.9212,-6.2778,-7.0254,0.0,0.0,0.0,0.0,0.0,0.0,0.0,0.0,0.0,0.0,0.0,-8.4687,-8.4471,-8.4539,-8.464,-8.464,-8.464,-8.464,-8.464,-8.3896,-8.2509,-8.2441,-8.1663,-8.031,-8.0242,-7.9803,-7.9126,-7.9126,0.0,0.0,-7.8044,-7.7705,-7.7096,-7.7096,-7.6623,-7.5811,-7.51,-7.4027,-7.268,0.0,0.0,0.0,0.0,0.0,0.0,1.4553,0.6566,-0.3415,-1.5151,-1.9299,-2.0761,-1.9537,-1.4713,-1.2839,-1.5807,-1.8468,0.0,0.0,0.0,0.0,0.0,0.0,0.0,0.0,0.0,-4.5122,-4.4493,-4.6819,0.0,0.0,0.0,0.0,0.0,0.0,0.0,0.0,-5.7244,0.0,0.0,0.0,0.0,0.0,0.0,0.0,0.0,0.0,0.0,-5.1561,-5.3171,-5.4383,-5.5449,-5.6951,-6.0159,-6.4141,-6.7911,-7.0477,-7.2595,-7.4549,-7.5959,-7.6533,-7.5205,-6.9854,-6.4913,-6.4977,0.0,-5.3188,-5.4766,-5.4106,-5.3225,-5.3225,-5.3482,-5.4326,-5.6235,-5.6271,-5.8621,-6.5925,0.0,0.0,0.0,0.0,0.0,0.0,0.0,0.0,0.0,0.0,0.0,-8.5786,-8.4961,-8.464,-8.464,-8.464,-8.464,-8.464,-8.464,-8.4099,-8.305,-8.2611,-8.1866,-8.0818,-7.9938,-7.9397,-7.9092,-7.8619,0.0,0.0,-7.7976,-7.7807,-7.7536,-7.7536,-7.6792,-7.5546,-7.4435,-7.3111,-7.1588,0.0,0.0,0.0,0.0,0.0,1.6899,1.4454,1.0458,0.3855,-0.707,-1.513,-2.0749,-2.28,-1.948,-1.8731,-2.2893,-2.5471,0.0,0.0,0.0,0.0,0.0,0.0,0.0,0.0,0.0,-4.7108,-4.7622,-4.9489,-5.0585,0.0,0.0,0.0,0.0,0.0,0.0,0.0,0.0,0.0,0.0,0.0,0.0,0.0,0.0,0.0,0.0,0.0,0.0,0.0,0.0,0.0,-5.4983,-5.5458,-5.7389,-6.03,-6.4603,-6.8319,-7.1581,-7.3479,-7.6063,-7.7914,-7.6541,-7.1253,-6.6316,-6.6198,0.0,-5.4022,-5.503,-5.4326,-5.3482,-5.3261,-5.3408,-5.3922,-5.506,-5.4693,-5.6492,-6.2805,-6.4494,0.0,0.0,0.0,0.0,0.0,0.0,0.0,0.0,0.0,0.0,0.0,-8.524,-8.464,-8.464,-8.464,-8.464,-8.464,-8.4403,-8.393,-8.3186,-8.2441,-8.1562,-8.0615,-7.9566,-7.8889,-7.8416,0.0,0.0,0.0,-7.6995,-7.686,-7.6657,-7.6657,-7.5788,-7.4295,-7.3111,-7.1516,-6.9517,0.0,0.0,0.0,0.0,0.0,1.5648,1.5184,1.6267,0.9649,-1.1388,-1.1367,-1.3221,-2.328,-2.2034,-2.3242,-3.0167,-3.1142,0.0,0.0,0.0,0.0,0.0,0.0,0.0,-4.5757,-4.7414,-4.8926,-5.024,-5.1619,-5.3084,-5.4669,-5.4801,-5.5709,0.0,0.0,0.0,0.0,0.0,0.0,0.0,0.0,0.0,0.0,0.0,0.0,0.0,0.0,0.0,0.0,0.0,0.0,0.0,0.0,-5.7055,-5.8119,-5.9552,-6.5134,-7.1079,-7.2225,-7.4882,-7.7341,-7.7243,-7.1615,-6.5885,-6.5404,-6.0034,-5.4947,-5.4491,-5.4399,-5.4142,-5.3371,-5.3849,-5.4399,-5.4399,-5.5721,-5.818,-6.2254,-6.5595,0.0,0.0,0.0,0.0,0.0,0.0,0.0,0.0,0.0,0.0,0.0,-8.524,-8.464,-8.464,-8.464,-8.464,-8.464,-8.3896,-8.3152,-8.2408,-8.1663,-8.0547,-7.9126,-7.9126,-7.8314,0.0,0.0,0.0,0.0,-7.4661,-7.4221,-7.3544,-7.3544,-7.2692,-7.1458,-7.0666,-6.8634,-6.612,0.0,0.0,0.0,0.0,0.0,0.0,0.6968,1.2132,1.0872,-0.2875,-0.7738,-1.2928,-2.0643,-2.2822,-2.6771,-3.4149,-3.5138,0.0,0.0,0.0,0.0,0.0,0.0,0.0,-4.6677,-4.823,-4.9485,-5.0356,-5.3222,-5.444,-5.4128,-5.5886,-5.6824,-5.6936,-5.7236,0.0,0.0,0.0,0.0,0.0,0.0,0.0,0.0,0.0,0.0,0.0,0.0,0.0,0.0,0.0,0.0,0.0,0.0,0.0,0.0,-5.9396,-6.2662,-6.6662,-6.842,-7.0673,-7.236,-7.171,-6.8519,-6.5229,-6.3886,-6.0034,-5.662,-5.6147,-5.5611,-5.5133,-5.4876,-5.506,-5.5574,-5.6675,-5.774,-5.9098,0.0,0.0,0.0,0.0,0.0,0.0,0.0,0.0,0.0,0.0,0.0,0.0,0.0,-8.524,-8.464,-8.464,-8.464,-8.464,-8.464,-8.3862,-8.3118,-8.2408,-8.1629,-8.0513,-7.9092,-7.8585,0.0,0.0,0.0,0.0,0.0,-7.4052,-7.3713,-7.3384,-7.2467,-7.1521,-7.0404,-6.8284,-6.6663,-6.5311,0.0,0.0,0.0,0.0,0.0,0.0,-0.4256,0.0294,0.2123,-0.1985,-0.8154,-1.5367,-2.3722,-2.6342,-3.0117,-3.6805,-3.8234,0.0,0.0,0.0,0.0,0.0,0.0,0.0,-4.7515,-4.8632,-5.0196,-5.2219,-5.4877,-5.6212,-5.6286,-5.7899,-5.8467,-5.8081,-5.7593,-5.7604,0.0,0.0,0.0,0.0,0.0,0.0,-4.7913,0.0,0.0,0.0,0.0,0.0,0.0,0.0,0.0,0.0,0.0,0.0,0.0,0.0,-6.1299,-6.3372,-6.5474,-6.791,-6.9723,-6.91,-6.6941,-6.4619,-6.3336,-6.0388,-5.7732,-5.6993,-5.6418,-5.5941,-5.5647,-5.5831,-5.6381,-5.7373,-5.7993,-5.903,0.0,0.0,0.0,0.0,0.0,0.0,0.0,0.0,0.0,0.0,0.0,0.0,0.0,-8.4961,-8.4505,-8.42,-8.4471,-8.4471,-8.42,-8.3456,-8.2712,-8.1968,-8.0953,-7.9837,-7.8653,-7.7908,0.0,0.0,0.0,0.0,0.0,-7.3375,-7.2591,-7.1821,-7.0991,-6.9679,-6.8113,-6.6462,-6.5152,-6.4209,0.0,0.0,0.0,0.0,0.0,0.0,0.0,-1.6576,-1.3997,-0.8138,-1.2714,-2.0511,-3.0859,-3.1693,-3.3442,-3.843,-4.0452,0.0,0.0,0.0,0.0,0.0,0.0,-4.6346,-4.8274,-4.8833,-5.1097,-5.5116,-5.6484,-5.8274,-6.0409,-6.0603,-6.0646,-6.0487,-5.8954,-5.8127,-5.7589,-5.3975,-5.1523,-4.9961,-4.8319,-4.7751,0.0,0.0,0.0,0.0,0.0,0.0,0.0,0.0,0.0,0.0,0.0,0.0,0.0,0.0,0.0,0.0,0.0,-6.6103,-6.8399,-6.8274,-6.6024,-6.3687,-6.3221,-6.0832,0.0,-5.714,-5.6895,-5.6675,-5.586,-5.6337,-5.685,-5.6795,-5.6975,0.0,0.0,0.0,0.0,0.0,0.0,0.0,0.0,0.0,0.0,0.0,0.0,0.0,0.0,-8.464,-8.4268,-8.3524,-8.4167,-8.42,-8.3422,-8.2644,-8.19,-8.119,-7.9735,-7.8619,-7.7807,-7.713,0.0,0.0,0.0,0.0,0.0,-7.2631,-7.1084,-6.9217,-6.9088,-6.747,-6.5111,-6.5032,-6.4209,-6.3079,0.0,0.0,0.0,0.0,0.0,0.0,0.0,0.0,0.0,0.0,-2.3526,-2.8828,-3.0261,-3.3514,-3.684,0.0,0.0,0.0,0.0,0.0,0.0,0.0,-4.6019,-4.7186,-4.8435,-5.0256,-5.2239,-5.4434,-5.7434,-5.9798,-6.157,-6.2948,-6.3408,-6.2866,-6.0955,-5.7993,-5.4189,-5.1263,-5.0047,-4.9924,-4.8133,-4.8243,0.0,0.0,0.0,0.0,-5.1849,-5.372,0.0,0.0,0.0,0.0,0.0,0.0,0.0,0.0,-6.0712,-6.0493,-6.0951,0.0,-6.1506,-6.0415,-6.0111,-5.9938,0.0,-5.9017,-5.8512,-5.7876,-5.7703,-5.7491,-5.6708,-5.7193,-5.7521,-5.6976,0.0,0.0,0.0,0.0,0.0,0.0,0.0,0.0,0.0,0.0,0.0,0.0,0.0,0.0,0.0,-8.464,-8.4268,-8.3524,-8.3659,-8.3389,-8.2678,-8.1359,-8.0615,-8.0445,-7.8957,-7.7536,-7.6217,-7.6048,0.0,0.0,0.0,0.0,-7.2597,-7.1853,-7.0616,-6.9121,-6.8074,-6.6679,-6.5032,-6.4015,-6.3394,-6.3079,0.0,0.0,0.0,0.0,0.0,0.0,0.0,0.0,0.0,0.0,-3.0554,-3.3627,-3.3213,-3.6457,-3.9466,0.0,0.0,0.0,0.0,0.0,0.0,-4.5099,-4.6273,-4.7423,-4.8478,-5.0544,-5.2727,-5.4998,-5.7953,-6.0506,-6.2606,-6.347,-6.3473,-6.2624,-5.9102,-5.5585,-5.2188,-5.0416,-4.967,-4.9733,-4.8934,0.0,0.0,0.0,0.0,0.0,-5.3245,-5.4669,0.0,-5.7751,-5.8948,-6.0076,0.0,0.0,0.0,0.0,-6.0402,-6.0059,-5.9353,-5.9337,-5.9261,-5.8499,-5.8535,-5.8683,-5.8392,-5.8332,-5.8201,-5.7642,-5.7498,-5.7266,-5.6474,-5.6685,0.0,0.0,0.0,0.0,0.0,0.0,0.0,0.0,0.0,0.0,0.0,0.0,0.0,0.0,0.0,0.0,0.0,-8.464,-8.4133,-8.305,-8.3016,-8.2644,-8.19,-8.0784,-8.004,-7.9667,-7.7807,-7.6487,-7.5676,-7.4999,-7.4255,0.0,0.0,0.0,-7.2326,-7.1616,-7.0076,-6.8206,-6.747,-6.5941,-6.4097,-6.3394,-6.3079,-6.3079,0.0,0.0,0.0,0.0,0.0,0.0,0.0,0.0,0.0,0.0,0.0,0.0,0.0,0.0,0.0,0.0,0.0,0.0,0.0,0.0,-4.4928,-4.5176,-4.6277,-4.7505,-4.885,-5.0498,-5.2913,-5.6175,-5.8553,-6.1103,-6.3923,-6.4045,-6.3233,-6.1486,-5.6358,-5.3048,-5.1227,-5.0365,-4.984,-4.9655,-5.0177,0.0,0.0,0.0,0.0,0.0,0.0,0.0,0.0,-5.8531,-5.9288,-5.9947,-6.0818,0.0,0.0,0.0,0.0,0.0,-5.8449,-5.8764,-5.929,-5.9135,-5.8802,-5.8486,-5.8553,-5.8201,-5.7679,-5.7015,0.0,-5.6474,-5.5667,-5.5892,0.0,0.0,0.0,0.0,0.0,0.0,0.0,0.0,0.0,0.0,0.0,0.0,0.0,0.0,0.0,0.0,0.0,-8.4505,-8.3828,-8.2441,-8.2205,-8.1697,-8.0953,-8.0209,-7.9498,-7.8754,-7.6555,-7.5473,-7.5303,-7.395,-7.324,0.0,0.0,0.0,-7.2191,-7.1582,-6.9666,-6.7164,-6.7164,-6.5544,-6.3079,-6.3079,-6.3079,-6.3079,0.0,0.0,0.0,0.0,0.0,0.0,0.0,0.0,0.0,0.0,0.0,0.0,0.0,0.0,0.0,0.0,0.0,0.0,0.0,-4.5552,-4.5502,-4.5519,-4.6292,-4.7903,-5.0477,-5.1146,-5.3451,-5.7497,-6.014,-6.3047,-6.6244,-6.8237,-6.6679,-6.2004,-5.7506,-5.3954,-5.1225,-5.0059,-4.9731,-5.01,-5.1168,0.0,0.0,0.0,0.0,0.0,0.0,0.0,0.0,-5.8604,-5.8905,-5.9056,-5.9938,0.0,0.0,0.0,0.0,0.0,-5.8499,-5.8804,-5.881,-5.7955,-5.7633,-5.7695,-5.8002,-5.7594,-5.7015,-5.6912,0.0,0.0,0.0,-5.6877,0.0,0.0,0.0,0.0,0.0,0.0,0.0,0.0,0.0,0.0,0.0,0.0,0.0,0.0,0.0,0.0,0.0,-8.4031,-8.3287,-8.2441,-8.119,-8.0175,-7.9464,-7.872,-7.7976,-7.7232,-7.5574,-7.4424,-7.3781,-7.2969,-7.2225,0.0,0.0,-7.1481,-7.1481,-7.1379,-6.9666,-6.7164,-6.7164,-6.5544,-6.3079,-6.3079,-6.3079,-6.3079,0.0,0.0,0.0,0.0,0.0,0.0,0.0,0.0,0.0,0.0,0.0,0.0,0.0,0.0,0.0,0.0,0.0,0.0,0.0,-4.5548,-4.593,-4.6993,-4.726,-4.8497,-5.0842,-5.2597,-5.5575,-5.9864,-6.2361,-6.5123,-6.8038,-6.7119,-6.4275,-5.9753,-5.5832,-5.2937,-5.096,-5.0175,-4.9924,-5.0212,0.0,0.0,0.0,0.0,0.0,0.0,0.0,0.0,0.0,0.0,-5.8183,-5.8137,-5.9032,0.0,0.0,0.0,0.0,0.0,-5.7571,-5.746,-5.7397,-5.8142,-5.8323,-5.8151,-5.7546,-5.6797,-5.6257,-5.6233,0.0,0.0,0.0,0.0,0.0,0.0,0.0,0.0,0.0,0.0,0.0,0.0,0.0,0.0,0.0,0.0,0.0,0.0,0.0,0.0,0.0,0.0,-8.3152,-8.2441,-8.0987,-7.9667,-7.8517,-7.6575,-7.5838,-7.6217,-7.4322,-7.324,-7.2868,-7.2157,-7.1616,-7.1312,0.0,-7.0882,-7.017,-7.017,-6.8503,-6.6048,-6.6048,-6.4813,-6.3079,-6.3079,-6.3079,-6.3079,0.0,0.0,0.0,0.0,0.0,0.0,0.0,0.0,0.0,0.0,0.0,0.0,0.0,0.0,0.0,0.0,0.0,0.0,0.0,-4.5519,-4.6211,-4.7959,-4.851,-4.9917,-5.2304,-5.4334,-5.7699,-6.2452,-6.4596,-6.7199,-7.0036,-6.6067,-6.224,-5.8633,-5.4661,-5.227,-5.1092,-5.0596,-5.0541,-5.0941,0.0,0.0,0.0,0.0,0.0,0.0,0.0,0.0,0.0,0.0,0.0,0.0,0.0,0.0,0.0,-5.7056,-5.6767,-5.6594,-5.6528,-5.6503,-5.6701,-5.7747,-5.816,-5.833,-5.8401,-5.754,-5.6921,-5.7652,-5.7078,0.0,0.0,0.0,0.0,0.0,0.0,0.0,0.0,0.0,0.0,0.0,0.0,0.0,0.0,0.0,0.0,0.0,0.0,0.0,0.0,0.0,-8.2225,-8.1581,-7.9727,-7.8013,-7.6709,-7.3998,-7.3575,-7.5405,-7.2747,-7.1774,-7.236,-7.0909,-7.0482,-7.0791,-7.0482,-6.976,-6.8699,-6.8503,-6.7138,-6.5111,-6.4925,-6.4168,-6.3079,-6.3079,-6.3079,-6.3079,0.0,0.0,0.0,0.0,0.0,0.0,0.0,0.0,0.0,0.0,0.0,0.0,0.0,0.0,0.0,0.0,0.0,0.0,-4.5888,-4.5861,-4.6289,-4.7241,-4.9718,-5.2848,-5.6666,-5.617,-5.8847,-6.4963,-6.659,-6.9289,-7.2821,-6.8125,-6.4315,-6.118,-5.6102,-5.3315,-5.2425,-5.1561,-5.1905,-5.3067,-5.3972,0.0,0.0,0.0,0.0,0.0,0.0,0.0,0.0,0.0,0.0,0.0,0.0,0.0,-5.6021,-5.671,-5.6331,-5.5705,-5.5691,-5.717,-5.8142,-5.5502,-5.5405,-5.7188,-6.1947,-6.1355,-6.0636,-6.3363,-6.2836,0.0,0.0,0.0,0.0,0.0,0.0,0.0,0.0,0.0,0.0,0.0,0.0,0.0,0.0,0.0,0.0,0.0,0.0,0.0,0.0,0.0,0.0,-7.9254,-7.5839,-7.3578,-7.2948,-7.0674,-7.1349,-7.4661,-7.0499,-6.9911,-7.2269,-6.9027,-6.8206,-6.9313,-6.8007,-6.747,-6.7336,-6.6662,-6.5868,-6.5049,-6.4398,-6.374,-6.3079,-6.3079,-6.3079,-6.3079,0.0,0.0,0.0,0.0,0.0,0.0,0.0,0.0,0.0,0.0,0.0,0.0,0.0,0.0,0.0,0.0,0.0,0.0,-4.5809,-4.5944,-4.6846,-4.8738,-5.033,-5.2858,-5.6458,-5.8987,-6.2952,-6.8297,-7.0118,-7.1018,-7.1015,-6.5658,-6.1862,-5.9403,-5.5308,-5.3261,-5.2954,-5.2609,-5.2752,-5.328,-5.4164,-5.4607,0.0,0.0,0.0,0.0,0.0,0.0,0.0,0.0,-5.6402,-5.623,-5.6542,-5.6209,-5.5668,-5.5473,-5.5194,-5.4913,-5.4907,-5.6237,-5.7514,-5.6808,-5.7289,-5.8746,-6.2044,-6.1816,-6.2002,-6.5846,-6.6214,0.0,0.0,0.0,0.0,0.0,0.0,0.0,0.0,0.0,0.0,0.0,0.0,0.0,0.0,0.0,0.0,0.0,0.0,0.0,0.0,0.0,0.0,-7.8386,-7.4808,-7.2586,-7.1881,-6.8938,-6.8553,-7.0697,-6.8576,-6.8193,-6.9125,-6.7802,-6.747,-6.7874,-6.7368,-6.6497,-6.525,-6.4999,-6.3995,-6.2688,-6.2839,-6.3018,-6.3079,-6.3079,-6.3079,-6.3079,0.0,0.0,0.0,0.0,0.0,0.0,0.0,0.0,0.0,0.0,0.0,0.0,0.0,0.0,0.0,0.0,0.0,0.0,-4.5797,-4.602,-4.7072,-4.9283,-5.0481,-5.2668,-5.6044,-6.0769,-6.4935,-6.8553,-7.0736,-7.0806,-6.8747,-6.3733,-6.0566,-5.8988,-5.5615,-5.4361,-5.478,-5.4203,-5.4164,-5.4434,-5.4741,-5.5045,0.0,0.0,0.0,0.0,0.0,0.0,0.0,0.0,-5.6386,-5.6181,-5.6135,-5.5748,-5.5212,-5.464,-5.4326,-5.4017,-5.3728,-5.4901,-5.6237,-5.6644,-5.7961,-6.0255,-6.4313,-6.4647,-6.5493,-7.0432,-7.0128,-6.8977,-6.8977,0.0,0.0,0.0,0.0,0.0,0.0,0.0,0.0,0.0,0.0,0.0,0.0,0.0,0.0,0.0,0.0,0.0,0.0,0.0,0.0,0.0,-7.2284,-7.0118,-6.9427,-6.6827,-6.5899,-6.6663,-6.6192,-6.6365,-6.7164,-6.6259,-6.6154,-6.6543,-6.6321,-6.5313,-6.4026,-6.3592,-6.2364,-6.0864,-6.1762,-6.2361,-6.278,-6.2989,-6.3079,-6.3079,0.0,0.0,0.0,0.0,0.0,0.0,0.0,0.0,-4.2321,-4.2382,-4.2997,0.0,0.0,0.0,0.0,0.0,0.0,0.0,-4.5918,-4.6014,-4.6839,-4.8418,-5.0179,-5.267,-5.6085,-6.099,-6.4018,-6.5012,-6.7803,-6.8273,-6.6453,-6.3076,-6.1286,-6.0807,-5.7489,-5.6866,-5.8165,-5.6434,-5.6203,-5.6896,-5.6049,-5.5896,-5.6191,0.0,0.0,0.0,0.0,0.0,0.0,0.0,-5.6293,-5.6169,-5.5947,-5.5255,-5.4522,-5.4484,-5.3907,-5.3041,-5.2234,-5.3217,-5.4496,-5.4358,-5.6753,-6.1321,-6.9422,-7.0737,-7.1921,-7.7908,-7.4999,-7.1379,-7.1379,0.0,0.0,0.0,0.0,0.0,0.0,0.0,0.0,0.0,0.0,0.0,0.0,0.0,0.0,0.0,0.0,0.0,0.0,0.0,0.0,0.0,-6.7456,-6.5682,-6.5024,-6.4336,-6.3677,-6.3079,-6.3079,-6.4512,-6.7061,-6.432,-6.3789,-6.508,-6.429,-6.398,-6.3888,-6.2495,-6.1263,-6.0206,-6.1553,-6.2091,-6.2181,-6.2839,-6.3079,-6.3079,0.0,0.0,0.0,0.0,0.0,0.0,0.0,0.0,-4.2381,-4.2383,-4.2516,0.0,0.0,0.0,0.0,0.0,0.0,0.0,-4.5786,-4.5909,-4.6697,-4.8296,-4.9446,-5.0942,-5.285,-5.563,-5.9903,-6.5779,-6.6247,-6.4926,-6.1919,-5.9814,-5.8718,-5.8428,-5.7319,-5.6742,-5.6616,-5.6596,-5.6742,-5.6896,-5.6049,-5.6244,-5.697,0.0,0.0,0.0,0.0,0.0,0.0,0.0,0.0,0.0,-5.5939,-5.5852,-5.5607,-5.4767,-5.4872,-5.4962,-5.3299,-5.4532,0.0,-5.7367,0.0,0.0,-7.141,-7.2259,-7.3578,-8.0107,-7.8957,-7.6487,-7.5439,0.0,0.0,0.0,0.0,0.0,0.0,0.0,0.0,0.0,0.0,0.0,0.0,0.0,0.0,0.0,0.0,0.0,0.0,0.0,0.0,0.0,-6.6516,-6.4994,-6.4306,-6.3677,-6.3258,-6.3079,-6.3079,-6.3478,-6.432,-6.3478,-6.3279,-6.3645,-6.298,-6.2927,-6.3114,-6.1392,-6.1,-6.14,-6.0916,-6.1253,-6.2181,-6.2839,-6.3079,-6.3079,0.0,0.0,0.0,0.0,0.0,0.0,0.0,0.0,-4.1797,-4.1914,-4.2065,-4.2747,0.0,0.0,0.0,0.0,0.0,0.0,-4.5563,-4.5762,-4.6513,-4.7983,-4.8668,-5.0177,-5.2644,-5.4457,-5.7226,-6.0983,-6.1127,-6.0114,-5.7975,-5.8048,-5.8355,-5.8867,-5.9459,-5.9241,-5.8356,-5.8077,-5.7653,-5.7023,-5.6483,-5.6567,-5.7,0.0,0.0,0.0,0.0,0.0,0.0,0.0,0.0,0.0,-5.584,-5.57,-5.5435,-5.4698,-5.4092,-5.3524,-5.2868,-5.3913,0.0,-5.8692,-6.2522,-6.7352,-7.4204,0.0,0.0,0.0,0.0,-7.9261,0.0,0.0,0.0,0.0,0.0,0.0,0.0,0.0,0.0,0.0,0.0,0.0,0.0,0.0,0.0,0.0,0.0,0.0,0.0,0.0,0.0,0.0,-6.5132,-6.4066,-6.3647,-6.3258,-6.3079,-6.3079,-6.3079,-6.2929,-6.269,-6.269,-6.269,-6.2714,-6.2421,-6.2716,-6.3218,-6.179,-6.0984,-6.0691,-6.0471,-6.0735,-6.1403,-6.2361,-6.2839,-6.3079,0.0,0.0,-4.0269,-4.0735,0.0,0.0,0.0,0.0,-4.1015,-4.1289,-4.1805,-4.2549,0.0,0.0,0.0,0.0,0.0,0.0,0.0,-4.5542,-4.6271,-4.748,-4.812,-5.0258,-5.4122,-5.5643,-5.5143,-5.2702,-5.4064,-5.4723,-5.4743,-5.7196,-5.9244,-6.0859,-6.2507,-6.2684,-6.1674,-6.0019,-5.849,-5.7202,-5.7118,-5.6858,-5.6587,-5.7328,0.0,0.0,0.0,0.0,0.0,0.0,0.0,0.0,-5.5789,-5.5198,-5.4597,-5.4522,-5.2492,-5.0525,-5.1934,-5.2482,-5.3867,-5.915,-6.4176,0.0,-7.757,-8.1968,-8.464,-8.5418,0.0,0.0,0.0,0.0,0.0,0.0,0.0,0.0,0.0,0.0,0.0,0.0,0.0,0.0,0.0,0.0,0.0,0.0,0.0,0.0,0.0,0.0,0.0,-6.4034,-6.3378,-6.3079,-6.3079,-6.3079,-6.3079,0.0,-6.3019,-6.266,-6.2091,-6.2091,-6.2002,-6.1815,-6.2441,-6.2998,-6.3472,-6.2782,-6.1198,-5.9296,-6.0369,-6.053,-6.0336,-6.1433,-6.2361,-6.2989,0.0,0.0,-3.9814,-4.0652,0.0,0.0,0.0,0.0,0.0,-4.2048,-4.2763,0.0,0.0,0.0,0.0,0.0,0.0,0.0,0.0,-4.4935,-4.5556,-4.7072,-4.9738,-5.1418,-5.1988,-5.1658,-5.0642,-4.8875,-5.1567,-5.2894,-5.2991,-5.4968,-5.712,-5.9386,-6.025,-6.011,-5.9204,-5.8121,-5.7499,-5.7124,-5.6628,-5.6787,-5.7283,-5.686,-5.666,0.0,0.0,0.0,0.0,0.0,0.0,0.0,-5.5768,-5.5553,-5.5314,-5.4673,-5.4084,-5.3747,-5.4526,-5.5284,0.0,0.0,-7.0046,-7.6487,-8.0006,-8.19,-8.3084,0.0,0.0,0.0,0.0,0.0,0.0,0.0,0.0,0.0,0.0,0.0,0.0,0.0,0.0,0.0,0.0,0.0,0.0,0.0,0.0,0.0,0.0,0.0,0.0,-6.3374,-6.3139,-6.3079,-6.3079,-6.3079,-6.3079,0.0,-6.254,-6.2241,-6.2091,-6.2091,-6.1224,-5.9837,-6.0928,-6.1466,-6.1423,-6.0806,-6.1051,-6.166,-5.9972,-5.988,-6.0665,-6.0615,-6.1283,-6.2157,0.0,0.0,0.0,0.0,0.0,0.0,0.0,0.0,0.0,0.0,0.0,0.0,0.0,0.0,0.0,0.0,-4.5186,-4.4674,-4.4223,-4.3922,-4.4691,-4.6787,-4.9587,-5.085,-5.0396,-4.9937,-4.8951,-4.7378,-4.9031,-5.051,-5.1852,-5.4818,-5.7563,-6.0088,-6.1143,-6.0898,-5.9603,-5.8363,-5.7405,-5.6731,-5.6855,-5.6998,-5.7132,-5.7132,-5.6909,-5.6601,-5.6601,0.0,0.0,0.0,0.0,0.0,0.0,0.0,-5.5299,-5.4698,-5.3868,-5.336,-5.4224,0.0,0.0,-6.6995,0.0,-7.8044,-8.0276,-8.1325,-8.2069,0.0,0.0,0.0,0.0,0.0,0.0,0.0,0.0,0.0,0.0,0.0,0.0,0.0,0.0,0.0,0.0,0.0,0.0,0.0,0.0,0.0,0.0,-6.6764,-6.5219,-6.3194,-6.3079,-6.3079,-6.3079,-6.278,-6.26,-6.26,-6.1942,-6.1283,-6.0655,-6.0655,-6.0054,-5.91,-5.9448,-5.9944,-6.0408,-6.0275,-6.0476,-6.0777,-6.0344,-6.0074,-5.9981,-6.0302,-6.0754,-6.1111,0.0,0.0,0.0,0.0,0.0,0.0,0.0,0.0,0.0,0.0,0.0,0.0,0.0,0.0,-4.5686,0.0,0.0,0.0,-4.3235,0.0,0.0,-4.6468,-4.859,-4.9563,-4.9217,-4.9084,-4.8392,-4.7157,-4.7261,-4.9044,-5.2487,-5.5715,-5.8802,-6.1596,-6.2556,-6.2095,-6.045,-5.8832,-5.7288,-5.6057,-5.7115,-5.7137,-5.6639,-5.7381,-5.7186,-5.6561,-5.6561,-5.6585,-5.6575,-5.6281,0.0,0.0,0.0,0.0,-5.5015,-5.4701,-5.3344,-5.2133,-5.3278,0.0,-6.1067,-6.9829,-7.4289,0.0,-7.916,-8.0107,0.0,0.0,0.0,0.0,0.0,0.0,0.0,0.0,0.0,0.0,0.0,0.0,0.0,0.0,0.0,0.0,0.0,0.0,0.0,0.0,0.0,0.0,-6.7106,-6.5647,-6.4328,-6.3014,-6.281,-6.272,-6.272,-6.2181,-6.1942,-6.1912,-6.1134,-5.9997,-5.859,-5.859,-5.8594,-5.8554,-5.79,-5.8338,-5.943,-5.9837,-5.9587,-5.9126,-6.0587,-6.034,-5.9327,-6.0245,-6.0407,-6.0385,0.0,0.0,0.0,0.0,0.0,0.0,0.0,0.0,0.0,0.0,-4.5543,-4.6093,0.0,-4.5733,-4.5454,-4.5389,-4.4172,-4.3332,-4.3238,0.0,0.0,-4.5798,-4.7308,-4.8235,-4.8515,-4.7795,-4.7554,-4.7882,-4.7748,-5.1187,-5.7763,-5.6939,-5.8708,-6.2531,-6.11,-5.9865,-5.8745,-5.7284,-5.6043,-5.5171,-5.6309,-5.6637,-5.6441,-5.6558,-5.6519,-5.6441,-5.6441,-5.6865,-5.731,-5.6466,-5.6589,0.0,0.0,0.0,-5.5107,-5.5053,-5.389,-5.298,-5.4467,0.0,-6.481,0.0,-7.2732,-7.5337,0.0,0.0,0.0,0.0,0.0,0.0,0.0,0.0,0.0,0.0,0.0,0.0,0.0,0.0,0.0,0.0,0.0,0.0,0.0,0.0,0.0,0.0,0.0,0.0,-6.63,-6.4925,-6.3623,-6.2325,-6.1672,-6.1373,-6.1373,-6.1283,-6.1253,-6.1224,-5.9967,-5.8381,-5.6555,-5.6555,-5.6569,-5.6564,-5.6504,-5.6755,-5.737,-5.7465,-5.834,-5.9676,-5.9345,-5.974,-6.0297,-5.9487,-5.9888,-6.0635,0.0,0.0,0.0,0.0,0.0,0.0,0.0,0.0,0.0,0.0,0.0,-4.6198,-4.6198,-4.5724,-4.5186,-4.4594,-4.3409,-4.233,-4.1541,-4.1929,-4.2894,-4.4453,-4.4959,-4.5749,-4.6927,-4.6135,-4.5977,-4.6551,-4.7408,-5.1587,-5.8882,-5.9519,-6.234,-6.679,-6.4569,-6.2818,-6.1264,-5.8343,-5.6608,-5.5769,-5.6289,-5.6727,-5.7004,-5.6488,-5.6589,-5.697,-5.697,-5.7157,-5.7391,-5.7469,-5.7318,-5.7023,-5.6554,0.0,0.0,0.0,-5.4617,-5.4576,-5.6971,-5.9453,-6.2719,0.0,-7.0567,-7.2042,-7.4034,0.0,0.0,0.0,0.0,0.0,0.0,0.0,0.0,0.0,0.0,0.0,0.0,0.0,0.0,0.0,0.0,0.0,0.0,0.0,0.0,0.0,0.0,-6.6159,-6.5564,-6.353,-6.2133,-6.1553,-6.0894,-6.0715,-6.1104,-5.9997,-5.9249,-5.886,-5.7902,-5.6825,-5.5628,-5.5628,-5.5628,-5.5628,-5.5628,-5.5722,-5.5986,-5.6704,-5.7527,-5.8216,-5.8669,-5.8709,-5.8719,-5.9223,-5.9166,-5.8893,0.0,0.0,0.0,0.0,0.0,0.0,0.0,0.0,0.0,0.0,0.0,-4.602,-4.5917,0.0,0.0,0.0,-4.2664,-4.1427,-4.0204,-4.0625,-4.1515,-4.2875,-4.3031,-4.3704,-4.4969,-4.4757,-4.5038,-4.5866,-4.7295,-5.2241,-6.0434,-6.2238,-6.6345,-7.2093,-6.8882,-6.6078,-6.3629,-6.0387,-5.8616,-5.791,-5.7235,-5.7315,-5.7779,-5.7298,-5.7327,-5.7716,-5.791,-5.7906,-5.7882,-5.8347,-5.797,-5.728,-5.7049,-5.6395,0.0,0.0,0.0,-5.5211,0.0,0.0,-5.9736,-6.5198,-6.7133,-6.8272,0.0,0.0,0.0,0.0,0.0,0.0,0.0,0.0,0.0,0.0,0.0,0.0,0.0,0.0,0.0,0.0,0.0,0.0,0.0,0.0,0.0,0.0,0.0,-6.3821,-6.3821,-6.1645,-6.0356,-6.0356,-5.9697,-5.9578,-6.0086,-5.862,-5.7453,-5.6615,-5.6316,-5.5658,-5.47,-5.5029,-5.4999,-5.47,-5.5029,-5.5179,-5.528,-5.6183,-5.6634,-5.6854,-5.7963,-5.8087,-5.784,-5.9278,-5.916,-5.8577,0.0,0.0,0.0,0.0,0.0,0.0,0.0,0.0,0.0,0.0,0.0,-4.5804,-4.5466,-4.4574,-4.3841,-4.3461,-4.1912,-4.0733,-4.0104,-4.0625,-4.0967,-4.1047,-4.2103,0.0,-4.2844,-4.4089,-4.5543,-4.7188,-4.8044,-5.3972,-6.452,-6.4627,-6.9479,-7.7834,-7.256,-6.7849,-6.3826,-6.29,-6.2439,-6.2068,-5.9599,-5.8545,-5.8535,-5.9254,-5.9061,-5.8518,-5.9293,-5.9603,-5.9469,-5.8734,-5.8394,-5.8088,-5.7242,-5.6395,-5.5703,0.0,0.0,0.0,0.0,-5.6023,0.0,-5.9047,-6.1807,0.0,0.0,0.0,0.0,0.0,0.0,0.0,0.0,0.0,0.0,0.0,0.0,0.0,0.0,0.0,0.0,0.0,0.0,0.0,0.0,0.0,0.0,0.0,0.0,-6.0384,-6.0384,-5.9045,-5.8291,-5.8291,-5.7603,-5.7274,-5.7304,-5.7184,-5.6526,-5.5299,-5.5897,-5.5149,-5.3324,-5.461,-5.4491,-5.3354,-5.464,-5.5179,-5.5179,-5.528,-5.564,-5.6353,-5.6884,-5.8122,-5.9621,-5.9745,-6.0412,-6.148,0.0,0.0,0.0,0.0,0.0,0.0,0.0,0.0,0.0,0.0,0.0,0.0,0.0,-4.4145,-4.3341,-4.2736,-4.1605,-4.0827,-4.0625,-4.115,-4.1473,-4.1473,-4.1895,-4.2103,-4.2103,-4.3054,-4.4307,-4.5886,-4.7204,-5.199,-5.9941,-6.1601,-6.4938,-6.9578,-6.9944,-6.8894,-6.6659,-6.2697,-6.0642,-5.9958,-5.8364,-5.8335,-5.9103,-5.768,-5.7968,-5.9125,-5.8893,-5.9125,-5.9626,-5.9896,-5.9254,-5.8242,-5.7934,-5.6857,-5.5703,-5.5703,-5.4939,-5.4156,-5.4531,0.0,0.0,-5.7725,-5.9826,0.0,0.0,0.0,0.0,0.0,0.0,0.0,0.0,0.0,0.0,0.0,0.0,0.0,0.0,0.0,0.0,0.0,0.0,0.0,0.0,0.0,0.0,0.0,0.0,0.0,-5.9477,-5.8152,-5.7453,-5.7453,-5.6436,-5.5448,-5.4581,-5.5448,-5.5209,-5.3892,-5.4132,-5.3653,-5.2576,-5.3503,-5.3414,-5.2606,-5.3503,-5.4162,-5.4581,-5.5029,-5.5329,-5.561,-5.6634,-5.7401,-5.8185,-5.9734,-6.0379,-6.0599,0.0,0.0,0.0,0.0,0.0,-4.1759,-4.2787,-4.2585,-4.2611,-4.3542,0.0,0.0,0.0,0.0,-4.3015,-4.2214,-4.1576,-4.1311,-4.159,-4.1736,-4.1831,-4.1939,-4.207,-4.2114,-4.1894,-4.3279,-4.4598,-4.5908,-4.7503,-5.1502,-5.7658,-5.9424,-6.2124,-6.5581,-6.7111,-6.7928,-6.7948,-6.4443,-6.2249,-6.107,-5.9491,-5.9843,-6.1252,-6.0311,-6.1204,-6.2834,-6.2119,-6.1684,-6.1301,-6.0725,-5.9229,-5.768,-5.7835,-5.6857,-5.5605,-5.5209,-5.4798,-5.4463,-5.4242,-5.4129,0.0,0.0,0.0,0.0,0.0,0.0,0.0,0.0,0.0,0.0,0.0,0.0,0.0,0.0,0.0,0.0,0.0,0.0,0.0,0.0,0.0,0.0,0.0,0.0,0.0,0.0,0.0,0.0,-5.7089,-5.6466,-5.6017,-5.5777,-5.497,-5.4102,-5.3204,-5.4072,-5.3952,-5.2845,-5.3084,-5.2725,-5.1887,-5.2785,-5.2695,-5.1917,-5.2785,-5.3443,-5.3922,-5.4581,-5.512,-5.5614,-5.6642,-5.7527,-5.8419,-6.037,-6.1066,-6.1241,0.0,0.0,-4.1654,-4.1798,-4.133,-4.1163,-4.1812,-4.2032,-4.2529,-4.3831,0.0,0.0,0.0,0.0,0.0,-4.1931,-4.1881,-4.2243,-4.303,-4.2314,-4.2062,-4.2276,-4.2748,-4.2713,-4.2168,-4.4804,-4.6654,-4.7494,-4.9111,-5.2816,-5.8367,-5.8526,-6.1617,-6.6941,-6.4561,-6.4888,-6.7229,-6.8103,-6.7599,-6.5971,-6.3136,-6.3128,-6.5013,-6.7321,-6.8821,-6.9613,-6.903,-6.7337,0.0,-6.1362,0.0,0.0,-5.6883,-5.6395,-5.5445,-5.4218,-5.4145,-5.4387,0.0,0.0,0.0,0.0,0.0,0.0,0.0,0.0,0.0,0.0,0.0,0.0,0.0,0.0,0.0,0.0,0.0,0.0,0.0,0.0,0.0,0.0,0.0,0.0,0.0,0.0,0.0,0.0,0.0,-5.3862,-5.3204,-5.3832,-5.3892,-5.3204,-5.3204,-5.3204,-5.3144,-5.3144,-5.2815,-5.2187,-5.2815,-5.2456,-5.1259,-5.2546,-5.2426,-5.1289,-5.2576,-5.3114,-5.3271,-5.3922,-5.4916,-5.603,-5.6807,-5.851,-6.0754,-6.1581,-6.2584,-6.3724,0.0,-4.1787,-4.2351,-4.2517,-4.2184,-4.2157,-4.2949,-4.3251,-4.3615,0.0,0.0,0.0,-4.5397,-4.5442,-4.4931,-4.3642,-4.4443,-4.491,-4.4551,-4.4657,-4.4621,-4.4306,-4.4432,-4.4221,-4.3613,-4.5179,-4.6507,-4.7586,-4.9471,-5.1912,-5.484,-5.611,-5.8186,-6.0961,-6.1465,-6.184,-6.2094,-6.2809,-6.4231,-6.5643,-6.1751,-6.3474,-6.7898,-6.4282,-6.5743,0.0,0.0,-6.7676,-6.7534,0.0,-6.3207,-6.0341,-5.7781,-5.6395,-5.5583,-5.4944,-5.46,-5.4274,-5.3232,0.0,0.0,0.0,0.0,0.0,0.0,-5.2365,0.0,0.0,0.0,0.0,0.0,0.0,0.0,0.0,0.0,0.0,0.0,0.0,0.0,0.0,0.0,0.0,0.0,0.0,0.0,0.0,-5.3098,-5.2875,-5.3174,-5.3832,-5.3892,-5.3204,-5.3653,-5.3473,-5.2486,-5.2486,-5.2127,-5.1498,-5.1678,-5.1558,-5.1229,-5.1588,-5.1558,-5.1229,-5.1588,-5.2178,-5.3101,-5.3893,-5.4916,-5.6124,-5.7709,-5.9258,-6.0754,-6.185,-6.2448,-6.2866,-4.1316,-4.1913,-4.2463,-4.3008,-4.3065,-4.3412,-4.4271,-4.4707,-4.5031,0.0,0.0,0.0,-4.6361,-4.7158,-4.7062,-4.5534,-4.5856,-4.6088,-4.5942,-4.5919,-4.5807,-4.559,-4.6045,-4.6033,-4.5451,-4.7236,-4.8589,-4.9463,-5.0903,-5.2436,-5.4056,-5.4957,-5.6188,-5.7596,-5.8901,-5.9463,-5.9503,-6.0279,-6.1655,-6.329,-6.2829,-6.5474,-6.9552,-6.8205,-7.0283,0.0,0.0,0.0,-7.1712,-6.8951,-6.5389,0.0,-5.6796,-5.553,-5.545,-5.436,-5.4118,-5.3971,-5.2745,-5.259,-5.2562,-5.1741,0.0,0.0,-4.9128,-4.9758,0.0,0.0,0.0,0.0,0.0,0.0,0.0,0.0,0.0,0.0,0.0,0.0,0.0,0.0,0.0,0.0,0.0,0.0,0.0,-5.1498,-5.1708,-5.2067,-5.2725,-5.2625,-5.2229,-5.1817,-5.167,-5.1193,-5.0411,-5.0769,-5.0766,-5.0383,-5.0917,-5.1229,-5.1229,-5.1229,-5.1479,-5.188,-5.188,-5.2575,-5.3695,-5.4421,-5.5468,-5.6694,-5.842,-5.9788,-6.1079,-6.2411,-6.294,-6.3035,0.0,-4.2157,-4.2375,-4.357,-4.4068,-4.4755,-4.5957,-4.6426,-4.6684,0.0,-4.6903,-4.7169,-4.809,-4.9416,-4.9637,-4.809,-4.7168,-4.6948,-4.7537,-4.6912,-4.6653,-4.688,-4.7826,-4.8197,-4.7776,-5.0215,-5.17,-5.2221,-5.2901,-5.3786,-5.4897,-5.4837,-5.5317,-5.623,-5.6942,-5.772,-5.8526,-5.9449,-5.9813,-6.0149,-6.5018,-6.8282,0.0,0.0,-7.8092,-7.9638,-7.8352,-7.7531,-7.6236,-7.1086,-6.6141,0.0,0.0,-5.4797,-5.5442,-5.3383,-5.3275,-5.3602,-5.2545,-5.2246,-5.2251,-5.2323,-5.1315,0.0,-4.9148,-4.8361,-4.777,0.0,0.0,0.0,0.0,0.0,0.0,0.0,0.0,0.0,0.0,0.0,0.0,0.0,0.0,0.0,0.0,-4.9194,-4.9194,-4.9254,-5.0421,-5.1285,-5.1846,-5.0767,-4.9997,-4.9896,-4.8694,-4.8094,-4.8094,-4.8894,-4.9248,-4.9248,-5.0632,-5.1323,-5.1386,-5.1386,-5.1972,-5.3077,-5.3077,-5.3742,-5.4787,-5.5429,-5.6334,-5.7522,-5.8938,-6.0218,-6.1443,-6.2965,-6.3494,-6.3543,-4.2308,-4.2412,-4.3139,-4.5113,-4.5407,-4.6176,-4.8489,-4.8605,-4.8824,-4.9858,-5.1343,-5.3045,-5.4919,-5.4806,-5.4209,-5.3225,-5.2296,-5.1457,-5.0633,-5.0412,-5.0339,-5.0416,-5.0636,-5.0904,-5.1291,-5.2064,-5.2664,-5.2974,-5.4029,-5.4665,-5.4897,-5.5433,-5.5874,-5.6191,-5.6347,-5.6602,-5.6946,-5.8364,-5.923,-6.0071,-6.4401,-6.9167,-7.3745,-7.413,-7.6553,-7.9669,-7.8723,-7.8394,-7.7683,-7.2119,-6.8111,-6.4752,0.0,0.0,0.0,-5.4951,-5.4192,-5.3769,-5.3157,-5.3039,-5.2944,0.0,0.0,0.0,-4.9192,-4.8991,-4.8751,0.0,0.0,0.0,0.0,0.0,0.0,0.0,0.0,0.0,0.0,0.0,0.0,0.0,0.0,0.0,0.0,-4.8775,-4.8686,-4.9224,-5.0002,-5.0223,-4.9824,-5.0443,-5.0246,-4.9147,-4.9301,-4.9334,-4.9334,-4.9643,-4.981,-4.981,-5.0744,-5.1635,-5.2575,-5.2575,-5.3165,-5.4253,-5.4253,-5.4888,-5.5889,-5.602,-5.6606,-5.7522,-5.8938,-6.0218,-6.14,-6.231,-6.2605,-6.2719,-4.2559,-4.2592,-4.35,-4.5993,-4.6505,-4.7534,-5.0373,-5.0637,-5.1009,-5.2454,-5.5355,-5.7065,-5.6506,-5.7186,-5.6814,-5.4698,-5.3754,-5.2831,-5.178,-5.1673,-5.1732,-5.1835,-5.2419,-5.2921,-5.3282,-5.4173,-5.4652,-5.4812,-5.5351,-5.566,-5.5654,-5.5913,-5.5656,-5.4957,-5.5802,-5.6191,-5.6258,-5.7923,-5.9232,-6.0748,-6.6178,0.0,-7.3745,-7.6322,-7.8592,-8.04,-7.9939,-7.968,-7.8561,-7.2246,-6.9482,0.0,0.0,-5.8747,-5.7769,0.0,-5.5122,-5.4001,0.0,0.0,0.0,-5.1745,0.0,0.0,0.0,-4.7727,-4.7537,0.0,0.0,0.0,0.0,0.0,0.0,0.0,0.0,0.0,0.0,0.0,0.0,0.0,0.0,0.0,0.0,-4.7788,-4.8057,-4.8716,-4.8768,-4.8734,-4.8672,-4.8817,-4.8489,-4.7839,-4.7655,-4.7661,-4.7661,-4.8507,-4.8939,-4.8939,-5.0485,-5.1819,-5.29,-5.29,-5.3828,-5.5377,-5.5377,-5.6047,-5.7039,-5.7039,-5.7272,-5.7773,-5.9243,-6.0158,-6.0858,-6.1975,-6.203,-6.1614,-4.3069,-4.2959,-4.3835,-4.6648,-4.7426,-4.8678,-5.163,-5.1966,-5.2715,-5.5032,-5.8532,-6.0145,-5.8242,-5.9087,-5.9049,-5.7177,-5.4966,-5.3769,-5.4123,-5.3259,-5.2653,-5.2656,-5.4087,-5.4723,-5.4466,-5.5896,-5.667,-5.6684,-5.6518,-5.6441,-5.6386,-5.6251,-5.5463,-5.4139,-5.5197,-5.5838,-5.6233,-5.7456,-5.9186,-6.1589,0.0,-7.0755,-7.1507,-7.7623,-7.9928,-8.0075,-8.083,-8.075,-7.9286,-7.2874,-7.0995,-7.0004,-6.1734,-5.9391,0.0,0.0,0.0,0.0,0.0,0.0,0.0,0.0,0.0,-4.9337,0.0,0.0,0.0,0.0,0.0,0.0,0.0,0.0,0.0,0.0,0.0,0.0,0.0,0.0,0.0,0.0,0.0,0.0,0.0,-4.698,-4.7491,-4.7941,-4.7386,-4.7119,-4.7376,-4.6865,-4.6435,-4.6342,-4.5832,-4.5648,-4.5648,-4.732,-4.8066,-4.8066,-5.0252,-5.1972,-5.344,-5.3315,-5.4537,-5.6746,-5.6614,-5.7039,-5.7881,-5.7881,-5.7881,-5.8051,-5.9505,-6.0114,-6.0283,-6.1806,-6.1676,-6.0685,-4.3875,-4.3844,-4.4743,-4.7567,-4.8181,-4.9258,-5.2039,-5.185,-5.3069,-5.7777,-6.0103,-6.2536,-6.5715,-6.2954,-6.2277,-6.5878,-5.918,-5.6781,-6.1595,-5.7654,-5.4779,-5.4022,-5.6317,-5.6822,-5.5028,-5.6692,-5.7629,-5.7734,-5.6953,-5.6515,-5.6386,-5.6251,-5.6075,-5.5841,-5.4388,-5.4948,-5.6991,-5.6466,-5.8414,0.0,-6.7705,-6.8311,0.0,-7.3292,-7.5847,-7.6407,-7.9883,-8.1061,-8.0246,0.0,-7.3468,-7.1826,0.0,-6.2438,-6.086,-5.8549,0.0,0.0,0.0,0.0,0.0,0.0,-5.3676,0.0,0.0,0.0,0.0,0.0,0.0,0.0,0.0,0.0,0.0,0.0,0.0,0.0,0.0,0.0,0.0,0.0,0.0,0.0,0.0,0.0,-4.711,-4.6679,-4.6518,-4.5966,-4.4724,-4.5473,-4.5623,-4.4825,-4.5766,-4.6225,-4.6225,-4.7825,-4.8728,-4.8728,-5.0359,-5.2642,-5.5346,-5.4708,-5.6009,-5.868,-5.8005,-5.7808,-5.7881,-5.7881,-5.7881,-5.8051,-5.9505,-6.0114,-6.0283,-6.1806,-6.1676,-6.0619,-4.4373,-4.4346,-4.5245,-4.8112,-4.8424,-4.9419,-5.2734,-5.6349,-5.9244,-6.0915,-6.4603,-6.7757,-6.9459,-6.7665,-6.6931,-6.8343,-6.3776,-6.1184,0.0,-5.9115,-5.7235,-5.6923,-5.7985,-5.8219,-5.7489,-5.8194,-5.8589,-5.8633,-5.8281,-5.7811,-5.7254,-5.7122,-5.623,-5.4674,-5.4322,-5.4967,-5.6329,0.0,-5.8389,0.0,0.0,0.0,0.0,-7.3876,-7.7608,-7.8292,-7.9812,-8.0362,-7.9505,0.0,-7.2645,0.0,0.0,0.0,0.0,0.0,0.0,0.0,0.0,0.0,0.0,0.0,0.0,0.0,-4.9773,0.0,-4.7729,0.0,0.0,0.0,0.0,0.0,0.0,0.0,0.0,0.0,0.0,0.0,0.0,0.0,0.0,0.0,0.0,0.0,0.0,0.0,0.0,-4.5066,-4.4726,-4.4382,-4.4367,-4.4593,-4.5397,-4.6425,-4.7534,-4.8784,-4.9765,-5.0643,-5.1846,-5.3714,-5.6253,-5.5517,-5.6628,-5.8964,-5.822,-5.7881,-5.7881,-5.7881,-5.7881,-5.7983,-5.9066,-5.9471,-5.9674,-6.1197,-6.0603,-5.8972,-4.5223,-4.4903,-4.5445,-4.8043,-4.8162,-4.9181,-5.3047,-5.8127,-6.1898,-6.2748,-6.6723,-7.0235,-7.2168,-7.1342,-7.1068,-7.2205,-6.8609,-6.5714,0.0,0.0,-5.9417,-5.8328,-5.9152,-5.9283,-5.8515,-5.918,-5.9531,-5.9531,-5.9297,-5.8867,-5.8242,-5.7863,-5.6627,-5.4645,-5.5176,-5.5882,-5.6819,0.0,-5.9858,-6.2358,-6.4282,-6.5558,-6.7089,-7.4258,-7.7989,-7.94,-7.9434,-7.9438,-7.8653,-7.361,-7.2616,0.0,-6.8,0.0,0.0,0.0,0.0,0.0,-5.7532,0.0,0.0,0.0,0.0,0.0,0.0,0.0,0.0,0.0,0.0,0.0,0.0,0.0,-4.7204,-4.8115,0.0,0.0,0.0,0.0,0.0,0.0,0.0,0.0,0.0,0.0,0.0,0.0,0.0,0.0,-4.433,-4.3831,-4.3914,-4.4593,-4.5766,-4.7004,-4.8532,-4.9693,-5.0904,-5.2012,-5.2852,-5.4232,-5.6232,-5.5793,-5.6645,-5.8556,-5.8073,-5.7881,-5.7881,-5.7881,-5.7881,-5.7949,-5.8727,-5.9032,-5.9167,-6.0486,-5.9776,-5.8259,-4.6589,-4.5605,-4.5193,-4.722,-4.7327,-4.8517,-5.2619,-5.4456,-5.7289,-6.2579,-6.4325,-6.767,0.0,0.0,0.0,0.0,0.0,-6.9922,-7.1562,0.0,-6.1015,-5.6836,-5.9843,-6.0078,-5.6758,-5.9101,-6.0351,-6.0351,-5.957,-5.918,-5.914,-5.8176,-5.7556,-5.7281,-5.7179,-5.795,-5.9473,-6.1204,-6.3397,-6.5974,-6.8475,-7.1597,-7.4523,0.0,-7.4444,-7.776,-7.8321,0.0,0.0,-7.5876,-7.4675,0.0,0.0,0.0,0.0,0.0,0.0,0.0,0.0,0.0,0.0,-5.5289,0.0,0.0,0.0,0.0,-4.9044,0.0,0.0,0.0,0.0,-4.6997,-4.7045,-4.8137,-4.8426,0.0,0.0,0.0,0.0,0.0,0.0,0.0,0.0,0.0,0.0,0.0,0.0,0.0,-4.2536,-4.3914,-4.4727,-4.4593,-4.7004,-4.8416,-4.8532,-5.0813,-5.1908,-5.2012,-5.2852,-5.3884,-5.5098,-5.5447,-5.6233,-5.7483,-5.7816,-5.7881,-5.7881,-5.7881,-5.7881,-5.7949,-5.8727,-5.9032,-5.9099,-5.9877,-5.9822,-5.9249,-4.6837,-4.7193,-4.7653,-4.8257,-4.8525,-5.044,-5.5758,-5.9826,-6.4526,0.0,-7.3256,0.0,0.0,-8.317,-8.3044,0.0,0.0,-7.7226,-7.5547,-7.1367,0.0,0.0,0.0,-6.4605,0.0,-6.2457,-6.2422,-6.125,-6.0976,-6.0547,-5.9961,-5.8961,-5.8175,-5.7556,-5.6853,-5.7444,0.0,0.0,0.0,0.0,0.0,-7.1544,-7.4861,0.0,0.0,-7.6768,-7.6824,-7.6476,0.0,-7.4694,-7.3836,-7.2964,-7.1799,-6.9755,-6.7555,-6.6406,-6.4603,0.0,0.0,0.0,-6.3214,-5.9127,0.0,0.0,0.0,0.0,0.0,0.0,0.0,0.0,0.0,-4.776,-4.8448,-4.9541,-4.9896,-5.022,0.0,0.0,0.0,0.0,0.0,0.0,0.0,0.0,0.0,0.0,-4.6888,0.0,0.0,-4.5149,-4.5624,-4.6785,-4.8028,-4.9584,-5.1509,-5.2309,-5.3198,-5.4082,-5.441,-5.491,-5.569,-5.6024,-5.6686,-5.7404,-5.7741,-5.7881,-5.7881,-5.7881,-5.7881,-5.7876,-5.7797,-5.783,-5.8075,-6.0155,-6.0336,-5.9398,-4.8202,-4.8969,-4.9488,-4.9296,-5.0696,-5.3443,-5.8027,-6.3384,0.0,0.0,-7.8082,0.0,-8.882,0.0,-8.8515,0.0,-8.6523,-8.2812,-7.7539,-7.5664,0.0,-6.9035,-6.8971,0.0,0.0,-6.5212,-6.4287,-6.1633,-6.2616,-6.2304,-6.0774,-5.9878,-5.8925,-5.8062,-5.8382,-5.8734,-5.9293,-6.1585,-6.3507,0.0,0.0,-7.137,0.0,0.0,-7.5471,-7.6097,0.0,-7.4938,-7.4678,-7.4287,-7.3858,-7.3381,-7.2673,-7.0873,-6.8836,-6.7936,-6.603,-6.4261,-6.4473,-6.4685,0.0,-6.1264,-5.93,0.0,-5.3503,0.0,0.0,0.0,0.0,0.0,0.0,0.0,-4.9577,-5.0735,-5.1086,-5.1229,0.0,-4.8859,0.0,0.0,0.0,0.0,0.0,0.0,0.0,-4.9161,-4.8256,0.0,0.0,0.0,-4.6668,-4.7543,-4.9119,-5.0812,-5.2617,-5.3402,-5.4304,-5.5179,-5.497,-5.4926,-5.5033,-5.5399,-5.5675,-5.5845,-5.6857,-5.7297,-5.7297,-5.7701,-5.7628,-5.7323,-5.7483,-5.7364,-5.7216,-5.897,-5.9268,-5.8893,-5.0548,-5.0856,-5.0929,-5.0641,-5.3824,0.0,0.0,0.0,-7.0425,0.0,-7.8843,-8.3549,-8.9516,-9.0305,-9.0664,-9.1445,-9.0703,-8.6679,-7.8398,-7.9258,0.0,0.0,-7.0284,-6.9393,-6.592,0.0,0.0,0.0,-6.4215,-6.4094,-6.1465,-6.0733,-5.9804,-5.8906,-6.1456,-6.1612,-6.0289,-6.5246,-6.737,-6.7592,-6.9695,-7.1406,-7.2617,-7.2046,-7.3533,-7.5678,-7.4053,-7.3899,-7.4514,-7.4553,-7.474,-7.4711,-7.3371,-7.1494,-6.9543,-6.8247,-6.65,-6.4897,-6.4261,-6.3889,-6.3362,-6.1907,0.0,0.0,0.0,0.0,-5.2755,0.0,0.0,0.0,0.0,0.0,-5.029,-5.1688,-5.1862,-5.1745,-5.1371,-4.9812,0.0,0.0,0.0,0.0,0.0,0.0,-5.3637,-4.9073,-5.0426,-4.9791,0.0,0.0,-4.7815,-4.7225,-5.036,-5.2116,-5.2174,-5.4213,-5.5179,-5.5179,-5.4521,-5.3832,-5.3241,-5.3714,-5.3551,-5.2989,-5.5215,-5.6126,-5.6204,-5.7297,-5.7114,-5.6257,-5.7624,-5.7502,-5.6622,-5.6591,-5.7125,-5.8061,-5.0664,-5.3241,-5.5951,0.0,-5.7149,-5.7774,0.0,0.0,0.0,0.0,-8.4746,-8.9516,-9.4879,-9.561,-9.5312,-9.4297,-9.3398,0.0,0.0,0.0,0.0,-7.9616,-7.8699,-7.6313,-7.2125,-7.0686,0.0,-6.4566,-6.3857,-6.2813,-6.1465,-6.0559,-5.9989,-5.9846,-6.0529,-6.0312,-5.9592,-6.2733,-6.546,-6.791,-7.0384,-7.2373,0.0,0.0,-7.342,-7.427,-7.2976,-7.2245,-7.1975,-7.2629,-7.288,-7.2862,-7.2317,-7.1304,-7.0285,-6.9642,-6.8197,-6.6913,-6.7868,-6.7496,-6.6406,-6.4918,-6.2385,-5.9698,0.0,0.0,0.0,0.0,0.0,0.0,0.0,0.0,0.0,-5.1366,-5.191,-5.2162,-5.2081,0.0,0.0,-5.2624,0.0,0.0,0.0,0.0,-5.2763,-5.2242,-5.106,-4.9538,0.0,0.0,0.0,-5.0095,-5.1925,-5.3366,-5.4374,-5.4887,-5.5179,-5.5179,-5.4521,-5.3832,-5.3241,-5.3714,-5.3551,-5.2989,-5.4421,-5.497,-5.5052,-5.5329,-5.5247,-5.5049,-5.555,-5.5658,-5.5761,-5.7548,-5.8364,-5.8735,-5.3356,-5.7165,0.0,-6.2204,0.0,0.0,-6.7639,0.0,0.0,-8.2182,-8.7049,0.0,-9.384,-9.6283,-9.7031,-9.5351,-9.4765,0.0,-8.914,0.0,0.0,-8.3616,-8.2526,-7.9938,-7.5527,-7.2983,0.0,-6.539,0.0,-6.3031,-6.1284,-6.0783,-6.0355,-5.9988,-6.0477,-6.0282,-5.9837,-6.2987,-6.6571,-7.017,-7.0877,0.0,0.0,-7.2012,-7.1912,-7.232,-7.1548,-7.1372,-7.1552,-7.2014,-7.2437,-7.263,-7.1861,-7.1138,-7.0503,-7.0053,-6.844,-6.7055,-6.8257,-6.7565,-6.6339,-6.5831,-6.3723,-6.1239,-5.9241,-5.7558,-5.5698,0.0,0.0,0.0,0.0,0.0,0.0,-5.2356,-5.2941,-5.3126,0.0,0.0,0.0,0.0,0.0,0.0,0.0,0.0,-5.3609,-5.37,-5.2691,-5.1186,0.0,0.0,0.0,-5.078,-5.2636,-5.3982,-5.476,-5.5329,-5.5329,-5.476,-5.4072,-5.3414,-5.2725,-5.2761,-5.249,-5.2245,-5.3309,-5.3985,-5.4356,-5.4783,-5.4889,-5.4694,-5.3918,-5.3833,-5.4377,-5.505,-5.6072,-5.7277,-5.7434,-6.1589,0.0,0.0,0.0,0.0,0.0,-7.6256,0.0,-8.3522,0.0,-9.1015,-9.1015,-9.5,-9.707,-9.5508,0.0,-9.3242,-8.8633,-9.0312,-8.9414,-8.4804,-8.4124,-8.1993,-7.801,-7.4731,-7.065,0.0,-6.5267,-6.3581,-6.0923,-6.1143,-6.0701,-5.9821,-6.0823,-6.0926,0.0,-6.4497,-6.858,-7.2283,-7.1102,-7.1343,-7.2199,-7.0746,-7.033,-7.0554,-7.0456,-7.1114,-7.2014,-7.2014,-7.2514,-7.2957,-7.1642,-7.0839,-7.0324,-6.9705,-6.7903,-6.6235,-6.6946,-6.5873,-6.4776,-6.544,-6.4152,-6.23,-6.0631,-5.8622,-5.6303,-5.3295,-5.2402,-5.1931,0.0,0.0,0.0,-5.3628,0.0,0.0,0.0,0.0,0.0,0.0,0.0,0.0,0.0,0.0,-5.5392,-5.4469,-5.4763,0.0,0.0,0.0,0.0,-5.0607,-5.3134,0.0,-5.4729,0.0,-5.6013,-5.4775,-5.399,-5.317,-5.2442,-5.1686,-5.1353,-5.1349,-5.2367,-5.3158,-5.3896,-5.4907,-5.5082,-5.4604,-5.2935,-5.2729,-5.3069,-5.1618,-5.2337,-5.4559,-6.0742,0.0,0.0,0.0,0.0,-7.635,-8.1664,-8.459,-8.6769,-8.8392,-9.3111,-9.6367,-9.6367,-9.7148,-9.7304,-9.6367,-9.5625,0.0,0.0,0.0,0.0,-9.0039,-8.789,-8.574,-8.3553,-7.6673,-7.1928,0.0,-6.5037,-6.2004,-6.0448,-6.0723,-6.0646,-6.0217,-6.0807,0.0,-6.1289,-6.4072,0.0,-6.8894,-7.0764,-7.2162,-7.3131,-7.2833,-7.195,-7.0957,-7.1864,-7.1695,-7.1129,-7.1129,-7.1245,-7.1266,-7.0533,-6.9966,-6.9416,-6.8884,-6.756,-6.6299,-6.6301,-6.5475,-6.4752,-6.4742,-6.3784,-6.2475,-6.1546,-5.9497,-5.736,-5.5592,-5.3577,-5.2192,-5.1991,0.0,0.0,0.0,0.0,0.0,0.0,0.0,0.0,0.0,0.0,0.0,0.0,0.0,0.0,0.0,0.0,0.0,0.0,0.0,0.0,0.0,-5.4576,0.0,0.0,0.0,-5.8778,-5.7987,-5.6689,-5.5176,-5.356,-5.2883,-5.2368,-5.2037,-5.2197,-5.2653,-5.335,-5.3542,-5.3839,-5.4307,-5.3933,-5.4179,-5.4641,-5.3174,-5.213,-5.145,0.0,0.0,0.0,0.0,0.0,0.0,0.0,-9.0555,0.0,-9.0174,-9.24,-9.4048,-9.375,-9.6007,-9.7094,-9.5937,-9.5859,-9.5117,-9.3359,-9.3242,-9.2695,-9.1367,-8.9169,0.0,-8.4784,-7.7411,-7.2663,-7.0875,-6.5125,-6.193,-6.1204,-6.0935,-6.0704,-6.0573,-6.0976,-6.1928,0.0,0.0,0.0,-6.9903,-7.1515,-7.2698,-7.328,-7.246,-7.164,-7.0918,-7.0904,-7.0407,-6.9873,-7.019,-7.0283,-7.0217,-6.9941,-6.9213,-6.8376,-6.8312,-6.6963,-6.5416,-6.5079,-6.3964,-6.3052,-6.3398,-6.2448,-6.1117,-6.0142,-5.8702,-5.6931,-5.4787,-5.3346,-5.2304,-5.1772,-5.1544,0.0,0.0,0.0,0.0,0.0,0.0,0.0,0.0,0.0,0.0,0.0,0.0,0.0,0.0,0.0,0.0,0.0,0.0,0.0,0.0,0.0,0.0,0.0,0.0,0.0,-5.8236,-5.7181,-5.6057,-5.4837,-5.4057,-5.3539,-5.3161,-5.3742,-5.4268,-5.4687,-5.5688,-5.5748,-5.5043,-5.4699,-5.4327,-5.389,-5.2772,-5.1294,-4.9859,0.0,-7.3181,0.0,0.0,-8.3282,0.0,-8.9443,-9.4239,-9.6166,-9.2013,-9.1936,-9.2077,-9.154,-9.502,-9.6933,-9.5775,-9.6171,-9.5547,-9.3281,-9.3633,-9.3085,-9.1324,-8.9411,-8.7252,-8.4844,-7.8026,-7.3407,0.0,-6.5741,-6.2601,-6.1645,-6.1257,-6.0981,-6.0877,0.0,0.0,0.0,0.0,-6.82,-7.1255,-7.2019,-7.2614,-7.2918,-7.1611,-7.0806,-7.0273,-6.9721,-6.9093,-6.8635,-6.8992,-6.9283,-6.9436,-6.9436,-6.8578,-6.7593,-6.7543,-6.6224,-6.4552,-6.3832,-6.2702,-6.1741,-6.1988,-6.1105,-5.9783,-5.8341,-5.7338,-5.6075,-5.3544,-5.2766,-5.2332,-5.1356,-5.1334,0.0,0.0,0.0,0.0,0.0,0.0,0.0,0.0,0.0,0.0,0.0,0.0,0.0,0.0,0.0,0.0,0.0,0.0,0.0,0.0,0.0,-5.7965,-5.7871,0.0,-6.0712,0.0,-5.7891,-5.6912,-5.6066,-5.5325,-5.4783,-5.4559,-5.5525,-5.6144,-5.6652,-5.8069,-5.7734,-5.6404,-5.5919,-5.505,-5.4083,-5.2858,-5.1572,-5.0222,0.0,0.0,0.0,0.0,0.0,0.0,0.0,-9.4575,-9.7192,-9.6437,-9.659,-9.6664,-9.6398,-9.6992,-9.7338,-9.7229,-9.6785,-9.6054,-9.5039,-9.4297,-9.3041,-9.1109,-8.9337,-8.7448,-8.5463,-7.9291,-7.4498,0.0,0.0,-6.3732,-6.0313,-6.1467,-6.1632,0.0,0.0,0.0,0.0,-6.5567,-6.7696,-6.9986,-7.0992,-7.1636,-7.1907,-7.1675,-7.0391,-6.8754,-6.9664,-6.9036,-6.7649,-6.7418,-6.7859,-6.8513,-6.8513,-6.808,-6.7364,-6.6182,-6.5366,-6.4493,-6.3202,-6.2695,-6.2224,-6.0869,-6.0393,-5.9702,-5.7446,-5.6054,-5.5073,-5.4088,-5.2854,-5.1778,-5.1296,-5.0753,-5.0819,0.0,0.0,0.0,0.0,0.0,0.0,0.0,0.0,0.0,0.0,0.0,0.0,0.0,0.0,0.0,0.0,0.0,0.0,-5.6124,0.0,-6.1108,-6.0575,-6.304,-6.3444,-6.1975,-6.0449,-5.8875,-5.7244,-5.6376,-5.6206,-5.6431,-5.6605,-5.7317,-5.8505,-5.7988,-5.8115,-5.8536,-5.8478,-5.8328,-5.7929,-5.5448,-5.4446,-5.3642,0.0,0.0,0.0,0.0,0.0,0.0,0.0,-9.6473,-9.75,-9.7265,-9.7338,-9.7416,-9.744,-9.7425,-9.7042,-9.6153,-9.6326,-9.5703,-9.3789,-9.3789,-9.3234,-9.1796,-8.9961,-8.811,-8.6144,-8.1039,-7.697,0.0,0.0,-6.7114,-6.506,-6.354,0.0,0.0,0.0,-6.3906,-6.5405,-6.7126,-6.8839,-7.0514,-7.1458,-7.2024,-7.2168,-7.1142,-6.9962,-6.8871,-6.8673,-6.785,-6.6771,-6.6458,-6.6936,-6.7628,-6.7628,-6.7138,-6.6519,-6.6188,-6.501,-6.3597,-6.2761,-6.1594,-6.0464,-5.9799,-5.8885,-5.7835,-5.6469,-5.5414,-5.4495,-5.3544,-5.2522,-5.1594,-5.0755,-5.075,-5.0873,0.0,0.0,0.0,0.0,0.0,0.0,0.0,0.0,0.0,0.0,0.0,0.0,0.0,0.0,0.0,0.0,0.0,0.0,-5.7711,0.0,-6.0987,-6.15,-6.3511,-6.4072,-6.3057,-6.1535,-6.0425,-5.97,-5.8897,-5.8597,-5.8767,-5.851,-5.8888,-5.9732,-6.0381,-6.0449,-6.0091,-6.0503,-6.0205,-5.9469,-5.8245,-5.6988,-5.5523,-8.4252,0.0,-8.6698,0.0,-9.1758,-9.2851,-9.6758,-9.7344,-9.7302,-9.7148,-9.7337,-9.75,-9.7505,-9.7433,-9.6972,-9.5926,-9.6249,-9.5625,-9.3515,-9.3711,-9.3267,-9.1777,-9.0454,0.0,-8.6428,-8.3017,-7.9669,-7.6361,-7.3399,0.0,-6.8359,0.0,0.0,0.0,-6.5283,-6.6519,-6.8004,-6.8916,-7.0097,-7.1403,-7.1722,-7.1666,-7.1353,-7.0342,-6.9306,-6.8225,-6.7387,-6.6705,-6.6085,-6.5397,-6.5859,-6.6705,-6.6436,-6.6128,-6.5897,-6.5987,-6.4904,-6.3499,-6.2612,-6.1255,-5.9961,-5.9112,-5.7823,-5.6558,-5.5577,-5.4764,-5.3984,-5.2908,-5.2267,-5.1636,-5.0697,-5.09,-5.1139,-5.087,0.0,0.0,0.0,0.0,0.0,0.0,0.0,0.0,0.0,0.0,0.0,0.0,0.0,0.0,0.0,0.0,0.0,0.0,0.0,0.0,0.0,-6.2933,-6.3348,-6.2382,-6.0917,-6.0218,-6.0218,-5.9651,-5.9443,-5.9621,-5.9297,-5.9544,-6.0217,-6.1708,-6.1919,-6.1465,-6.2164,-6.1772,-6.0731,-6.0261,-5.9228,-5.7902,-8.6953,-8.8789,-9.0742,-9.3398,-9.457,-9.5469,-9.6367,-9.6523,-9.6523,-9.6523,-9.7187,-9.7516,-9.7065,-9.724,-9.7368,-9.7368,-9.6821,-9.6133,-9.5234,-9.4375,-9.2903,0.0,0.0,-8.9188,-8.6165,-8.5286,-8.2362,-7.7284,0.0,0.0,-6.8398,0.0,-6.806,-6.8851,-6.9195,-7.0187,-7.1565,-7.0614,-7.1093,-7.2362,-7.1364,-7.0094,-6.8908,-6.9491,-6.8301,-6.6281,-6.6035,-6.5897,-6.5628,-6.3897,-6.4474,-6.5743,-6.4897,-6.5205,-6.5808,-6.5261,-6.5099,-6.4676,-6.2885,-6.2364,-6.1693,-5.8791,-5.7457,-5.6505,-5.493,-5.4076,-5.3305,-5.2474,-5.2284,-5.2072,-5.1301,-5.1199,-5.1439,-5.2067,0.0,0.0,0.0,0.0,0.0,0.0,0.0,0.0,-6.0353,0.0,0.0,0.0,0.0,0.0,0.0,0.0,0.0,-5.8591,-6.1234,0.0,-5.9928,-6.1247,-6.1212,-5.9836,-5.8428,-5.7756,-5.7756,-5.7724,-5.8065,-5.8492,-5.8378,-5.884,-5.9783,-6.1011,-6.1946,-6.2646,-6.3345,-6.3162,-6.2286,-6.1032,-6.1047,-6.1435,-8.8906,-9.1054,-9.2929,-9.375,-9.4609,-9.5273,-9.5586,-9.5625,-9.5625,-9.5625,-9.5859,-9.617,-9.6607,-9.7208,-9.7374,0.0,-9.6054,-9.5234,0.0,-9.3515,-9.2546,-9.152,-9.092,-8.946,-8.705,-8.617,-8.4055,-8.0708,0.0,0.0,0.0,-7.1977,-7.151,-7.072,-7.1655,-7.2606,-7.3445,-7.3142,-7.3133,-7.3235,-7.1717,-7.0747,-7.0076,-6.8498,-6.7856,-6.7582,-6.6346,-6.5897,-6.5628,-6.3897,-6.4243,-6.5091,-6.3676,-6.4211,-6.5321,-6.513,-6.4448,-6.3565,-6.2732,-6.1878,-6.0791,-5.8974,-5.793,-5.7,-5.5667,-5.4391,-5.3245,-5.2187,-5.2165,-5.2005,-5.1097,-5.1122,-5.1539,-5.252,-5.3465,0.0,0.0,0.0,0.0,0.0,0.0,0.0,0.0,-6.0684,0.0,0.0,0.0,0.0,0.0,0.0,0.0,0.0,-5.9796,0.0,-6.1289,-6.0677,-5.9941,-5.9032,-5.655,-5.5902,-5.6933,-5.6933,-5.7095,-5.73,-5.7215,-5.7168,-5.7143,-5.8875,-6.0012,-6.0869,-6.237,-6.2784,-6.2502,-6.2009,-6.2307,-6.2848,-9.0351,-9.207,-9.3398,-9.3398,-9.3867,-9.4336,-9.4648,-9.4726,-9.4726,-9.4726,-9.5,-9.539,-9.5937,-9.6758,0.0,-9.6953,-9.5898,-9.4961,-9.4414,-9.3281,-9.239,-9.1932,-9.137,-9.0081,-8.7935,0.0,0.0,-8.3285,-8.0939,-7.8438,-7.5861,-7.5585,-7.5065,-7.4378,-7.5287,-7.5777,-7.5868,-7.5456,-7.4772,-7.3861,-7.2289,-7.1214,-7.031,-6.8334,-6.7705,-6.7705,-6.6013,-6.5397,-6.5205,-6.3782,-6.4013,-6.4632,-6.2883,-6.3242,-6.4339,-6.4339,-6.3664,-6.2762,-6.2064,-6.1424,-6.0585,-5.9098,-5.8147,-5.717,-5.5653,-5.4544,-5.3584,-5.25,-5.2606,-5.2701,-5.1926,-5.2157,-5.2723,-5.3396,-5.4516,-5.5369,-5.5586,0.0,0.0,0.0,0.0,0.0,0.0,-6.068,0.0,0.0,0.0,0.0,0.0,0.0,0.0,-5.8008,-5.7849,0.0,-5.9458,-5.7753,-5.6417,-5.5407,-5.1711,-5.0706,-5.2034,-5.1603,-5.1874,-5.2562,-5.2562,-5.2642,-5.2881,-5.5375,-5.7431,-5.9253,-6.0745,-6.1497,-6.185,-6.1494,-6.1899,-6.2543,-9.1365,-9.2109,0.0,0.0,-9.2656,0.0,-9.3672,-9.3828,-9.3828,-9.3828,-9.4531,-9.5039,-9.5117,-9.582,-9.664,-9.7461,0.0,0.0,0.0,-9.3593,-9.2463,-9.2009,-9.1974,-9.0951,-8.8743,-8.8709,-8.7401,-8.4824,-8.1554,-7.9939,-7.9862,-7.869,-7.8528,-7.9204,-7.9616,-7.9336,-7.8515,-7.7473,-7.6035,-7.4375,-7.3068,-7.1552,-6.9982,-6.8781,-6.7847,-6.6987,-6.5282,-6.4705,-6.4551,-6.3666,-6.3911,-6.4243,-6.2496,-6.2406,-6.2898,-6.2974,-6.28,-6.2299,-6.1039,-6.1045,-6.1012,-5.9177,-5.819,-5.7122,-5.5108,-5.4668,-5.4274,-5.328,-5.3568,-5.388,-5.368,-5.4109,-5.4557,-5.4608,-5.5534,-5.6265,-5.6353,0.0,0.0,0.0,0.0,0.0,0.0,-6.1468,-6.167,0.0,0.0,0.0,0.0,0.0,-5.7348,-5.4911,-5.5492,-5.5634,-5.5001,-5.3041,-5.1047,-4.915,-4.4476,-4.2904,-4.3986,-4.3048,-4.3561,-4.5271,-4.5271,-4.6002,-4.7327,-5.0729,-5.4109,-5.7398,-5.8441,-5.951,-6.0324,-5.9976,-6.0224,-6.0927,0.0,0.0,-9.3594,-9.3594,-9.3047,-9.2656,-9.289,-9.289,-9.289,-9.289,-9.3086,-9.3476,-9.414,-9.4375,-9.4844,-9.5703,-9.5429,-9.5195,-9.5195,-9.4001,-9.3164,-9.2905,-9.2688,-9.1357,-8.8782,-8.8709,-8.7132,-8.3901,-8.2439,-8.14,-8.0785,-8.0638,-8.0379,-8.0085,-8.0367,-8.0059,-7.9375,-7.8475,-7.7403,-7.6106,-7.3874,-7.2612,-7.1785,-6.8762,-6.7926,-6.8098,-6.6266,-6.559,-6.5474,-6.4589,-6.4178,-6.3817,-6.2756,-6.1856,-6.1242,-6.1537,-6.1845,-6.1871,-6.0969,-6.1302,-6.1502,-5.9685,-5.8405,-5.7218,-5.5766,-5.4964,-5.45,-5.4226,-5.4117,-5.4109,-5.46,-5.4681,-5.4645,-5.4933,-5.5688,-5.6406,-5.6711,-5.7453,0.0,0.0,-5.7484,-5.8053,-5.9602,-5.96,-6.0352,0.0,0.0,0.0,0.0,-5.5377,-5.4629,-5.438,-5.2932,-5.2412,-5.3041,-4.9996,-4.618,-4.1499,-3.8544,-3.7929,-3.933,-4.0455,-4.0792,-4.0595,-4.1818,-4.2356,-4.2662,-4.5415,-4.8665,-5.2235,-5.5129,-5.6703,-5.7516,-5.9147,-5.9823,-6.0125,-9.3121,-9.3242,-9.332,-9.332,-9.289,-9.2617,-9.2617,-9.2617,-9.2617,-9.2617,-9.2617,-9.2929,-9.3789,-9.3906,-9.4101,-9.457,-9.4609,-9.4765,-9.5156,-9.3856,-9.3114,-9.3194,-9.2675,-9.1244,-8.8743,-8.8709,-8.7017,-8.3593,-8.2708,-8.19,-8.1093,-8.1298,-8.125,-8.098,-8.1197,-8.071,-7.9687,-7.9219,-7.8044,-7.6267,-7.4408,-7.3345,-7.2518,-6.9313,-6.8351,-6.8472,-6.6643,-6.5442,-6.4705,-6.4628,-6.3885,-6.2929,-6.226,-6.1552,-6.088,-6.0492,-6.0712,-6.0947,-6.0289,-6.0632,-6.0856,-5.9432,-5.8433,-5.7496,-5.6491,-5.595,-5.554,-5.5201,-5.5204,-5.5395,-5.5829,-5.6007,-5.6206,-5.6337,-5.6748,-5.715,-5.7356,-5.7478,0.0,-5.7446,-5.74,-5.806,-5.9618,-5.9824,-6.0647,-6.2594,0.0,0.0,-5.7277,-5.4504,-5.2458,-5.156,-5.0131,-4.9461,-4.9288,-4.489,-3.9419,-3.2755,-3.1213,-3.0855,-3.1665,-3.2657,-3.3765,-3.4792,-3.5625,-3.6183,-3.6685,-3.867,-4.2612,-4.7459,-4.8862,-5.1157,-5.3833,-5.51,-5.5499,-5.5874,-9.4018,-9.3515,-9.2969,-9.2812,-9.2695,-9.2617,-9.2617,-9.2617,-9.2617,-9.2617,-9.2617,-9.289,-9.3633,-9.3711,-9.3711,-9.3711,-9.3711,-9.4062,-9.4961,-9.3593,-9.2892,-9.3243,-9.236,-9.094,-8.8861,-8.8265,-8.6544,-8.3593,-8.2593,-8.1785,-8.1093,-8.1285,-8.1458,-8.1648,-8.1711,-8.1044,-7.9842,-7.9453,-7.8086,-7.5976,-7.4662,-7.3627,-7.2561,-6.9957,-6.8706,-6.8157,-6.6531,-6.4831,-6.3499,-6.4232,-6.3461,-6.2066,-6.1684,-6.149,-6.1141,-6.0023,-5.996,-6.0084,-5.9559,-5.9658,-5.9792,-5.8913,-5.8418,-5.7877,-5.7065,-5.7011,-5.6905,-5.6168,-5.6539,-5.7012,-5.7114,-5.7514,-5.7933,-5.8079,-5.8051,-5.7965,-5.7999,0.0,-5.7227,-5.7741,-5.8083,-5.8839,-6.0255,-6.0854,-6.1579,-6.2458,-6.022,-5.8621,0.0,-5.4902,-5.1523,-4.8011,-4.7501,-4.6243,-4.4189,-3.8666,-3.2492,-2.5869,-2.4568,-2.4022,-2.4022,-2.4316,-2.5767,-2.8115,-2.8943,-2.9534,-3.0071,-3.1733,-3.6541,-4.2777,-4.2005,-4.5126,-4.9952,-5.0525,-5.0621,-5.1303,-9.5033,-9.4883,-9.457,-9.3828,-9.3086,-9.2617,-9.2617,-9.2617,-9.2617,-9.2617,-9.2617,-9.2656,-9.2773,-9.2812,-9.2812,-9.2812,-9.2812,-9.3164,-9.4023,-9.3645,-9.3396,-9.3447,-9.2479,-9.1043,-8.9236,-8.6204,-8.4298,-8.3593,-8.2054,-8.1208,-8.1093,-8.1116,-8.1231,-8.142,-8.0893,-8.0608,-8.0413,-7.8433,-7.7344,-7.6797,-7.4413,-7.2928,-7.195,-6.9913,-6.8227,-6.6789,-6.566,-6.4609,-6.375,-6.3867,-6.326,-6.2444,-6.2337,-6.1857,-6.1274,-6.1089,-6.0937,-6.0646,-5.9684,-5.9458,-5.9389,-5.8835,-5.8673,-5.8258,-5.713,-5.7421,-5.7872,-5.7777,-5.7764,-5.801,-5.8632,-5.8319,-5.8174,-5.8905,-5.8464,-5.806,-5.8188,0.0,-5.7636,-5.7039,-5.8176,-5.9406,-6.0326,-6.099,-6.1477,-6.1654,-6.0873,-5.9284,-5.6746,-5.6161,-5.2986,-4.6594,-4.5668,-4.2643,-3.7312,-3.2389,-2.9174,-2.7585,-2.3799,-2.2025,-2.2025,-2.3741,-2.2965,-2.0568,-2.5324,-2.5712,-2.3164,-2.6482,-3.1458,-3.7074,-3.8408,-4.2163,-4.7207,-5.0193,-5.0968,-5.1458,-9.4606,-9.4101,-9.3672,-9.3281,-9.2851,-9.2617,-9.2617,-9.2617,-9.2617,-9.2617,-9.2617,-9.2617,-9.2617,-9.2617,-9.2617,-9.2617,-9.2617,-9.2773,-9.3164,-9.2648,-9.2463,-9.2811,-9.1454,-8.9845,-8.7984,-8.5286,-8.3618,-8.3073,-8.1754,-8.1093,-8.1093,-8.1093,-8.1186,-8.1391,-8.0686,-8.026,-7.9885,-7.8001,-7.664,-7.5625,-7.3476,-7.207,-7.1054,-6.882,-6.739,-6.6414,-6.5035,-6.3915,-6.3106,-6.3106,-6.2522,-6.1861,-6.1861,-6.16,-6.1289,-6.1289,-6.0965,-6.0442,-5.9614,-5.9212,-5.8913,-5.8461,-5.8659,-5.8821,-5.8251,-5.8761,-5.9331,-5.9358,-5.9335,-5.9219,-5.9108,-5.9212,-5.9273,-5.9207,-5.8597,0.0,0.0,-5.7223,-5.6685,-5.6508,-5.7756,-5.8864,-5.9634,-6.0403,-6.1033,-6.1387,-6.0544,-5.996,-5.9735,-5.7794,-5.4705,-5.0654,-4.455,-3.9405,-3.5356,-3.1629,-2.8679,-2.6284,-2.3191,-2.106,-2.0125,-2.2217,-2.1522,-1.907,-2.2753,-2.2741,-2.0386,-2.3204,-2.7086,-3.152,-3.4034,-3.7685,-4.215,-4.5163,-4.6377,-4.726,-9.4334,-9.3515,-9.2851,-9.2656,-9.2617,-9.2617,-9.2617,-9.2617,-9.2617,-9.2617,-9.2617,-9.2617,-9.2617,-9.2617,-9.2539,-9.2304,-9.2304,-9.2226,-9.1992,-9.0935,-9.0819,-9.1943,-9.0179,-8.8296,-8.6334,-8.4573,-8.3358,-8.2607,-8.161,-8.1093,-8.1093,-8.1093,-8.108,-8.1001,-8.032,-7.953,-7.8633,-7.6931,-7.535,-7.3828,-7.1875,-7.0586,-6.957,-6.7422,-6.6244,-6.5585,-6.4297,-6.3162,-6.2309,-6.2309,-6.1889,-6.1383,-6.1344,-6.1364,-6.1373,-6.1344,-6.0973,-6.041,-5.9786,-5.9246,-5.8753,-5.8504,-5.8823,-5.9281,-5.9465,-6.0136,-6.0665,-6.0665,-6.069,-6.0458,-5.9797,-5.9896,-6.0008,-5.9769,0.0,0.0,0.0,-5.6314,-5.5485,-5.5609,-5.6983,-5.8083,-5.8668,-5.984,-6.0809,-6.1328,-6.0671,-6.0771,-6.2167,-5.9157,-5.5918,-5.2685,-4.344,-3.7005,-3.4067,-3.1571,-2.8465,-2.4836,-2.257,-2.0664,-1.8906,-2.0441,-1.9955,-1.7817,-2.0334,-2.0022,-1.7826,-1.9918,-2.3113,-2.6843,-2.8532,-3.2123,-3.6608,-3.9062,-4.0216,-4.1468,-9.5232,-9.4414,-9.3554,-9.2734,-9.2617,-9.2617,-9.2617,-9.2617,-9.2617,-9.2617,-9.2617,-9.2617,-9.2617,-9.2617,-9.2265,-9.1484,-9.1406,-9.1054,-9.0234,-8.8451,-8.8602,-9.125,-8.8983,-8.6744,-8.4785,-8.3636,-8.2921,-8.2607,-8.161,-8.1093,-8.1093,-8.1093,-8.0669,-7.9884,-7.9235,-7.8127,-7.6636,-7.4303,-7.2865,-7.1953,-6.9492,-6.7969,-6.707,-6.6055,-6.4687,-6.3241,-6.3124,-6.2499,-6.1756,-6.1756,-6.1717,-6.1637,-6.1515,-6.1577,-6.1637,-6.1515,-6.1373,-6.1094,-6.0432,-5.9778,-5.94,-5.9685,-5.9509,-5.9428,-6.0162,-6.0921,-6.1545,-6.1545,-6.1531,-6.1456,-6.14,-6.0176,-5.9718,-6.1219,0.0,0.0,-5.7491,-5.591,-5.4415,-5.3826,-5.5928,-5.7514,-5.7582,-5.9835,-6.1328,-6.1397,-6.1858,-6.1756,-6.0835,-6.0,-5.5879,-4.7943,-4.1568,-3.601,-3.137,-2.9158,-2.6967,-2.4649,-2.2521,-2.0664,-1.8752,-1.8906,-1.7015,-1.3589,-1.7511,-1.7038,-1.3604,-1.5811,-1.9434,-2.3404,-2.1556,-2.4976,-3.1327,-3.3421,-3.439,-3.5608,-9.5351,-9.4062,-9.3164,-9.3359,-9.2969,-9.2617,-9.2617,-9.2617,-9.2617,-9.2617,-9.2617,-9.2383,-9.1836,-9.1797,-9.1445,-9.0586,-9.0,-8.9531,-8.9219,-8.7536,-8.6702,-8.7118,-8.6325,-8.5272,-8.401,-8.336,-8.2698,-8.2048,-8.1412,-8.1093,-8.1093,-8.1093,-8.0631,-7.9746,-7.9108,-7.7971,-7.6427,-7.4012,-7.2314,-7.0976,-6.8437,-6.6832,-6.5837,-6.4392,-6.3394,-6.2687,-6.2134,-6.1783,-6.158,-6.158,-6.1633,-6.1679,-6.1525,-6.152,-6.1577,-6.1509,-6.1392,-6.1226,-6.1011,-6.0546,-6.0114,-5.9953,-6.0285,-6.0786,-6.108,-6.1777,-6.2365,-6.2365,-6.2347,-6.2219,-6.1715,-6.1456,-6.1279,-6.0909,0.0,-5.7113,-5.5984,-5.4593,-5.3225,-5.1978,-5.3809,-5.5103,-5.5103,-5.782,-5.9564,-5.9564,-6.0692,-6.1318,-6.1297,-5.8275,-5.3554,-4.7091,-4.2759,-3.8024,-3.2736,-2.936,-2.7291,-2.6643,-2.4714,-2.2212,-1.931,-2.0576,-1.7508,-1.1406,-1.429,-1.2983,-0.9264,-1.1482,-1.3342,-1.5342,-1.8632,-2.0797,-2.2278,-2.4365,-2.4389,-2.3797,-9.5265,-9.3943,-9.3125,-9.3437,-9.3008,-9.2617,-9.2617,-9.2617,-9.2617,-9.2617,-9.2344,-9.1953,-9.1367,-9.082,-9.0156,-8.9297,-8.8437,-8.7812,-8.7539,-8.6172,-8.5075,-8.4302,-8.4409,-8.4062,-8.3203,-8.2796,-8.2318,-8.168,-8.1311,-8.1093,-8.1093,-8.1093,-8.0477,-7.9361,-7.8888,-7.7573,-7.5555,-7.3403,-7.1611,-6.9994,-6.7187,-6.5654,-6.4788,-6.3065,-6.2305,-6.2106,-6.1523,-6.1373,-6.1504,-6.1504,-6.1553,-6.159,-6.1491,-6.14,-6.1344,-6.1485,-6.1364,-6.1253,-6.1576,-6.1358,-6.0903,-6.06,-6.1233,-6.2034,-6.2328,-6.2805,-6.3209,-6.3209,-6.2989,-6.2618,-6.2076,-6.2219,-6.1969,-6.058,-5.8862,-5.6978,-5.4974,-5.3298,-5.1917,-5.0845,-5.1894,-5.2784,-5.3038,-5.5619,-5.7479,-5.7854,-5.8592,-5.8759,-5.8026,-5.4391,-4.9744,-4.4106,-4.0954,-3.6915,-3.2022,-2.9617,-2.8097,-2.7107,-2.517,-2.2496,-1.9563,-1.9603,-1.6179,-1.0095,-1.0898,-0.9579,-0.6772,-0.8298,-0.8995,-0.9361,-1.3102,-1.3465,-1.16,-1.2439,-1.1386,-0.9545,-9.4987,-9.4318,-9.3633,-9.2773,-9.2617,-9.2617,-9.2617,-9.2578,-9.2578,-9.2578,-9.1836,-9.1289,-9.1289,-8.9726,-8.8359,-8.7539,-8.6679,-8.582,-8.4922,-8.4062,-8.3594,-8.3594,-8.3594,-8.3164,-8.2304,-8.1899,-8.168,-8.168,-8.1311,-8.1093,-8.1093,-8.1093,-8.0169,-7.8477,-7.8477,-7.6712,-7.3584,-7.2064,-7.0547,-6.8925,-6.5619,-6.4248,-6.3929,-6.2167,-6.14,-6.1289,-6.1277,-6.1373,-6.1504,-6.1504,-6.1484,-6.1491,-6.1334,-6.1172,-6.1081,-6.1409,-6.1262,-6.1242,-6.2251,-6.218,-6.1807,-6.1807,-6.2315,-6.3062,-6.3906,-6.409,-6.409,-6.409,-6.3392,-6.2805,-6.2805,-6.2129,-6.1343,-6.0519,-5.8146,-5.5977,-5.4759,-5.2376,-5.0616,-5.0214,-5.0594,-5.1188,-5.1816,-5.3555,-5.5217,-5.6573,-5.5897,-5.3849,-5.0184,-4.8418,-4.4611,-3.814,-3.4964,-3.1565,-2.7984,-2.9856,-2.9004,-2.5518,-2.3316,-2.1246,-1.9244,-1.4868,-1.1742,-0.9874,-0.7665,-0.6686,-0.6576,-0.6676,-0.6689,-0.6413,-0.4185,-0.1914,0.0345,0.2555,0.4898,0.6867,-9.5104,-9.4825,-9.4531,-9.3672,-9.3008,-9.2617,-9.2617,-9.207,-9.1679,-9.1679,-9.0937,-8.9922,-8.875,-8.8164,-8.7265,-8.5781,-8.4883,-8.4023,-8.3125,-8.2812,-8.2695,-8.2695,-8.2695,-8.2497,-8.211,-8.1844,-8.1653,-8.1501,-8.1242,-8.1093,-8.1093,-8.0477,-7.9592,-7.8477,-7.79,-7.6172,-7.3584,-7.2064,-7.0547,-6.8964,-6.6283,-6.4756,-6.3962,-6.2756,-6.1771,-6.1081,-6.0983,-6.1136,-6.1354,-6.1354,-6.1431,-6.1439,-6.1161,-6.1048,-6.1148,-6.1842,-6.1989,-6.212,-6.3003,-6.3422,-6.354,-6.354,-6.3661,-6.3759,-6.4016,-6.409,-6.3906,-6.3319,-6.2989,-6.2805,-6.2805,-6.2618,-6.1969,-6.058,-5.9319,-5.7397,-5.4325,-5.2394,-5.0704,-4.9102,-4.901,-4.9307,-4.9972,-5.133,-5.2094,-5.2181,-4.9324,-4.6671,-4.4518,-4.1777,-3.9056,-3.6336,-3.2856,-2.947,-2.6267,-2.6974,-2.6139,-2.3441,-2.1468,-1.8589,-1.5036,-1.0361,-0.6246,-0.2747,-0.0343,0.1547,0.2937,0.295,0.3995,0.5383,0.4372,0.7313,1.2411,1.4412,1.676,1.9394,-9.4372,-9.4549,-9.4556,-9.3032,-9.2381,-9.1836,-9.1172,-9.0625,-9.0156,-8.9844,-8.9023,-8.8125,-8.7109,-8.6367,-8.5547,-8.4492,-8.3594,-8.2851,-8.2344,-8.2304,-8.2148,-8.1797,-8.2109,-8.2219,-8.1992,-8.1819,-8.1618,-8.1407,-8.1224,-8.1093,-8.1093,-8.0554,-7.9669,-7.8477,-7.7977,-7.6398,-7.3983,-7.2425,-7.0951,-6.9362,-6.6961,-6.5442,-6.4509,-6.3553,-6.2497,-6.15,-6.1427,-6.1341,-6.1289,-6.1289,-6.1352,-6.1383,-6.1161,-6.1065,-6.1186,-6.221,-6.2409,-6.2624,-6.4239,-6.4485,-6.452,-6.5539,-6.5411,-6.4971,-6.464,-6.4567,-6.4347,-6.3503,-6.3062,-6.2805,-6.2805,-6.2567,-6.1733,-5.9972,-5.8835,-5.6918,-5.3387,-5.1751,-5.0164,-4.8531,-4.8057,-4.8267,-4.9164,-4.9426,-4.8729,-4.6759,-4.4093,-4.0968,-3.7403,-3.5431,-3.2538,-2.8932,-2.588,-2.268,-1.9219,-1.8678,-1.8964,-2.0272,-1.8188,-1.4982,-1.0544,-0.5909,-0.1876,0.1723,0.3964,0.59,0.7188,0.7027,0.8961,1.194,1.0389,1.4693,2.1684,2.3785,2.6665,3.0203,-9.3025,-9.3743,-9.3876,-9.1436,-9.115,-9.0703,-8.9062,-8.875,-8.8398,-8.7617,-8.6758,-8.6133,-8.5976,-8.4531,-8.3554,-8.3476,-8.2734,-8.2265,-8.2304,-8.2226,-8.1796,-8.1015,-8.1679,-8.1985,-8.1758,-8.1702,-8.16,-8.1359,-8.1196,-8.1061,-8.0991,-8.0914,-8.003,-7.8461,-7.8339,-7.6955,-7.4639,-7.3056,-7.1609,-7.0109,-6.7695,-6.6226,-6.5424,-6.4554,-6.3497,-6.2477,-6.246,-6.2065,-6.1546,-6.145,-6.1445,-6.1417,-6.1406,-6.1342,-6.15,-6.2639,-6.2834,-6.3184,-6.5639,-6.5486,-6.5161,-6.7384,-6.7272,-6.6366,-6.5521,-6.5301,-6.5044,-6.4163,-6.3356,-6.2755,-6.2705,-6.2076,-6.0948,-5.8929,-5.7328,-5.5339,-5.2332,-5.07,-4.9443,-4.8443,-4.767,-4.7702,-4.8954,-4.7499,-4.4774,-4.0858,-3.9232,-3.5791,-2.9658,-2.8834,-2.5221,-1.7996,-1.5445,-1.246,-0.8522,-0.644,-0.882,-1.5202,-1.3078,-0.9893,-0.5465,-0.1023,0.2071,0.431,0.6579,0.7545,0.7677,0.778,1.0409,1.4534,1.4703,2.021,2.8271,3.0839,3.4486,3.8808,-9.2134,-9.2713,-9.3015,-9.1301,-9.1023,-9.075,-8.9843,-8.914,-8.8398,-8.7617,-8.6758,-8.5664,-8.4297,-8.3828,-8.332,-8.2656,-8.2285,-8.2125,-8.2304,-8.1504,-8.1031,-8.1015,-8.0547,-8.0188,-7.9963,-8.1117,-8.1504,-8.1176,-8.1124,-8.0855,-8.0277,-7.9665,-7.8904,-7.8007,-7.7151,-7.6115,-7.4924,-7.3151,-7.1959,-7.1004,-6.8592,-6.7195,-6.648,-6.5473,-6.4528,-6.37,-6.3519,-6.3486,-6.3371,-6.2695,-6.2466,-6.2477,-6.2346,-6.2717,-6.334,-6.4148,-6.4787,-6.545,-6.6101,-6.6726,-6.7231,-6.7329,-6.737,-6.7063,-6.5632,-6.5301,-6.4897,-6.3392,-6.2952,-6.2618,-6.1969,-6.1715,-6.0772,-5.8152,-5.708,-5.5414,-5.2332,-5.07,-4.9528,-4.8443,-4.7195,-4.6732,-4.7608,-4.3351,-3.909,-3.5581,-3.039,-2.6728,-2.5184,-2.0773,-1.6812,-1.3849,-0.8387,-0.4474,-0.2101,0.1969,0.0662,-0.5979,-0.3873,-0.1358,0.1533,0.6188,0.8502,0.91,1.1659,1.2632,1.2686,1.2656,1.44,1.7214,1.894,2.3027,2.8591,3.4081,3.7958,4.1069,-9.1616,-9.189,-9.1938,-9.0443,-8.9593,-8.8774,-8.7733,-8.6836,-8.5976,-8.5117,-8.4609,-8.3984,-8.3086,-8.2969,-8.2812,-8.2344,-8.212,-8.1915,-8.1679,-8.1061,-8.0431,-7.9843,-7.9726,-7.96,-7.9416,-8.0481,-8.0922,-8.0624,-8.0619,-8.0463,-8.0087,-7.935,-7.8598,-7.7878,-7.7222,-7.6465,-7.5548,-7.3707,-7.2577,-7.1899,-6.9846,-6.8362,-6.7331,-6.6796,-6.574,-6.4555,-6.4448,-6.4007,-6.336,-6.2537,-6.2505,-6.2792,-6.2792,-6.3304,-6.4072,-6.4804,-6.5413,-6.5989,-6.6814,-6.7313,-6.7642,-6.7775,-6.7926,-6.7691,-6.6014,-6.5607,-6.5334,-6.4361,-6.3622,-6.3051,-6.2631,-6.1229,-5.9418,-5.7083,-5.5347,-5.3407,-5.1041,-4.9277,-4.7909,-4.7051,-4.5279,-4.367,-4.2499,-3.8362,-3.4199,-3.0333,-2.5399,-2.1762,-2.0142,-1.6068,-1.2056,-0.8093,-0.1456,0.2946,0.501,1.0764,1.0835,0.5115,0.3936,0.5819,1.0264,1.0396,1.1698,1.3847,1.2898,1.2449,1.2503,1.1255,1.2284,1.4541,1.699,2.1251,2.6955,3.2561,3.9043,4.5728,-9.1133,-9.1006,-9.0585,-8.9255,-8.7935,-8.6605,-8.5266,-8.4335,-8.3515,-8.2656,-8.2539,-8.2461,-8.2304,-8.2265,-8.2264,-8.2264,-8.2046,-8.1672,-8.1159,-8.068,-7.9899,-7.8708,-7.9062,-7.9175,-7.9047,-7.9637,-8.0085,-8.0299,-8.0279,-8.0087,-7.97,-7.9198,-7.8426,-7.7362,-7.7286,-7.6846,-7.6046,-7.4267,-7.3257,-7.274,-7.0926,-6.9366,-6.8099,-6.7943,-6.6839,-6.5341,-6.5348,-6.4372,-6.2974,-6.2341,-6.2532,-6.3095,-6.3358,-6.3933,-6.4665,-6.5308,-6.5673,-6.6135,-6.7302,-6.7506,-6.7607,-6.8325,-6.8511,-6.8148,-6.6761,-6.6425,-6.6207,-6.5688,-6.4766,-6.3816,-6.3296,-6.0855,-5.8187,-5.5952,-5.3291,-5.0961,-4.9373,-4.7294,-4.5767,-4.5032,-4.2636,-3.9717,-3.6275,-3.3336,-2.9785,-2.5653,-2.2571,-1.9506,-1.6685,-1.4472,-1.0605,-0.4329,0.2486,0.7379,1.0345,1.6974,1.8659,1.527,1.0982,1.1761,1.6664,1.291,1.2979,1.6105,1.2132,1.0273,1.0002,0.7862,0.8014,0.9573,1.2033,1.649,2.2202,2.8648,3.7951,4.7978,-9.0094,-8.9513,-8.8822,-8.8029,-8.7312,-8.6558,-8.5816,-8.5143,-8.4414,-8.3554,-8.3437,-8.3125,-8.2383,-8.2129,-8.2053,-8.2053,-8.1719,-8.1524,-8.1597,-8.0168,-7.9298,-7.9268,-7.8155,-7.7539,-7.7498,-7.794,-7.9152,-8.1213,-8.1051,-8.0044,-7.8277,-7.8187,-7.7155,-7.5306,-7.5652,-7.5701,-7.5523,-7.4101,-7.3628,-7.3611,-7.1198,-6.9717,-6.8925,-6.8183,-6.7196,-6.6234,-6.6369,-6.5417,-6.4062,-6.3984,-6.4023,-6.4218,-6.5,-6.5729,-6.6252,-6.6262,-6.6844,-6.7418,-6.7043,-6.7626,-6.8362,-6.8474,-6.8511,-6.8489,-6.8412,-6.8111,-6.7424,-6.5917,-6.5703,-6.4874,-6.1967,-6.0503,-5.8627,-5.5296,-5.2213,-4.9729,-4.8574,-4.6203,-4.4206,-4.3258,-3.9696,-3.5756,-3.1832,-2.8725,-2.5455,-2.1909,-2.0561,-1.959,-1.9165,-1.7521,-1.4361,-0.9535,-0.2849,0.3713,0.9904,1.5183,1.8426,1.9875,1.7429,1.5692,1.4541,1.3874,1.283,1.1423,1.0822,0.9455,0.7502,0.7146,0.6059,0.4792,0.7054,0.8607,1.1166,2.5375,3.3992,3.9693,-8.9325,-8.8171,-8.7186,-8.7088,-8.5737,-8.4621,-8.4434,-8.3851,-8.3279,-8.2754,-8.271,-8.25,-8.2023,-8.1889,-8.1844,-8.1844,-8.1563,-8.1269,-8.1003,-8.0144,-7.952,-7.9247,-7.8155,-7.7753,-7.8261,-7.7875,-7.8437,-7.9935,-7.9408,-7.8752,-7.7953,-7.7174,-7.5872,-7.4243,-7.4285,-7.4243,-7.4034,-7.2803,-7.2661,-7.2983,-7.1,-6.9952,-6.9465,-6.8232,-6.745,-6.6843,-6.6126,-6.5422,-6.4786,-6.4353,-6.4448,-6.4925,-6.5868,-6.6711,-6.7381,-6.7686,-6.8235,-6.8488,-6.7693,-6.7991,-6.8416,-6.8148,-6.8511,-6.8951,-6.9058,-6.9132,-6.8863,-6.7612,-6.6548,-6.5027,-6.2543,-5.9941,-5.7089,-5.3596,-5.0785,-4.8508,-4.7179,-4.5066,-4.245,-3.8906,-3.6275,-3.2619,-2.7385,-2.5999,-2.3565,-1.8727,-1.9444,-1.9612,-1.8309,-1.8768,-1.7033,-1.2564,-0.6909,-0.1186,0.4323,1.0406,1.3281,1.3216,1.3624,1.4682,1.6025,1.3449,1.1687,1.0424,0.7836,0.6079,0.5008,0.3759,0.1788,-0.0356,0.0706,0.2616,0.6179,1.6905,2.4271,2.9853]},{"header":{"parameterUnit":"m.s-1","parameterCategory":1,"la1":30.6,"la2":28.766,"lo1":-90.7593,"lo2":-88.6598,"dy":0.0162,"dx":0.0183,"nx":116,"ny":114,"refTime":"2024-05-13T06:00:00:Z","depth":0,"parameterNumber":3,"parameterNumberName":"V-component_of_WINDS"},"data":[0.0,0.0,0.0,0.0,0.0,0.0,0.0,0.0,0.0,0.0,0.0,0.0,0.0,0.0,0.0,0.0,0.0,0.0,0.0,0.0,0.0,0.0,0.0,0.0,0.0,0.0,0.0,0.0,0.0,0.0,0.0,0.0,0.0,0.0,0.0,0.0,0.0,0.0,0.0,0.0,0.0,0.0,0.0,0.0,0.0,0.0,0.0,0.0,0.0,0.0,0.0,0.0,0.0,0.0,0.0,0.0,0.0,0.0,0.0,0.0,0.0,0.0,0.0,0.0,0.0,0.0,0.0,0.0,0.0,0.0,0.0,0.0,0.0,0.0,0.0,0.0,0.0,0.0,0.0,0.0,0.0,0.0,0.0,0.0,0.0,0.0,0.0,0.0,0.0,0.0,0.0,0.0,0.0,0.0,0.0,0.0,0.0,0.0,0.0,0.0,0.0,0.0,0.0,0.0,0.0,0.0,0.0,0.0,0.0,0.0,0.0,0.0,0.0,0.0,0.0,0.0,0.0,0.0,0.0,0.0,0.0,0.0,0.0,0.0,0.0,0.0,0.0,0.0,0.0,0.0,0.0,0.0,0.0,0.0,0.0,0.0,0.0,0.0,0.0,0.0,0.0,0.0,0.0,0.0,0.0,0.0,0.0,0.0,0.0,0.0,0.0,0.0,0.0,0.0,0.0,0.0,0.0,0.0,0.0,0.0,0.0,0.0,0.0,0.0,0.0,0.0,0.0,0.0,0.0,0.0,0.0,0.0,0.0,0.0,0.0,0.0,0.0,0.0,0.0,0.0,0.0,0.0,0.0,0.0,0.0,0.0,0.0,0.0,0.0,0.0,0.0,0.0,0.0,0.0,0.0,0.0,0.0,0.0,0.0,0.0,0.0,0.0,0.0,0.0,0.0,0.0,0.0,0.0,0.0,0.0,0.0,0.0,0.0,0.0,0.0,0.0,0.0,0.0,0.0,0.0,0.0,0.0,0.0,0.0,0.0,0.0,0.0,0.0,0.0,0.0,0.0,0.0,0.0,0.0,0.0,0.0,0.0,0.0,0.0,0.0,0.0,0.0,0.0,0.0,0.0,0.0,0.0,0.0,0.0,0.0,0.0,0.0,0.0,0.0,0.0,0.0,0.0,0.0,0.0,0.0,0.0,0.0,0.0,0.0,0.0,0.0,0.0,0.0,0.0,0.0,0.0,0.0,0.0,0.0,0.0,0.0,0.0,0.0,0.0,0.0,0.0,0.0,0.0,0.0,0.0,0.0,0.0,0.0,0.0,0.0,0.0,0.0,0.0,0.0,0.0,0.0,0.0,0.0,0.0,0.0,0.0,0.0,0.0,0.0,0.0,0.0,0.0,0.0,0.0,0.0,0.0,0.0,0.0,0.0,0.0,0.0,0.0,0.0,0.0,0.0,0.0,0.0,0.0,0.0,0.0,0.0,0.0,0.0,0.0,0.0,0.0,0.0,0.0,0.0,0.0,0.0,0.0,0.0,0.0,0.0,0.0,0.0,0.0,0.0,0.0,0.0,0.0,0.0,0.0,0.0,0.0,0.0,0.0,0.0,0.0,0.0,0.0,0.0,0.0,0.0,0.0,0.0,0.0,0.0,0.0,0.0,0.0,0.0,0.0,0.0,0.0,0.0,0.0,0.0,0.0,0.0,0.0,0.0,0.0,0.0,0.0,0.0,0.0,0.0,0.0,0.0,0.0,0.0,0.0,0.0,0.0,0.0,0.0,0.0,0.0,0.0,0.0,0.0,0.0,0.0,0.0,0.0,0.0,0.0,0.0,0.0,0.0,0.0,0.0,0.0,0.0,0.0,0.0,0.0,0.0,0.0,0.0,0.0,0.0,0.0,0.0,0.0,0.0,0.0,0.0,0.0,0.0,0.0,0.0,0.0,0.0,0.0,0.0,0.0,0.0,0.0,0.0,0.0,0.0,0.0,0.0,0.0,0.0,0.0,0.0,0.0,0.0,0.0,0.0,0.0,0.0,0.0,0.0,0.0,0.0,0.0,0.0,0.0,0.0,0.0,0.0,0.0,0.0,0.0,0.0,0.0,0.0,0.0,0.0,0.0,0.0,0.0,0.0,0.0,0.0,0.0,0.0,0.0,0.0,0.0,0.0,0.0,0.0,0.0,0.0,0.0,0.0,0.0,0.0,0.0,0.0,0.0,0.0,0.0,0.0,0.0,0.0,0.0,0.0,0.0,0.0,0.0,0.0,0.0,0.0,0.0,0.0,0.0,0.0,0.0,0.0,0.0,0.0,0.0,0.0,0.0,0.0,0.0,0.0,0.0,0.0,0.0,0.0,0.0,0.0,0.0,0.0,0.0,0.0,0.0,0.0,0.0,0.0,0.0,0.0,0.0,0.0,0.0,0.0,0.0,0.0,0.0,0.0,0.0,0.0,0.0,0.0,0.0,0.0,0.0,0.0,0.0,0.0,0.0,0.0,0.0,0.0,0.0,0.0,0.0,0.0,0.0,0.0,0.0,0.0,0.0,0.0,0.0,0.0,0.0,0.0,0.0,0.0,0.0,0.0,0.0,0.0,0.0,0.0,0.0,0.0,0.0,0.0,0.0,0.0,0.0,0.0,0.0,0.0,0.0,0.0,0.0,0.0,0.0,0.0,0.0,0.0,0.0,0.0,0.0,0.0,0.0,0.0,0.0,0.0,0.0,0.0,0.0,0.0,0.0,0.0,0.0,0.0,0.0,0.0,0.0,0.0,0.0,0.0,0.0,0.0,0.0,0.0,0.0,0.0,0.0,0.0,0.0,0.0,0.0,0.0,0.0,0.0,0.0,0.0,0.0,0.0,0.0,0.0,0.0,0.0,0.0,0.0,0.0,0.0,0.0,0.0,0.0,0.0,0.0,0.0,0.0,0.0,0.0,0.0,0.0,0.0,0.0,0.0,0.0,0.0,0.0,0.0,0.0,0.0,0.0,0.0,0.0,0.0,0.0,0.0,0.0,0.0,0.0,0.0,0.0,0.0,0.0,0.0,0.0,0.0,0.0,0.0,0.0,0.0,0.0,0.0,0.0,0.0,0.0,0.0,0.0,0.0,0.0,0.0,0.0,0.0,0.0,0.0,0.0,0.0,0.0,0.0,0.0,0.0,0.0,0.0,0.0,0.0,0.0,0.0,0.0,0.0,0.0,0.0,0.0,0.0,0.0,0.0,0.0,0.0,0.0,0.0,0.0,0.0,0.0,0.0,0.0,0.0,0.0,0.0,0.0,0.0,0.0,0.0,0.0,0.0,0.0,0.0,0.0,0.0,0.0,0.0,0.0,0.0,0.0,0.0,0.0,0.0,0.0,0.0,0.0,0.0,0.0,0.0,0.0,0.0,0.0,0.0,0.0,0.0,0.0,0.0,0.0,0.0,0.0,0.0,0.0,0.0,0.0,0.0,0.0,0.0,0.0,0.0,0.0,0.0,0.0,0.0,0.0,0.0,0.0,0.0,0.0,0.0,0.0,0.0,0.0,0.0,0.0,0.0,0.0,0.0,0.0,0.0,0.0,0.0,0.0,0.0,0.0,0.0,0.0,0.0,0.0,0.0,0.0,0.0,0.0,0.0,0.0,0.0,0.0,0.0,0.0,0.0,0.0,0.0,0.0,0.0,0.0,0.0,0.0,0.0,0.0,0.0,0.0,0.0,0.0,0.0,0.0,0.0,0.0,0.0,0.0,0.0,0.0,0.0,0.0,0.0,0.0,0.0,0.0,0.0,0.0,0.0,0.0,0.0,0.0,0.0,0.0,0.0,0.0,0.0,0.0,0.0,0.0,0.0,0.0,0.0,0.0,0.0,0.0,0.0,0.0,0.0,0.0,0.0,0.0,0.0,0.0,0.0,0.0,0.0,0.0,0.0,0.0,0.0,0.0,0.0,0.0,0.0,0.0,0.0,0.0,0.0,0.0,0.0,0.0,0.0,0.0,0.0,0.0,0.0,0.0,0.0,0.0,0.0,0.0,0.0,0.0,0.0,0.0,0.0,0.0,0.0,0.0,0.0,0.0,0.0,0.0,0.0,0.0,0.0,0.0,0.0,0.0,0.0,0.0,0.0,0.0,0.0,0.0,0.0,0.0,0.0,0.0,0.0,0.0,0.0,0.0,0.0,0.0,0.0,0.0,0.0,0.0,0.0,0.0,0.0,0.0,0.0,0.0,0.0,0.0,0.0,0.0,0.0,0.0,0.0,0.0,0.0,0.0,0.0,0.0,0.0,0.0,0.0,0.0,0.0,0.0,0.0,0.0,0.0,0.0,0.0,0.0,0.0,0.0,0.0,0.0,0.0,0.0,0.0,0.0,0.0,0.0,0.0,0.0,0.0,0.0,0.0,0.0,0.0,0.0,0.0,0.0,0.0,0.0,0.0,0.0,0.0,0.0,0.0,0.0,0.0,0.0,0.0,0.0,0.0,0.0,0.0,0.0,0.0,0.0,0.0,0.0,0.0,0.0,0.0,0.0,0.0,0.0,0.0,0.0,0.0,0.0,0.0,0.0,0.0,0.0,0.0,0.0,0.0,0.0,0.0,0.0,0.0,0.0,0.0,0.0,0.0,0.0,0.0,0.0,0.0,0.0,0.0,0.0,0.0,0.0,0.0,0.0,0.0,0.0,0.0,0.0,0.0,0.0,0.0,0.0,0.0,0.0,0.0,0.0,0.0,0.0,0.0,0.0,0.0,0.0,0.0,0.0,0.0,0.0,0.0,0.0,0.0,0.0,0.0,0.0,0.0,0.0,0.0,0.0,0.0,0.0,0.0,0.0,0.0,0.0,0.0,0.0,0.0,0.0,0.0,0.0,0.0,0.0,0.0,0.0,0.0,0.0,0.0,0.0,0.0,0.0,0.0,0.0,0.0,0.0,0.0,0.0,0.0,0.0,0.0,0.0,0.0,0.0,0.0,0.0,0.0,0.0,0.0,0.0,0.0,0.0,0.0,0.0,0.0,0.0,0.0,0.0,0.0,0.0,0.0,0.0,0.0,0.0,0.0,0.0,0.0,0.0,0.0,0.0,0.0,0.0,0.0,0.0,0.0,0.0,0.0,0.0,0.0,0.0,0.0,0.0,0.0,0.0,0.0,0.0,0.0,0.0,0.0,0.0,0.0,0.0,0.0,0.0,0.0,0.0,0.0,0.0,0.0,0.0,0.0,0.0,0.0,0.0,0.0,0.0,0.0,0.0,0.0,0.0,0.0,0.0,0.0,0.0,0.0,0.0,0.0,0.0,0.0,0.0,0.0,0.0,0.0,0.0,0.0,0.0,0.0,0.0,0.0,0.0,0.0,0.0,0.0,0.0,0.0,0.0,0.0,0.0,0.0,0.0,0.0,0.0,0.0,0.0,0.0,0.0,0.0,0.0,0.0,0.0,0.0,0.0,0.0,0.0,0.0,0.0,0.0,0.0,0.0,0.0,0.0,0.0,0.0,0.0,0.0,0.0,0.0,0.0,0.0,0.0,0.0,0.0,0.0,0.0,0.0,0.0,0.0,0.0,0.0,0.0,0.0,0.0,0.0,0.0,0.0,0.0,0.0,0.0,0.0,0.0,0.0,0.0,0.0,0.0,0.0,0.0,0.0,0.0,0.0,0.0,0.0,0.0,0.0,0.0,0.0,0.0,0.0,0.0,0.0,0.0,0.0,0.0,0.0,0.0,0.0,0.0,0.0,0.0,0.0,0.0,0.0,0.0,0.0,0.0,0.0,0.0,0.0,0.0,0.0,0.0,0.0,0.0,0.0,0.0,0.0,0.0,0.0,0.0,0.0,0.0,0.0,0.0,0.0,0.0,0.0,0.0,0.0,0.0,0.0,0.0,0.0,0.0,0.0,0.0,0.0,0.0,0.0,0.0,0.0,0.0,0.0,0.0,0.0,0.0,0.0,0.0,0.0,0.0,0.0,0.0,0.0,0.0,0.0,0.0,0.0,0.0,0.0,0.0,0.0,0.0,0.0,0.0,0.0,0.0,0.0,0.0,0.0,0.0,0.0,0.0,0.0,0.0,0.0,0.0,0.0,0.0,0.0,0.0,0.0,0.0,0.0,0.0,0.0,0.0,0.0,0.0,0.0,0.0,0.0,0.0,0.0,0.0,0.0,0.0,0.0,0.0,3.3857,0.0,0.0,0.0,0.0,0.0,0.0,0.0,0.0,0.0,0.0,0.0,0.0,0.0,0.0,0.0,0.0,0.0,0.0,0.0,0.0,0.0,0.0,0.0,0.0,0.4342,0.4546,0.4503,0.3514,0.2764,0.2257,0.0,0.0,0.0,0.0,0.0,0.9938,1.1727,1.4335,1.7588,1.999,2.3121,2.6977,2.9453,2.9422,2.7117,0.0,0.0,0.0,0.0,0.0,0.0,0.0,0.0,0.0,0.0,0.0,0.0,0.0,0.0,0.0,0.0,0.0,0.0,0.0,0.0,0.0,0.0,0.0,0.0,0.0,0.0,0.0,0.0,0.0,0.0,0.0,0.0,0.0,0.0,0.0,0.0,0.0,0.0,0.0,0.0,0.0,0.0,0.0,0.0,0.0,0.0,0.0,0.0,0.0,0.0,0.0,0.0,0.0,0.0,0.0,0.0,0.0,0.0,0.0,0.0,0.0,0.0,0.0,0.0,0.0,0.0,0.0,0.0,0.0,0.0,0.0,3.5915,0.0,0.0,0.0,0.0,0.0,0.0,0.0,0.0,0.0,0.0,0.0,0.0,0.0,0.0,0.0,0.0,0.0,0.0,0.0,0.0,0.0,0.162,0.307,0.4096,0.5156,0.6116,0.5597,0.5229,0.5023,0.4142,0.0,0.0,0.0,0.7964,1.0708,1.3297,1.6375,1.9879,2.2478,2.7026,3.3347,3.5812,3.4703,3.0573,2.8446,0.0,0.0,0.0,0.0,0.0,0.0,0.0,0.0,0.0,0.0,0.0,0.0,0.0,0.0,0.0,0.0,0.0,0.0,0.0,0.0,0.0,0.0,0.0,0.0,0.0,0.0,0.0,0.0,0.0,0.0,0.0,0.0,0.0,0.0,0.0,0.0,0.0,0.0,0.0,0.0,0.0,0.0,0.0,0.0,0.0,0.0,0.0,0.0,0.0,0.0,0.0,0.0,0.0,0.0,0.0,0.0,0.0,0.0,0.0,0.0,0.0,0.0,0.0,5.0699,5.1604,5.2403,5.2487,5.2545,5.2101,4.4195,4.0106,3.9051,0.0,0.0,0.0,0.0,0.0,0.0,0.0,0.0,0.0,0.0,0.0,0.0,0.0,0.0,0.0,0.0,0.0,0.0,0.0,0.0,0.007,0.2672,0.4089,0.5283,0.6263,0.7026,0.7173,0.639,0.5964,0.5964,0.6278,0.7932,0.9514,1.0824,1.426,1.7733,2.1353,2.8367,3.4059,3.8481,4.0039,4.0542,3.9945,3.4322,2.8186,2.1874,0.0,0.0,0.0,0.0,0.0,0.0,0.0,0.0,0.0,0.0,0.0,0.0,0.0,0.0,0.0,0.0,0.0,0.0,0.0,0.0,0.0,0.0,0.0,0.0,0.0,0.0,0.0,0.0,0.0,0.0,0.0,0.0,0.0,0.0,0.0,0.0,0.0,0.0,0.0,0.0,0.0,3.6933,3.6373,0.0,0.0,0.0,0.0,0.0,0.0,0.0,0.0,0.0,0.0,0.0,0.0,0.0,4.8836,5.1955,5.278,5.4089,5.5991,5.7268,5.7349,5.647,5.702,5.7165,5.6847,5.3913,0.0,4.6447,4.3058,0.0,0.0,0.0,0.0,0.0,0.0,0.0,0.0,0.0,0.0,0.0,0.0,0.0,0.0,0.0,0.0,0.0,0.0,0.0,0.0,0.0,0.5557,0.7658,0.8825,1.1109,1.1723,0.9999,0.9018,0.7886,0.661,0.7242,0.8758,1.1006,1.5642,2.1815,2.9654,3.6642,4.1276,4.3742,4.5486,4.6828,4.7686,4.4464,3.8811,3.1067,2.285,0.0,0.0,0.0,0.0,0.0,0.0,0.0,0.0,0.0,0.0,0.0,0.0,0.0,0.0,0.0,0.0,0.0,0.0,0.0,0.0,0.0,0.0,0.0,0.0,0.0,0.0,0.0,0.0,0.0,0.0,0.0,0.0,0.0,0.0,0.0,0.0,0.0,0.0,0.0,3.9817,4.09,3.9106,4.089,4.1712,0.0,0.0,0.0,0.0,0.0,0.0,0.0,0.0,0.0,5.0264,5.0862,5.252,5.544,5.6858,5.8605,6.0475,6.1792,6.2758,6.3298,6.3209,6.2861,6.2324,5.978,5.6022,5.1331,4.7445,4.46,4.2287,0.0,0.0,0.0,0.0,3.7688,3.7769,0.0,0.0,0.0,0.0,0.0,0.0,0.0,0.0,0.0,0.0,0.0,0.0,0.5414,0.8399,1.1101,1.3421,1.5643,1.586,1.3561,1.1156,0.86,0.5972,0.5353,0.6583,0.9942,1.7916,2.7262,3.7962,4.4224,4.8099,4.9643,5.1511,5.3106,5.4349,5.3335,4.9224,4.2363,3.2934,2.5152,1.7369,0.0,0.0,0.0,0.0,0.0,0.0,0.0,0.0,0.0,0.0,0.0,0.0,0.0,0.0,0.0,0.0,0.0,0.0,0.0,0.0,0.0,0.0,0.0,0.0,0.0,0.0,0.0,0.0,0.0,0.0,0.0,0.0,0.0,0.0,0.0,0.0,0.0,4.2621,4.4331,4.1731,4.4021,4.4899,0.0,0.0,0.0,0.0,0.0,0.0,4.8167,4.9007,5.135,5.5469,5.5879,5.7301,5.9608,6.1104,6.278,6.4605,6.5592,6.6909,6.8465,6.7552,6.6598,6.5733,6.2012,5.8104,5.4225,5.0199,4.6118,4.2529,4.1103,3.9977,3.9272,3.9384,3.9519,3.9584,0.0,0.0,0.0,0.0,0.0,0.0,0.0,0.0,0.0,0.0,0.0,0.624,1.1156,1.2802,1.5579,2.0652,1.9962,1.838,1.6154,1.1445,0.7242,0.4099,0.2249,0.3131,0.6874,2.1674,3.4006,4.3432,4.971,5.4085,5.6635,5.7882,5.8897,5.9655,5.8158,5.6478,5.4592,5.0822,4.0835,2.6894,1.9927,0.0,0.0,0.0,0.0,0.0,0.0,0.0,0.0,0.0,0.0,0.0,0.0,0.0,0.0,0.0,0.0,0.0,0.0,0.0,0.0,0.0,0.0,0.0,0.0,0.0,0.0,0.0,0.0,0.0,0.0,0.0,0.0,0.0,0.0,0.0,0.0,0.0,0.0,4.3524,4.7233,0.0,0.0,0.0,0.0,4.7037,4.8316,5.0237,5.2874,5.5293,5.8154,6.153,6.2784,6.4485,6.646,6.658,6.7328,6.8704,6.8764,6.9183,6.9871,6.8006,6.6648,6.513,5.9625,5.6378,5.4637,4.96,4.6217,4.4086,4.1927,4.1904,4.2936,4.1029,4.0751,4.1131,0.0,0.0,0.0,0.0,0.0,-0.3467,-0.435,-0.2572,-0.0615,0.1026,0.5105,0.9195,1.2782,1.6063,1.9484,2.2977,2.3799,2.3025,2.0407,1.5304,0.9762,0.3849,0.0604,0.3172,1.2202,2.5156,3.684,4.7022,5.3628,5.8248,6.1035,6.15,6.2382,6.3627,6.3602,6.3091,6.1793,5.4661,4.7545,3.9826,2.4935,1.0354,0.0,0.0,0.0,0.0,0.0,0.0,0.0,0.0,0.0,0.0,0.0,0.0,0.0,0.0,0.0,0.0,0.0,0.0,0.0,0.0,0.0,0.0,0.0,0.0,0.0,0.0,0.0,0.0,0.0,0.0,0.0,0.0,0.0,0.0,0.0,0.0,0.0,5.0216,5.3294,0.0,5.1818,5.0918,5.0668,5.1143,5.2378,5.473,5.8199,5.9985,6.245,6.5772,6.5922,6.646,6.7597,6.7627,6.7657,6.7717,6.7039,6.6791,6.6996,6.4804,6.2452,5.988,5.7354,5.3714,4.935,4.7813,4.5921,4.412,4.289,4.1937,4.1187,4.1022,4.1083,4.1231,0.0,0.0,0.0,0.5311,0.0844,-0.2788,-0.4389,-0.3191,-0.1293,0.0816,0.5873,1.0683,1.4531,1.8895,2.2852,2.6062,2.6995,2.6172,2.3525,1.7937,1.1768,0.5369,0.2013,0.5132,1.5528,2.7231,3.881,5.0266,5.6855,6.1606,6.4699,6.4778,6.567,6.7146,6.8082,6.8121,6.7103,6.1259,5.6046,5.0344,3.4654,2.2729,1.2451,0.0,0.0,0.0,0.0,0.0,0.0,0.0,0.0,0.0,0.0,0.0,0.0,0.0,0.0,0.0,0.0,0.0,0.0,0.0,0.0,0.0,0.0,0.0,0.0,0.0,0.0,0.0,0.0,0.0,0.0,0.0,0.0,0.0,0.0,0.0,5.3705,5.5871,5.813,5.8716,5.664,5.5317,5.4718,5.516,5.6436,5.871,6.2241,6.3468,6.5173,6.7567,6.6892,6.6612,6.6849,6.6285,6.5797,6.5232,6.4584,6.38,6.2802,6.0647,5.8009,5.4939,5.3152,5.014,4.6195,4.5896,4.5062,4.3915,4.3331,4.2336,4.1211,4.1504,4.1875,4.2324,0.0,1.4715,1.1182,0.6936,0.1983,-0.2375,-0.5365,-0.4852,-0.3181,-0.0672,0.4731,1.0632,1.659,2.1168,2.5643,3.0262,2.9463,2.7742,2.5513,1.8994,1.3153,0.8458,0.6426,0.8795,1.6085,2.7744,4.0141,5.319,5.9367,6.4189,6.7626,6.7997,6.8906,7.0286,7.1445,7.1519,7.0741,7.1705,6.6883,5.8029,5.0402,3.8613,2.4224,0.0,0.0,0.0,0.0,0.0,0.0,0.0,0.0,0.0,0.0,0.0,0.0,0.0,0.0,0.0,0.0,0.0,0.0,0.0,0.0,0.0,0.0,0.0,0.0,0.0,0.0,0.0,0.0,0.0,0.0,0.0,0.0,0.0,4.5622,5.2799,5.8196,6.003,6.148,6.1338,5.9138,5.7894,5.7782,5.8991,6.0335,6.2187,6.4755,6.5532,6.6189,6.6816,6.5816,6.5016,6.4438,6.2633,6.1808,6.178,6.1647,6.0239,5.7694,5.5829,5.3562,5.0859,4.7204,4.5754,4.574,4.4335,4.3711,4.3672,4.3281,4.3359,4.3594,4.2773,4.3262,4.4297,1.4166,1.2097,0.9344,0.5255,0.0,-0.4361,-0.6487,-0.6623,-0.5569,-0.3209,0.3044,0.9173,1.4006,2.0523,2.6349,3.0823,3.1501,3.0903,2.9135,2.4243,1.8117,1.0734,1.0114,1.3723,2.1857,3.1343,4.1724,5.2833,5.9011,6.4044,6.7841,6.9223,7.0952,7.2917,7.38,7.4448,7.4824,7.5736,7.3688,6.9009,5.9311,4.8182,3.6455,0.0,0.0,0.0,0.0,0.0,0.0,0.0,0.0,0.0,0.0,0.0,0.0,0.0,0.0,0.0,0.0,0.0,0.0,0.0,0.0,0.0,0.0,0.0,0.0,0.0,0.0,0.0,0.0,0.0,0.0,0.0,0.0,4.4841,4.8426,5.4191,5.9422,6.3053,6.5272,6.4931,6.1186,6.0475,5.9556,5.7655,5.8843,6.003,6.1317,6.194,6.2563,6.3317,6.254,6.2052,6.1884,6.0913,5.9572,5.7624,5.6332,5.453,5.2294,5.0646,4.8793,4.6941,4.6266,4.5139,4.3917,4.4052,4.4004,4.373,4.3945,4.3711,4.3262,4.332,4.3379,4.334,1.1506,0.974,0.7206,0.3411,-0.1727,-0.6302,-0.9462,-1.0271,-0.958,-0.7201,-0.1472,0.4298,0.9257,1.6805,2.2781,2.582,2.9774,3.1299,2.9349,2.7488,2.3742,1.7699,1.9385,2.3123,2.8814,3.6607,4.4937,5.3761,5.9217,6.399,6.8051,7.0127,7.2108,7.3964,7.5856,7.6769,7.7035,7.8601,7.7903,7.5267,6.8863,5.9908,4.9333,3.9287,2.9002,1.9417,1.445,1.2807,1.3481,1.6675,0.0,0.0,0.0,0.0,0.0,0.0,0.0,0.0,0.0,0.0,0.0,0.0,0.0,0.0,0.0,0.0,0.0,0.0,0.0,0.0,0.0,0.0,0.0,0.0,4.262,4.7298,5.1246,5.6278,6.0676,6.3837,6.5204,6.4471,6.1226,6.0646,5.9708,5.7839,5.8971,5.9911,6.0518,6.1154,6.1623,6.2117,6.0729,5.9887,5.9643,5.7482,5.5564,5.405,5.225,5.0237,4.8178,4.7135,4.5954,0.0,4.4681,4.416,4.3125,4.3633,4.3574,0.0,0.0,0.0,0.0,0.0,4.332,4.2754,0.8463,0.6819,0.4187,0.0611,-0.4036,-0.892,-1.3716,-1.5023,-1.4573,-1.2354,-0.8017,-0.3037,0.2572,1.0217,1.5599,1.7178,2.5018,2.9443,2.8493,3.0218,3.0413,2.83,3.2206,3.5238,3.6845,4.3138,4.9373,5.5416,5.9871,6.4122,6.7927,7.0726,7.272,7.419,7.7212,7.8292,7.8027,8.0299,8.0151,7.8266,7.764,7.1575,6.1542,5.0538,3.9909,2.9534,2.0746,1.658,1.5246,1.5779,0.0,0.0,0.0,0.0,0.0,0.0,0.0,0.0,0.0,0.0,0.0,0.0,0.0,0.0,0.0,0.0,0.0,0.0,0.0,0.0,0.0,0.0,0.0,0.0,4.4442,4.8252,5.3034,5.7628,6.1111,6.2856,6.2656,6.1585,5.9801,5.8982,5.8509,5.8461,5.9367,6.0239,6.0757,0.0,0.0,0.0,0.0,5.814,5.7338,5.3348,5.1213,5.0748,4.8787,4.7028,4.5117,4.5117,4.4437,4.3144,4.3105,4.3086,4.3066,4.3027,4.2773,4.2461,4.2851,4.3301,4.3691,4.3594,4.3105,4.2539,0.0709,-0.0064,-0.2139,-0.6017,-1.0404,-1.4487,-1.7891,-1.9159,-1.9291,-1.8043,-1.5315,-1.1607,-0.6588,-0.0363,0.5072,0.922,1.7376,2.5652,3.3525,3.6932,3.9614,4.1855,4.4593,4.6548,4.7492,5.0903,5.3896,5.6432,6.0968,6.4355,6.669,7.0303,7.3116,7.5206,7.592,7.7516,7.9667,8.0306,8.055,8.0491,8.0143,7.5234,6.7499,6.0876,4.9868,3.6709,2.7908,2.1973,1.827,1.929,2.3869,3.0512,3.7375,3.906,0.0,0.0,0.0,0.0,0.0,0.0,0.0,0.0,0.0,0.0,0.0,0.0,0.0,0.0,0.0,0.0,0.0,0.0,0.0,4.3815,4.747,5.0375,5.0893,5.3947,5.7299,6.0324,6.0528,5.9578,5.7266,5.7304,5.7078,5.6098,5.6622,5.7031,5.7159,5.7261,0.0,5.7312,5.6514,5.5271,5.3473,5.2062,4.9709,4.6566,0.0,0.0,4.3577,4.3577,4.349,4.3555,4.3223,4.3086,4.3047,4.2695,4.25,4.2441,4.2519,4.3027,4.3613,4.293,4.2793,4.2871,-0.6617,-0.6573,-0.735,-1.087,-1.47,-1.8382,-2.1636,-2.3144,-2.3509,-2.2516,-2.1336,-1.8953,-1.4732,-0.9902,-0.5737,-0.2684,0.9949,2.1875,3.1601,4.0085,4.6606,5.083,5.3835,5.5619,5.6169,5.7489,5.8698,5.9903,6.287,6.5213,6.7151,7.0302,7.2894,7.4921,7.5797,7.7473,7.9685,8.0183,8.0981,8.18,8.1477,7.8578,7.3808,6.83,5.893,4.6497,2.8853,2.2837,2.1934,1.4846,1.9472,2.9436,3.6637,3.9521,4.0407,0.0,0.0,0.0,0.0,0.0,0.0,0.0,0.0,0.0,0.0,0.0,0.0,0.0,0.0,4.3517,4.276,0.0,4.5159,4.4913,4.7259,4.8799,4.8084,4.9455,5.1655,5.4131,5.4865,5.435,5.249,5.3034,5.3766,5.4448,5.5404,5.6347,5.7449,5.7725,5.7725,5.7474,5.6922,5.6028,5.467,5.1953,4.9706,4.7723,4.5561,4.4119,4.3398,4.3398,4.3496,4.3691,4.3262,4.2949,4.2715,4.2285,4.2246,4.2461,4.2891,4.332,4.3652,4.3223,4.3359,4.3613,-1.2572,-1.2751,-1.2961,-1.5384,-1.8425,-2.1714,-2.5163,-2.67,-2.7233,-2.6554,-2.663,-2.5588,-2.2474,-1.9145,-1.6016,-1.3207,0.3666,1.8226,2.778,4.1761,5.2015,5.7291,6.0935,6.2879,6.3095,6.3205,6.3546,6.3972,6.5514,6.692,6.8353,7.0994,7.3054,7.4684,7.6134,7.7775,7.9479,8.0284,8.1466,8.2745,8.2172,8.0769,7.847,7.2773,6.4168,5.2113,2.9483,2.2491,2.179,0.8008,1.3394,2.7252,3.4272,3.8948,4.1513,3.9508,3.9728,0.0,0.0,0.0,0.0,0.0,0.0,0.0,0.0,0.0,4.2923,4.43,4.5016,4.5289,4.5129,4.6117,4.6747,4.571,4.6045,4.6194,4.5408,4.57,4.6334,4.7183,4.8751,4.9368,4.844,4.925,5.0967,5.3507,5.4273,5.5626,5.774,5.829,5.834,5.7918,5.7976,5.745,5.6402,5.2302,5.0031,4.9361,4.5535,4.3789,4.3711,4.3711,4.3711,4.3672,4.3164,4.2754,4.2402,4.207,4.2226,4.2754,4.3535,4.3887,4.3945,4.3867,4.4082,4.4258,-1.5581,-1.8585,-2.0505,-2.0829,-2.2744,-2.5342,-2.8743,-2.9358,-2.9819,-3.0844,-3.1283,-3.1147,-3.0109,-2.8785,-2.4674,-1.6453,0.0125,1.4827,2.5866,4.3257,5.5845,6.1983,6.5574,6.7424,6.7295,6.8004,6.7826,6.6754,6.9302,7.0271,6.9659,7.2589,7.4612,7.5649,7.6428,7.8128,8.0401,8.1208,8.2279,8.3393,8.2138,8.0631,7.848,7.2583,6.0087,4.4523,3.5228,2.3541,1.1229,0.2588,0.9795,2.3954,3.2642,3.6425,3.7906,3.8661,3.8613,3.8422,3.8866,3.9974,4.1474,4.3299,4.2203,4.1731,0.0,0.0,4.3669,4.5898,4.6861,4.7128,4.6362,4.6305,4.6464,4.655,4.6035,4.5332,4.3995,4.4167,4.3565,4.1686,4.5384,4.8097,4.8463,4.9404,5.1122,5.3684,5.2802,5.2967,5.5076,5.5279,5.5279,5.5076,5.6943,5.6671,5.4191,5.2215,4.9883,4.7187,4.5243,4.4101,4.3711,4.3711,4.3711,4.3652,4.2851,4.248,4.2422,4.2383,4.2832,4.3613,4.4121,4.4551,4.4824,4.4453,4.4355,4.4219,-1.9508,-2.2667,-2.4993,-2.6075,-2.6914,-2.8025,-2.9867,-3.1278,-3.2317,-3.2864,-3.3675,-3.4083,-3.3796,-3.295,-3.0562,-2.5855,-0.7269,0.8922,2.0111,4.0202,5.5211,6.3129,6.6845,6.8925,6.9428,7.0729,7.1114,7.0662,7.2597,7.3083,7.2312,7.4545,7.6316,7.7694,7.8051,7.962,8.2032,8.2714,8.3586,8.4466,8.3487,8.0676,7.6192,6.8331,5.6383,4.2378,3.0129,2.1894,0.0,-0.4461,0.2406,2.0111,2.8582,3.3726,3.6621,3.6378,3.7363,3.8392,3.7951,4.0125,4.2452,0.0,4.2636,4.3696,4.5846,4.5713,4.5574,4.6785,4.6961,4.6667,4.624,4.5518,4.4741,0.0,4.3752,4.306,4.1522,4.1615,4.1023,3.9622,4.1826,4.4058,4.5304,4.601,4.7589,5.0866,5.0218,5.077,5.3176,5.3036,5.2875,5.274,5.3405,5.3288,5.2418,5.0263,4.8435,4.7103,4.5257,4.416,4.3711,4.3711,4.3574,4.332,4.2969,4.2656,4.2441,4.2695,4.3008,4.3418,4.4121,4.4512,4.4629,4.4453,4.4219,4.3848,-2.2912,-2.5763,-2.8067,-2.9678,-3.0323,-3.0769,-3.1259,-3.2745,-3.3881,-3.4132,-3.4969,-3.557,-3.5742,-3.5299,-3.4474,-3.3271,-1.3701,0.3211,1.4159,3.6045,5.2887,6.2535,6.6699,6.9348,7.0648,7.2678,7.3744,7.3757,7.5421,7.588,7.5178,7.6825,7.8348,7.9585,8.0024,8.1445,8.349,8.4339,8.5143,8.576,8.4311,8.058,7.4835,6.5002,5.4878,4.3695,2.7405,2.0865,1.6951,-0.2432,0.2606,1.8049,2.4299,2.977,3.3937,3.3568,3.5536,3.7661,3.723,3.9559,0.0,4.0813,4.2113,4.3835,4.4754,4.4952,4.5227,4.6061,4.5773,4.523,4.5348,4.4075,4.287,4.2078,4.1731,4.0955,3.9507,3.9542,3.9265,3.7901,3.8883,4.0254,4.1855,4.2715,4.4618,4.7919,4.7381,4.8038,5.0608,5.055,5.044,5.0279,5.0721,5.1039,5.1081,4.8939,4.7811,4.7396,4.5597,4.4512,4.4062,4.4062,4.3906,4.3594,4.3359,4.3144,4.2969,4.3047,4.3223,4.3516,4.4141,4.4394,4.4394,4.4394,4.4101,4.3574,-2.5345,-2.7926,-2.9945,-3.071,-3.2505,-3.3815,-3.3729,-3.3767,-3.4154,-3.5037,-3.5193,-3.5522,-3.6373,-3.6437,-3.6298,-3.5909,-1.7555,-0.1484,0.9133,3.1462,4.9263,6.0414,6.5419,6.8865,7.0944,7.415,7.5589,7.5128,7.7813,7.8699,7.7899,7.9604,8.0604,8.11,8.233,8.35,8.4638,8.6112,8.7057,8.7337,8.3997,8.0314,7.5513,6.4334,5.6255,4.8764,3.1576,2.1635,1.6334,1.3794,1.5361,1.8667,2.0081,2.4133,2.8596,3.0467,3.2779,3.5158,3.6725,3.8064,3.9389,4.04,4.0434,4.0691,4.2433,4.18,4.1472,4.3107,4.304,4.2882,4.3399,4.2015,4.1109,4.1892,4.0868,3.9375,3.7732,3.8501,3.8284,3.5849,3.6664,3.791,0.0,4.0859,4.312,4.6016,4.4382,4.4421,4.6909,4.7328,4.758,4.758,5.0074,5.1196,5.059,4.9596,4.8462,4.7417,4.6216,4.541,4.498,4.498,4.498,4.4922,4.4062,4.3926,4.4277,4.3418,4.3574,4.4355,4.4394,4.4394,4.4394,4.4394,4.4101,4.3516,-2.7913,-3.0047,-3.1747,-3.2876,-3.4154,-3.4941,-3.4697,-3.4664,-3.4583,-3.4438,-3.4679,0.0,0.0,0.0,0.0,0.0,-2.015,-0.5012,0.8691,3.1155,4.7929,5.6881,6.3265,6.7372,6.911,7.308,7.5435,7.6122,7.8601,7.9515,7.9023,8.0715,8.1723,8.2131,8.2688,8.3711,8.5073,8.5949,8.5581,8.425,8.2604,7.7393,6.9634,6.0431,5.0333,3.9886,0.0,2.4639,2.0707,1.7066,1.5147,1.4577,1.6866,2.0312,2.4407,2.9307,3.2041,3.3854,3.5495,3.7816,3.9785,4.0327,4.1262,4.2159,4.2809,4.295,4.2839,4.2503,4.1352,4.0425,3.9929,3.8449,3.7625,3.9089,3.9149,3.8686,3.7849,3.9163,3.882,3.541,3.701,0.0,0.0,0.0,0.0,4.402,4.381,4.4001,4.5098,4.5423,4.5503,4.5503,4.5983,4.6557,4.7335,4.6703,4.6385,4.6385,4.5576,4.5176,4.5019,4.3423,4.3272,4.4421,4.2537,4.2499,4.3906,4.3613,4.3672,4.3945,4.3945,4.3945,4.3906,4.3633,4.3242,4.2793,0.0,-3.1093,-3.2472,-3.386,-3.4843,0.0,0.0,0.0,0.0,0.0,0.0,0.0,0.0,0.0,0.0,0.0,0.0,-1.0566,0.4741,2.4585,4.0415,5.0837,5.8322,6.2753,6.3891,6.7542,7.0304,7.1969,7.4204,7.5585,7.6226,7.8124,7.9208,7.9607,8.0413,8.1636,8.3069,8.3364,8.235,8.0349,7.8476,7.304,6.4851,5.463,4.5633,0.0,2.8332,2.4713,2.3398,1.8651,1.5716,1.4319,1.606,1.8735,2.2143,2.6553,2.9657,3.217,3.3612,3.6604,3.9375,3.9707,4.0615,4.1495,4.1486,4.1433,4.1015,3.9601,3.8408,3.7246,3.6342,3.532,3.5078,3.6934,3.748,3.7556,3.734,3.8823,3.8629,3.541,3.7156,3.832,0.0,0.0,0.0,4.2266,4.293,4.3516,4.4121,4.4316,4.4531,4.4844,4.4414,4.4668,4.5664,4.5547,4.5781,4.6348,4.5762,4.5566,4.553,4.3024,4.292,4.4674,4.2039,4.2085,4.3945,4.3769,4.3711,4.3711,4.3711,4.3711,4.3672,4.3398,4.3027,4.2617,0.0,0.0,-3.2194,0.0,0.0,0.0,0.0,0.0,0.0,0.0,0.0,0.0,0.0,0.0,0.0,0.0,0.0,0.0,-0.2795,1.2502,2.7517,4.2188,5.0794,5.5384,5.5812,5.8444,6.0979,6.3383,6.5394,6.7567,6.9919,7.2307,7.3511,7.3847,7.578,7.7433,7.8723,7.8332,7.7193,7.5258,7.1471,6.6424,5.9801,4.6895,4.1531,3.899,2.4614,2.1473,2.351,1.9113,1.7561,1.7349,1.7206,1.9155,2.155,2.2394,2.5928,2.9959,3.1258,3.4703,3.7981,3.8594,3.8965,3.9082,3.8633,3.7519,3.6191,3.4883,3.4238,3.3652,0.0,0.0,3.3437,3.5664,3.5899,3.594,3.6098,3.7427,3.7625,0.0,0.0,0.0,0.0,0.0,0.0,4.0977,0.0,4.2851,4.3691,4.4199,4.4824,4.5625,4.5254,4.5273,4.5703,4.6152,4.6758,4.7539,4.6719,4.6523,4.652,4.3893,4.3681,4.526,4.2536,4.2493,4.4355,4.3887,4.3711,4.373,4.3711,4.3711,4.3711,4.3711,4.3418,4.293,0.0,0.0,0.0,0.0,0.0,0.0,0.0,0.0,0.0,0.0,0.0,0.0,0.0,0.0,0.0,0.0,0.0,0.0,-1.0935,0.7639,2.2024,3.0958,4.3403,5.0241,5.054,5.4027,5.6856,5.8939,6.2028,6.412,6.5283,6.8203,6.9351,6.8995,7.1146,7.2276,7.2481,6.9657,6.6555,6.3185,5.9582,4.8631,3.4416,3.3598,2.4498,1.239,1.4327,1.3634,1.2395,1.6265,1.7561,1.7279,1.6774,1.7705,1.9568,2.3232,2.5635,2.8219,3.2949,3.5649,3.7518,3.9988,3.9844,3.9004,3.8262,3.6601,3.4824,3.3555,3.2441,3.1641,0.0,0.0,0.0,3.5508,3.4853,0.0,3.5032,3.5446,0.0,3.2157,0.0,3.5052,3.4967,3.7417,0.0,0.0,4.1876,4.3633,4.4199,4.4941,4.5293,4.5195,4.5391,4.5703,4.6133,4.6875,4.7207,4.709,4.6875,4.5737,4.3696,4.2854,4.2615,4.2499,4.1695,4.2493,4.4355,4.3887,4.3906,4.418,4.3848,4.3711,4.3711,4.3711,4.3242,4.2558,0.0,0.0,0.0,0.0,0.0,0.0,0.0,0.0,0.0,0.0,0.0,0.0,0.0,0.0,0.0,0.0,0.0,0.0,0.0,-0.0806,1.2579,2.1277,3.5116,4.2752,4.309,4.611,4.9076,5.1802,5.4641,5.7186,5.9507,6.1899,6.2852,6.2656,6.4492,6.5098,6.4721,6.3774,5.6796,0.0,0.0,3.0821,1.7181,1.7387,1.1265,0.3025,0.6306,0.88,1.1441,1.6796,1.8576,1.8501,1.8788,1.95,2.0707,2.379,2.612,2.8496,3.3143,3.5704,3.7787,4.0318,3.9295,3.7359,3.6523,3.3853,3.1121,2.991,2.9468,2.9297,2.9126,2.9565,0.0,0.0,0.0,0.0,3.4986,3.4702,3.3969,0.0,3.3932,0.0,3.4736,3.6744,3.8572,0.0,4.261,4.4394,4.4668,4.5488,4.5918,4.5859,4.6094,4.6523,4.7129,4.7441,4.7539,4.748,4.7109,4.6068,4.4361,4.3248,4.2736,4.2888,0.0,4.2382,4.4082,4.4043,4.416,4.4375,4.4101,4.4004,4.3984,4.3789,4.3398,4.293,0.0,0.0,0.0,0.0,0.0,0.0,0.0,0.0,0.0,0.0,-3.618,-3.6024,0.0,0.0,0.0,0.0,0.0,0.0,0.0,0.0,0.2507,1.3516,2.7287,3.4818,3.5104,3.7042,3.9799,4.3331,4.5302,4.8337,5.2356,5.421,5.4987,5.4843,5.6137,5.5978,5.4787,5.5907,4.5332,2.7452,2.2557,1.4239,0.4456,0.0,0.1159,0.1546,0.1051,0.6629,1.4871,1.8319,1.9814,2.0267,2.1617,2.2498,2.3287,2.4502,2.6885,2.9946,3.2708,3.5678,3.828,3.9759,3.767,3.4956,3.3834,3.0205,2.6834,2.5675,2.6174,2.6703,2.6471,2.7493,2.9546,3.2919,0.0,3.1392,3.4837,3.4142,3.3563,3.4317,3.4751,3.4965,3.5317,3.6178,3.7804,4.0421,4.3242,4.5047,4.5293,4.6035,4.666,4.709,4.709,4.748,4.8281,4.793,4.7871,4.8105,4.7363,4.6775,4.6285,4.4071,4.3671,4.4566,0.0,0.0,4.3984,4.4336,4.4492,4.4473,4.4414,4.4355,4.4258,4.3848,4.3672,4.3516,0.0,0.0,0.0,0.0,0.0,0.0,0.0,0.0,0.0,0.0,-3.7182,-3.6975,0.0,0.0,0.0,0.0,0.0,0.0,0.0,0.0,0.0,0.9945,2.3264,3.0546,3.0589,3.1564,3.3264,3.58,3.7801,3.9882,4.2066,4.6214,4.6735,4.4309,4.5405,4.3523,3.907,3.2411,2.4811,1.6765,1.202,0.2169,-0.912,-0.3952,0.0,0.0,0.1904,0.8231,1.2179,1.6811,1.9623,2.1376,2.2111,2.31,2.4249,2.5665,2.7707,3.0236,3.3529,3.6126,3.7891,3.7631,3.5889,3.34,3.0789,2.747,0.0,2.4977,2.4461,2.4072,2.4721,2.5303,2.6594,2.9744,0.0,0.0,0.0,0.0,2.9926,0.0,0.0,0.0,0.0,0.0,0.0,0.0,0.0,4.5106,4.6464,4.709,4.7558,4.7969,4.7988,4.8223,4.873,4.8672,4.832,4.7695,4.7539,4.598,4.3463,4.4864,4.4561,4.2656,4.4299,0.0,4.5312,4.5039,4.4922,4.4883,4.4531,4.416,4.3808,4.373,4.3476,4.3125,0.0,0.0,0.0,0.0,0.0,0.0,0.0,-3.5676,-3.6189,-3.7823,-3.8112,-3.7981,-3.7552,-3.6797,-3.6506,0.0,0.0,0.0,0.0,0.0,0.0,0.8043,1.9081,2.5663,2.6887,2.6839,2.7681,2.951,0.0,3.0981,3.3012,3.4318,3.4252,3.3047,3.3545,3.1368,2.6943,2.0422,1.1589,0.155,-0.3517,-1.1068,-1.8701,-1.3017,0.0,0.0,0.0357,0.6215,1.0669,1.4499,1.703,1.9265,2.248,2.4289,2.5371,2.668,2.785,2.9427,3.3613,3.4651,3.4953,3.6439,3.3576,2.9926,2.8355,0.0,0.0,2.2349,2.2375,2.2511,2.3241,2.4039,0.0,2.7994,2.6659,0.0,0.0,0.0,0.0,0.0,0.0,0.0,0.0,0.0,0.0,0.0,0.0,4.3421,4.5069,4.6915,4.8105,4.8535,4.8535,4.8652,4.8867,4.8867,4.8535,4.791,4.7676,4.6671,4.4951,4.584,4.5337,4.4046,4.5126,0.0,4.5332,4.5351,4.5371,4.5351,4.5137,4.4785,4.4355,4.4141,4.3789,4.3464,0.0,0.0,0.0,0.0,0.0,0.0,-3.538,-3.5493,-3.597,-3.7672,-3.8564,-3.8652,-3.7513,-3.7378,-3.7538,0.0,0.0,0.0,0.0,0.0,0.0,0.0,0.0,0.0,0.0,0.0,0.0,0.0,2.2709,0.0,0.0,0.0,0.0,0.0,2.2656,2.0326,1.6168,1.145,0.1818,0.0,0.0,-1.9711,0.0,0.0,0.0,0.0,0.0,0.29,0.791,1.0785,1.3252,1.5819,2.0907,2.3676,2.54,2.6759,2.773,2.9128,3.2912,3.3022,3.2702,3.4862,3.117,2.677,2.6156,2.2441,1.9439,2.0013,2.0634,2.1218,2.1583,2.2598,2.4093,0.0,2.4741,2.4713,0.0,0.0,0.0,0.0,0.0,0.0,0.0,0.0,0.0,0.0,0.0,0.0,4.4654,4.703,4.8496,4.8848,4.8867,4.8867,4.8867,4.8867,4.8594,4.8066,4.7734,4.7305,4.6777,4.6445,4.6074,4.5683,4.5683,0.0,0.0,4.5391,4.5488,4.541,4.541,4.5137,4.4687,4.4277,4.4198,4.4236,0.0,0.0,0.0,0.0,0.0,0.0,-3.4429,-3.3937,-3.413,-3.6304,-3.8154,-3.8425,-3.6201,-3.7618,-3.8041,0.0,0.0,0.0,0.0,0.0,0.0,0.0,0.0,0.0,0.0,0.0,0.0,0.0,0.0,0.0,0.0,0.0,0.0,0.0,0.0,0.0,0.553,0.0722,0.0,0.0,0.0,0.0,0.0,0.0,0.0,0.0,0.0,-0.0795,0.1361,0.5163,0.8576,1.1749,1.4707,1.8834,2.3029,2.5045,0.0,0.0,3.1392,3.3022,3.384,3.1693,2.8801,2.6102,2.3804,0.0,1.9132,1.972,1.9703,1.9604,1.9631,1.9965,2.0575,2.1532,2.1991,2.316,2.5918,0.0,0.0,0.0,0.0,0.0,0.0,0.0,0.0,0.0,0.0,0.0,4.8158,4.8769,4.8808,4.8867,4.8867,4.8867,4.8867,4.8867,4.8437,4.7637,4.7598,4.7148,4.6367,4.6328,4.6074,4.5683,4.5683,0.0,0.0,4.5058,4.4863,4.4512,4.4512,4.4238,4.3769,4.3359,4.4261,4.5636,0.0,0.0,0.0,0.0,0.0,0.0,-3.3669,-3.3782,-3.4676,-3.7736,-3.9568,-3.9881,-3.8138,-3.8579,-3.7553,-3.4092,-2.764,0.0,0.0,0.0,0.0,0.0,0.0,0.0,0.0,0.0,1.2407,1.2339,0.9101,0.0,0.0,0.0,0.0,0.0,0.0,0.0,0.0,-0.3376,0.0,0.0,0.0,0.0,0.0,0.0,0.0,0.0,0.0,0.0,0.0337,0.1857,0.4519,0.7669,1.0813,1.3613,1.6737,2.2066,2.5651,2.823,3.0499,3.1076,3.1116,3.0959,2.8046,2.4918,2.3971,0.0,1.9359,1.9933,1.9693,1.9372,1.9372,1.9466,1.9773,2.0468,2.0481,2.1336,2.3995,0.0,0.0,0.0,0.0,0.0,0.0,0.0,0.0,0.0,0.0,0.0,4.6336,4.8069,4.8867,4.8867,4.8867,4.8867,4.8867,4.8867,4.8555,4.7949,4.7695,4.7266,4.666,4.6152,4.584,4.5664,4.5391,0.0,0.0,4.5019,4.4922,4.4766,4.4766,4.4336,4.3837,4.4947,4.5463,4.5827,0.0,0.0,0.0,0.0,0.0,-3.145,-3.4051,-3.4749,-3.5926,-3.8616,-4.0467,-4.0722,-3.8706,-3.7421,-3.4679,-2.9701,-2.2734,0.0,0.0,0.0,0.0,0.0,0.0,0.0,0.0,0.0,0.8837,0.8183,0.4439,0.0221,0.0,0.0,0.0,0.0,0.0,0.0,0.0,0.0,0.0,0.0,0.0,0.0,0.0,0.0,0.0,0.0,0.0,0.0,0.0,0.0,0.0,0.3845,0.6687,0.9218,1.2405,1.929,2.3191,2.57,2.8759,2.9007,2.8744,3.015,2.6818,2.3484,2.3931,0.0,1.8998,1.9893,1.9773,1.9466,1.9386,1.9439,1.9626,2.004,1.9907,2.0561,2.2859,2.3474,0.0,0.0,0.0,0.0,0.0,0.0,0.0,0.0,0.0,0.0,0.0,4.7493,4.8867,4.8867,4.8867,4.8867,4.8867,4.873,4.8457,4.8027,4.7598,4.709,4.6543,4.5937,4.5547,4.5273,0.0,0.0,0.0,4.4453,4.4375,4.4258,4.4258,4.4198,4.4421,4.5685,4.6443,4.7333,0.0,0.0,0.0,0.0,0.0,-3.4337,-3.599,-3.697,-3.765,-3.8141,-4.0303,-4.0391,-3.6719,-3.329,-2.8829,-2.2733,-1.7619,0.0,0.0,0.0,0.0,0.0,0.0,0.0,1.2154,0.8467,0.7203,0.8633,0.5881,0.2086,-0.2506,-0.4193,-0.5855,0.0,0.0,0.0,0.0,0.0,0.0,0.0,0.0,0.0,0.0,0.0,0.0,0.0,0.0,0.0,0.0,0.0,0.0,0.0,0.0,0.6123,1.1561,1.7499,2.1006,2.3438,2.5754,2.7255,2.815,2.8305,2.4659,2.1726,2.3483,2.0379,1.7721,1.943,1.98,1.9706,1.9426,1.9599,1.98,1.98,2.0281,2.1176,2.2659,2.3875,0.0,0.0,0.0,0.0,0.0,0.0,0.0,0.0,0.0,0.0,0.0,4.7493,4.8867,4.8867,4.8867,4.8867,4.8867,4.8437,4.8008,4.7578,4.7148,4.6504,4.5683,4.5683,4.5215,0.0,0.0,0.0,0.0,4.3105,4.2851,4.2461,4.2461,4.3678,4.5305,4.4803,4.7171,5.0507,0.0,0.0,0.0,0.0,0.0,0.0,-3.2783,-3.4739,-3.6705,-3.8682,-4.0279,-3.9788,-3.6118,-3.1268,-2.5074,-1.7213,-1.2529,0.0,0.0,0.0,0.0,0.0,0.0,0.0,0.7916,0.6243,0.5966,0.7413,0.5594,0.2377,-0.2363,-0.5258,-0.7986,-1.0681,-0.8682,0.0,0.0,0.0,0.0,0.0,0.0,0.0,0.0,0.0,0.0,0.0,0.0,0.0,0.0,0.0,0.0,0.0,0.0,0.0,0.0,1.1545,1.606,1.9904,2.2396,2.2793,2.3162,2.557,2.2594,1.9787,2.2623,2.0379,1.8261,2.0021,2.0241,2.0067,1.9973,2.004,2.0227,2.0628,2.1015,2.151,0.0,0.0,0.0,0.0,0.0,0.0,0.0,0.0,0.0,0.0,0.0,0.0,0.0,4.7493,4.8867,4.8867,4.8867,4.8867,4.8867,4.8418,4.7988,4.7578,4.7129,4.6484,4.5664,4.5371,0.0,0.0,0.0,0.0,0.0,4.2754,4.2558,4.2582,4.3974,4.4691,4.5285,4.7813,4.9328,5.0342,0.0,0.0,0.0,0.0,0.0,0.0,-3.1274,-3.371,-3.5992,-3.7878,-3.8362,-3.7099,-3.3411,-2.6689,-1.9465,-1.187,-0.6056,0.0,0.0,0.0,0.0,0.0,0.0,0.0,0.4575,0.479,0.5941,0.8154,0.8079,0.5536,0.0614,-0.1895,-0.6145,-1.1553,-0.9896,-1.0287,0.0,0.0,0.0,0.0,0.0,0.0,-1.3739,0.0,0.0,0.0,0.0,0.0,0.0,0.0,0.0,0.0,0.0,0.0,0.0,0.0,1.2193,1.58,1.9239,1.9955,2.0157,2.2452,2.0466,1.8682,2.1346,2.0059,1.8758,2.0322,2.0535,2.0361,2.0254,2.0321,2.0521,2.0882,2.1683,2.2365,0.0,0.0,0.0,0.0,0.0,0.0,0.0,0.0,0.0,0.0,0.0,0.0,0.0,4.8069,4.8789,4.8613,4.8769,4.8769,4.8613,4.8183,4.7754,4.7324,4.6738,4.6094,4.541,4.498,0.0,0.0,0.0,0.0,0.0,4.2363,4.2546,4.3154,4.436,4.5684,4.7032,4.9404,5.0674,5.1303,0.0,0.0,0.0,0.0,0.0,0.0,0.0,-3.3245,-3.5084,-3.5605,-3.4697,-3.2508,-2.8651,-2.0191,-1.2503,-0.6776,0.1148,0.0,0.0,0.0,0.0,0.0,0.0,0.3038,0.2108,0.3843,0.6614,1.0215,1.2135,1.0538,0.5551,0.4105,-0.1456,-1.0122,-0.8548,-1.0904,-1.5836,-1.6245,-1.6245,-1.5873,-1.5235,-1.4827,0.0,0.0,0.0,0.0,0.0,0.0,0.0,0.0,0.0,0.0,0.0,0.0,0.0,0.0,0.0,0.0,0.0,1.8022,1.8808,1.9255,1.831,1.7962,1.9933,1.9326,0.0,2.0375,2.0708,2.0628,2.0469,2.0644,2.0832,2.1094,2.2587,0.0,0.0,0.0,0.0,0.0,0.0,0.0,0.0,0.0,0.0,0.0,0.0,0.0,0.0,4.8867,4.8652,4.8223,4.8594,4.8613,4.8164,4.7715,4.7285,4.6875,4.6035,4.5391,4.4922,4.4531,0.0,0.0,0.0,0.0,0.0,4.1933,4.2712,4.4096,4.4226,4.6588,4.9961,5.0127,5.1303,5.2929,0.0,0.0,0.0,0.0,0.0,0.0,0.0,0.0,0.0,0.0,-2.9052,-2.6648,-2.2803,-1.5097,-0.8167,0.0,0.0,0.0,0.0,0.0,0.0,0.0,0.1808,-0.0309,0.0528,0.1316,0.3882,0.8135,1.0127,0.9739,0.6879,0.2748,-0.1937,-0.6885,-1.1711,-1.5539,-1.8395,-1.7776,-1.6867,-1.5861,-1.5176,-1.372,0.0,0.0,0.0,0.0,-1.1021,-0.9593,0.0,0.0,0.0,0.0,0.0,0.0,0.0,0.0,0.9209,1.1212,1.3652,0.0,1.3495,1.761,1.6388,1.5361,0.0,1.9604,1.9012,2.0637,2.1002,2.1352,2.2624,2.1811,2.1937,2.4626,0.0,0.0,0.0,0.0,0.0,0.0,0.0,0.0,0.0,0.0,0.0,0.0,0.0,0.0,0.0,4.8867,4.8652,4.8223,4.8301,4.8144,4.7734,4.6973,4.6543,4.6445,4.5586,4.4766,4.4004,4.3906,0.0,0.0,0.0,0.0,4.1914,4.1484,4.243,4.4247,4.5701,4.7781,5.0127,5.1607,5.2491,5.2929,0.0,0.0,0.0,0.0,0.0,0.0,0.0,0.0,0.0,0.0,-2.3128,-2.0106,-1.5931,-0.9428,-0.3366,0.0,0.0,0.0,0.0,0.0,0.0,0.2265,-0.1212,-0.2693,-0.1905,0.0551,0.415,0.908,1.1791,1.2173,1.0477,0.5972,0.0692,-0.5341,-1.2967,-1.6994,-1.797,-1.7237,-1.6139,-1.4614,-1.3571,0.0,0.0,0.0,0.0,0.0,-1.0229,-0.9149,0.0,-0.4545,-0.2059,0.0524,0.0,0.0,0.0,0.0,1.1059,1.2219,1.3976,1.3699,1.3682,1.6498,1.6371,1.6274,1.9255,1.9801,2.0182,2.1839,2.2215,2.2702,2.4409,2.3915,0.0,0.0,0.0,0.0,0.0,0.0,0.0,0.0,0.0,0.0,0.0,0.0,0.0,0.0,0.0,0.0,0.0,4.8867,4.8574,4.7949,4.793,4.7715,4.7285,4.6641,4.6211,4.5996,4.4922,4.416,4.3691,4.3301,4.2871,0.0,0.0,0.0,4.1758,4.1348,4.2943,4.5574,4.6588,4.8794,5.1443,5.2491,5.2929,5.2929,0.0,0.0,0.0,0.0,0.0,0.0,0.0,0.0,0.0,0.0,0.0,0.0,0.0,0.0,0.0,0.0,0.0,0.0,0.0,0.0,-0.2551,-0.2961,-0.3947,-0.4261,-0.363,0.0992,0.5912,1.0919,1.4463,1.5376,1.3587,1.0144,0.3314,-0.6191,-1.34,-1.6472,-1.6275,-1.5759,-1.4527,-1.2842,-1.1354,0.0,0.0,0.0,0.0,0.0,0.0,0.0,0.0,-0.3452,-0.1035,0.1308,0.4386,0.0,0.0,0.0,0.0,0.0,1.5798,1.6712,1.7141,1.64,1.7418,1.8581,1.8884,2.0182,2.1853,2.3325,0.0,2.4409,2.6106,2.6361,0.0,0.0,0.0,0.0,0.0,0.0,0.0,0.0,0.0,0.0,0.0,0.0,0.0,0.0,0.0,0.0,0.0,4.8789,4.8398,4.7598,4.7461,4.7168,4.6738,4.6308,4.5898,4.5469,4.4199,4.3574,4.3476,4.2695,4.2285,0.0,0.0,0.0,4.168,4.1328,4.3532,4.7029,4.7029,4.9391,5.2929,5.2929,5.2929,5.2929,0.0,0.0,0.0,0.0,0.0,0.0,0.0,0.0,0.0,0.0,0.0,0.0,0.0,0.0,0.0,0.0,0.0,0.0,0.0,-0.2587,-0.4682,-0.7006,-0.63,-0.4613,-0.1763,0.2569,0.6681,1.0656,1.4716,1.4991,1.1681,0.8378,0.0291,-1.1632,-1.3806,-1.5344,-1.6151,-1.4473,-1.2861,-1.1337,-1.0062,0.0,0.0,0.0,0.0,0.0,0.0,0.0,0.0,-0.2815,0.0386,0.4389,0.5112,0.0,0.0,0.0,0.0,0.0,1.7885,2.0824,2.2722,1.8831,1.8172,1.8746,2.0397,2.1964,2.3325,2.3574,0.0,0.0,0.0,2.7741,0.0,0.0,0.0,0.0,0.0,0.0,0.0,0.0,0.0,0.0,0.0,0.0,0.0,0.0,0.0,0.0,0.0,4.8516,4.8086,4.7598,4.6875,4.6289,4.5879,4.5449,4.5019,4.459,4.3633,4.2969,4.2598,4.2129,4.1699,0.0,0.0,4.1269,4.1269,4.1211,4.3532,4.7029,4.7029,4.9391,5.2929,5.2929,5.2929,5.2929,0.0,0.0,0.0,0.0,0.0,0.0,0.0,0.0,0.0,0.0,0.0,0.0,0.0,0.0,0.0,0.0,0.0,0.0,0.0,-0.4988,-0.6353,-0.6918,-0.6432,-0.4563,-0.1331,0.3217,0.7317,1.096,1.3968,1.414,1.1386,0.4988,-0.2806,-1.1344,-1.2378,-1.3567,-1.4733,-1.2859,-1.1755,-1.1017,0.0,0.0,0.0,0.0,0.0,0.0,0.0,0.0,0.0,0.0,0.1524,0.5086,0.5165,0.0,0.0,0.0,0.0,0.0,1.9123,2.1769,2.3628,2.2173,2.2681,2.3642,2.3983,2.4549,2.5194,2.6371,0.0,0.0,0.0,0.0,0.0,0.0,0.0,0.0,0.0,0.0,0.0,0.0,0.0,0.0,0.0,0.0,0.0,0.0,0.0,0.0,0.0,0.0,4.8008,4.7598,4.6758,4.5996,4.5332,4.5784,4.5343,4.4004,4.291,4.2285,4.207,4.166,4.1348,4.1172,0.0,4.1753,4.279,4.279,4.5127,4.865,4.865,5.041,5.2929,5.2929,5.2929,5.2929,0.0,0.0,0.0,0.0,0.0,0.0,0.0,0.0,0.0,0.0,0.0,0.0,0.0,0.0,0.0,0.0,0.0,0.0,0.0,-0.5892,-0.6597,-0.557,-0.5206,-0.3491,-0.0228,0.4634,0.8752,1.1998,1.4173,1.3367,0.9687,0.1874,-0.4762,-1.0075,-1.1121,-1.2188,-1.3213,-1.1797,-1.0974,-1.0596,0.0,0.0,0.0,0.0,0.0,0.0,0.0,0.0,0.0,0.0,0.0,0.0,0.0,0.0,0.0,1.449,1.5876,1.7033,1.9879,2.1973,2.3777,2.481,2.6199,2.751,2.7544,2.7445,2.7916,2.9852,3.0189,0.0,0.0,0.0,0.0,0.0,0.0,0.0,0.0,0.0,0.0,0.0,0.0,0.0,0.0,0.0,0.0,0.0,0.0,0.0,0.0,0.0,4.8434,4.8295,4.7668,4.7107,4.632,4.6915,4.5975,4.3535,4.328,4.2701,4.1777,4.2396,4.235,4.1907,4.235,4.338,4.4827,4.4699,4.6793,4.9961,4.9818,5.1041,5.2929,5.2929,5.2929,5.2929,0.0,0.0,0.0,0.0,0.0,0.0,0.0,0.0,0.0,0.0,0.0,0.0,0.0,0.0,0.0,0.0,0.0,0.0,-0.3914,-0.4214,-0.4253,-0.4133,-0.2932,-0.0577,0.3218,0.8144,1.1705,1.3956,1.6294,1.2842,0.3976,0.0,-0.4779,-1.0238,-1.1287,-1.182,-1.1862,-1.1431,-1.056,-0.9476,-0.9517,0.0,0.0,0.0,0.0,0.0,0.0,0.0,0.0,0.0,0.0,0.0,0.0,0.0,1.4749,1.5195,1.7491,1.9863,2.0133,2.252,2.498,2.544,2.5836,2.6819,2.9547,3.0758,3.1733,3.3513,3.4652,0.0,0.0,0.0,0.0,0.0,0.0,0.0,0.0,0.0,0.0,0.0,0.0,0.0,0.0,0.0,0.0,0.0,0.0,0.0,0.0,0.0,0.0,5.0005,5.0674,5.0805,5.0136,4.9029,4.6556,4.3105,4.6001,4.5401,4.1935,4.5041,4.5574,4.3945,4.5871,4.6588,4.6713,4.6245,4.7637,4.9914,4.9414,5.0701,5.2929,5.2929,5.2929,5.2929,0.0,0.0,0.0,0.0,0.0,0.0,0.0,0.0,0.0,0.0,0.0,0.0,0.0,0.0,0.0,0.0,0.0,0.0,-0.5118,-0.3717,-0.3173,-0.405,-0.374,-0.1846,0.1725,0.7112,0.9549,0.9143,0.8765,0.5745,0.0,-0.2436,-0.5957,-1.0207,-1.0251,-1.0353,-1.0293,-1.0226,-0.9896,-0.9395,-0.9551,-0.8039,0.0,0.0,0.0,0.0,0.0,0.0,0.0,0.0,0.2216,0.492,0.4947,0.815,1.2214,1.4217,1.5696,1.7183,1.9309,2.2011,2.4561,2.6339,2.7787,2.9771,3.3163,3.3913,3.4545,3.6876,3.7653,0.0,0.0,0.0,0.0,0.0,0.0,0.0,0.0,0.0,0.0,0.0,0.0,0.0,0.0,0.0,0.0,0.0,0.0,0.0,0.0,0.0,0.0,4.9697,5.0458,5.059,5.0098,4.9857,4.8449,4.5911,4.6911,4.6431,4.5105,4.6381,4.6588,4.5998,4.6735,4.7432,4.8283,4.8097,4.9105,5.0763,5.0886,5.1718,5.2929,5.2929,5.2929,5.2929,0.0,0.0,0.0,0.0,0.0,0.0,0.0,0.0,0.0,0.0,0.0,0.0,0.0,0.0,0.0,0.0,0.0,0.0,-0.5218,-0.3218,-0.2673,-0.4095,-0.4306,-0.3337,-0.1101,0.3318,0.5824,0.6148,0.4172,0.139,-0.2401,-0.348,-0.5965,-0.9607,-0.8933,-0.9097,-0.9659,-0.9557,-0.9551,-0.9598,-0.9652,-0.7736,0.0,0.0,0.0,0.0,0.0,0.0,0.0,0.0,0.2585,0.5039,0.5529,0.8332,1.1736,1.4004,1.5322,1.6644,1.8894,2.135,2.3871,2.6414,2.8898,3.187,3.6572,3.7324,3.7812,4.0664,4.0488,3.9824,3.9824,0.0,0.0,0.0,0.0,0.0,0.0,0.0,0.0,0.0,0.0,0.0,0.0,0.0,0.0,0.0,0.0,0.0,0.0,0.0,0.0,0.0,5.156,5.1884,5.1373,5.151,5.0795,4.9328,4.898,4.8217,4.7029,4.8361,4.8506,4.7904,4.7744,4.8329,4.9129,4.8796,4.9607,5.1071,5.1825,5.2327,5.2678,5.2854,5.2929,5.2929,0.0,0.0,0.0,0.0,0.0,0.0,0.0,0.0,-0.1385,-0.0185,-0.2065,0.0,0.0,0.0,0.0,0.0,0.0,0.0,-0.4017,-0.2714,-0.266,-0.413,-0.417,-0.4377,-0.4784,-0.2796,0.0838,0.626,0.4147,0.1043,-0.3047,-0.2478,-0.442,-0.8275,-0.7441,-0.8245,-1.0256,-0.9951,-0.991,-1.0032,-0.9883,-0.7856,-0.4916,0.0,0.0,0.0,0.0,0.0,0.0,0.0,0.3566,0.5161,0.6869,1.074,1.4609,1.4599,1.6868,1.9305,1.9011,2.0829,2.3273,2.5492,2.8606,3.2777,3.9678,4.084,4.1523,4.498,4.3301,4.1211,4.1211,0.0,0.0,0.0,0.0,0.0,0.0,0.0,0.0,0.0,0.0,0.0,0.0,0.0,0.0,0.0,0.0,0.0,0.0,0.0,0.0,0.0,5.4869,5.5114,5.4561,5.3984,5.3432,5.2929,5.2929,5.0857,4.7175,5.1163,5.1886,4.9937,4.9555,4.9316,4.9245,4.8171,4.8731,5.0519,5.1649,5.2101,5.2176,5.2729,5.2929,5.2929,0.0,0.0,0.0,0.0,0.0,0.0,0.0,0.0,-0.037,-0.0092,-0.1392,0.0,0.0,0.0,0.0,0.0,0.0,0.0,-0.5318,-0.4117,-0.4085,-0.5716,-0.5962,-0.6594,-0.7899,-0.6215,-0.3402,0.0574,-0.0578,-0.2125,-0.433,-0.2873,-0.3591,-0.6141,-0.6911,-0.7722,-0.8335,-0.9471,-1.0005,-1.0032,-0.9883,-0.7905,-0.4984,0.0,0.0,0.0,0.0,0.0,0.0,0.0,0.0,0.0,0.724,1.01,1.335,1.4291,1.6384,1.8791,2.0727,2.2171,0.0,2.8602,0.0,0.0,4.0608,4.1719,4.248,4.625,4.5586,4.416,4.3555,0.0,0.0,0.0,0.0,0.0,0.0,0.0,0.0,0.0,0.0,0.0,0.0,0.0,0.0,0.0,0.0,0.0,0.0,0.0,0.0,0.0,5.4104,5.4536,5.3959,5.3432,5.308,5.2929,5.2929,5.2327,5.1163,5.2327,5.2629,5.2,5.1457,5.0279,4.8648,4.7108,4.7232,4.8622,5.0215,5.1398,5.2176,5.2729,5.2929,5.2929,0.0,0.0,0.0,0.0,0.0,0.0,0.0,0.0,0.0,0.0,-0.1929,-0.2989,0.0,0.0,0.0,0.0,0.0,0.0,-0.6708,-0.5518,-0.5814,-0.7922,-0.7599,-0.806,-0.9401,-0.8503,-0.7027,-0.4799,-0.3873,-0.3808,-0.469,-0.3677,-0.4336,-0.6447,-0.7432,-0.8194,-0.8852,-0.9849,-0.9777,-0.9032,-0.8946,-0.6946,-0.4111,0.0,0.0,0.0,0.0,0.0,0.0,0.0,0.0,0.0,0.7972,1.0701,1.3565,1.4401,1.6667,1.9349,2.1494,2.3442,0.0,3.0391,3.3595,3.7142,4.2411,0.0,0.0,0.0,0.0,4.5762,0.0,0.0,0.0,0.0,0.0,0.0,0.0,0.0,0.0,0.0,0.0,0.0,0.0,0.0,0.0,0.0,0.0,0.0,0.0,0.0,0.0,0.0,5.3452,5.3758,5.3406,5.308,5.2929,5.2929,5.2929,5.2804,5.2603,5.2603,5.2603,5.2391,5.0098,4.769,4.5301,4.4074,4.492,4.6992,4.8533,5.0066,5.1523,5.2327,5.2729,5.2929,0.0,0.0,-0.5928,-0.3653,0.0,0.0,0.0,0.0,0.0179,0.018,-0.3015,-0.4378,0.0,0.0,0.0,0.0,0.0,0.0,0.0,-0.7111,-0.7743,-1.0526,-0.9572,-0.9201,-0.9787,-0.9937,-0.9847,-0.9293,-0.5802,-0.4187,-0.4429,-0.4627,-0.5835,-0.7877,-0.8229,-0.9228,-1.0598,-1.0313,-0.9264,-0.7531,-0.7266,-0.535,-0.2471,-0.2503,0.0,0.0,0.0,0.0,0.0,0.0,0.0,0.0,0.8836,1.1985,1.4629,1.4609,1.7436,2.0928,2.1911,2.4892,2.8491,3.1783,3.594,0.0,4.4785,4.7324,4.8867,4.9316,0.0,0.0,0.0,0.0,0.0,0.0,0.0,0.0,0.0,0.0,0.0,0.0,0.0,0.0,0.0,0.0,0.0,0.0,0.0,0.0,0.0,0.0,0.0,5.3493,5.3181,5.2929,5.2929,5.2929,5.2929,0.0,5.2879,5.2578,5.2101,5.2101,5.2026,5.164,4.6627,4.3095,4.0827,4.0383,4.206,4.509,4.6323,4.8148,5.0181,5.1548,5.2327,5.2854,0.0,0.0,-0.2348,-0.0976,0.0,0.0,0.0,0.0,0.0,0.1376,-0.0933,0.0,0.0,0.0,0.0,0.0,0.0,0.0,0.0,-1.0271,-1.1042,-1.2064,-1.2516,-1.2226,-1.0932,-1.098,-1.0303,-0.8728,-0.5989,-0.4511,-0.4287,-0.3482,-0.3494,-0.4153,-0.6731,-0.8181,-0.8452,-0.8298,-0.7953,-0.7521,-0.6077,-0.4345,-0.2626,-0.2483,-0.1484,0.0,0.0,0.0,0.0,0.0,0.0,0.0,0.9207,1.2189,1.4821,1.465,1.8096,2.2538,2.4849,2.7263,0.0,0.0,4.0238,4.416,4.6191,4.7285,4.7969,0.0,0.0,0.0,0.0,0.0,0.0,0.0,0.0,0.0,0.0,0.0,0.0,0.0,0.0,0.0,0.0,0.0,0.0,0.0,0.0,0.0,0.0,0.0,0.0,5.2942,5.298,5.2929,5.2929,5.2929,5.2929,0.0,5.2477,5.2226,5.2101,5.2101,5.1373,4.9987,4.7388,4.4658,4.2215,4.1596,4.1374,4.159,4.458,4.6573,4.804,4.9967,5.1423,5.2387,0.0,0.0,0.0,0.0,0.0,0.0,0.0,0.0,0.0,0.0,0.0,0.0,0.0,0.0,0.0,0.0,-0.7359,-1.0006,-1.2576,-1.3324,-1.3344,-1.2537,-1.2478,-1.174,-1.0139,-1.0046,-0.9183,-0.7504,-0.5478,-0.4419,-0.4309,-0.3953,-0.3899,-0.4202,-0.6831,-0.7882,-0.7847,-0.7684,-0.7176,-0.6213,-0.4475,-0.2862,-0.1371,-0.1371,-0.0745,0.0,0.0,0.0,0.0,0.0,0.0,0.0,0.0,0.0,1.3788,1.4401,1.7503,2.1423,2.4854,0.0,0.0,3.8097,0.0,4.5058,4.6348,4.6953,4.7383,0.0,0.0,0.0,0.0,0.0,0.0,0.0,0.0,0.0,0.0,0.0,0.0,0.0,0.0,0.0,0.0,0.0,0.0,0.0,0.0,0.0,0.0,4.8064,4.9819,5.2792,5.2929,5.2929,5.2929,5.2678,5.2528,5.2528,5.1975,5.1423,5.0896,5.0896,4.9725,4.7433,4.6237,4.4356,4.2102,4.0848,4.0409,4.0802,4.2058,4.4048,4.6442,4.8182,4.9859,5.1506,0.0,0.0,0.0,0.0,0.0,0.0,0.0,0.0,0.0,0.0,0.0,0.0,0.0,0.0,-0.4802,0.0,0.0,0.0,-1.5523,0.0,0.0,-1.3105,-1.2115,-1.0874,-0.9455,-0.9319,-0.8315,-0.6313,-0.4759,-0.3645,-0.3095,-0.4018,-0.4628,-0.4983,-0.6851,-0.7762,-0.769,-0.7093,-0.6148,-0.4658,-0.2868,-0.1122,0.0371,0.0376,0.0374,0.037,0.037,0.1358,0.2718,0.4306,0.0,0.0,0.0,0.0,1.2449,1.3765,1.6309,1.9621,2.3721,0.0,3.3329,3.991,4.2891,0.0,4.5703,4.625,0.0,0.0,0.0,0.0,0.0,0.0,0.0,0.0,0.0,0.0,0.0,0.0,0.0,0.0,0.0,0.0,0.0,0.0,0.0,0.0,0.0,0.0,4.677,4.8798,5.0712,5.2641,5.2703,5.2628,5.2628,5.2176,5.1975,5.195,5.1297,5.0343,4.9163,4.9163,4.7873,4.5542,4.5237,4.3961,4.2001,4.0171,4.0192,4.1209,4.0102,4.1859,4.5113,4.6228,4.805,4.9999,0.0,0.0,0.0,0.0,0.0,0.0,0.0,0.0,0.0,0.0,0.0596,-0.0201,0.0,-0.3399,-0.5782,-0.5976,-1.1424,-1.5132,-1.5631,0.0,0.0,-1.577,-1.4803,-1.3604,-1.2096,-1.1917,-0.9999,-0.6198,-0.4598,-0.1564,0.2396,-0.1242,-0.3077,-0.3277,-0.4809,-0.6292,-0.7473,-0.4508,-0.3796,-0.4463,-0.1474,0.0618,0.2218,0.2222,0.2221,0.2218,0.2218,0.2358,0.2878,0.4444,0.6073,0.0,0.0,0.0,1.2217,1.2457,1.5708,1.9809,2.284,0.0,3.7042,0.0,4.1992,4.3496,0.0,0.0,0.0,0.0,0.0,0.0,0.0,0.0,0.0,0.0,0.0,0.0,0.0,0.0,0.0,0.0,0.0,0.0,0.0,0.0,0.0,0.0,0.0,0.0,4.6424,4.8262,5.0156,5.2065,5.1749,5.1498,5.1498,5.1423,5.1398,5.1373,5.0318,4.8987,4.7456,4.7456,4.7257,4.6835,4.6786,4.555,4.3428,4.3107,4.2581,4.1786,4.1169,4.1831,4.3408,4.5031,4.6371,4.8015,0.0,0.0,0.0,0.0,0.0,0.0,0.0,0.0,0.0,0.0,0.0,-0.1109,-0.1109,-0.4,-0.6854,-0.9073,-1.3791,-1.7642,-1.9703,-1.9887,-1.9098,-1.7175,-1.5921,-1.4424,-1.2464,-1.2254,-1.0088,-0.6129,-0.446,-0.1238,0.3472,0.2469,0.2313,0.2478,-0.0423,-0.2056,-0.2809,-0.2547,-0.2843,-0.3167,0.0123,0.1857,0.2738,0.3579,0.3833,0.3984,0.3984,0.4624,0.5526,0.6294,0.7546,0.9032,0.9718,0.0,0.0,0.0,1.3618,1.6686,2.3018,2.9319,3.4945,0.0,4.0742,4.2014,4.4704,0.0,0.0,0.0,0.0,0.0,0.0,0.0,0.0,0.0,0.0,0.0,0.0,0.0,0.0,0.0,0.0,0.0,0.0,0.0,0.0,0.0,0.0,4.5046,4.5908,4.8748,5.0765,5.1649,5.1096,5.0946,5.1272,5.0343,4.9715,4.9389,4.8586,4.7682,4.6677,4.6677,4.6677,4.6677,4.6677,4.6138,4.5135,4.4103,4.3349,4.2881,4.1655,4.207,4.3252,4.3424,4.5195,4.7691,0.0,0.0,0.0,0.0,0.0,0.0,0.0,0.0,0.0,0.0,0.0,-0.2613,-0.301,0.0,0.0,0.0,-1.6058,-1.976,-2.2862,-2.1943,-2.0473,-1.8754,-1.7059,-1.5369,-1.3641,-1.3258,-1.1021,-0.7059,-0.518,-0.1596,0.3696,0.5719,0.7412,0.8373,0.3761,0.1442,0.0694,-0.0659,-0.1407,-0.1516,0.1874,0.3506,0.4167,0.5265,0.5773,0.5812,0.5831,0.6598,0.7749,0.7811,0.8793,1.01,1.0059,0.9944,0.0,0.0,0.0,1.5052,0.0,0.0,3.193,3.6513,3.8955,4.1022,0.0,0.0,0.0,0.0,0.0,0.0,0.0,0.0,0.0,0.0,0.0,0.0,0.0,0.0,0.0,0.0,0.0,0.0,0.0,0.0,0.0,0.0,0.0,4.5733,4.5733,4.8816,5.0645,5.0645,5.0092,4.9992,5.0419,4.9188,4.8209,4.7506,4.7255,4.6702,4.5899,4.6175,4.615,4.5899,4.6175,4.6301,4.618,4.489,4.4446,4.4419,4.25,4.2397,4.3191,4.2282,4.3576,4.5766,0.0,0.0,0.0,0.0,0.0,0.0,0.0,0.0,0.0,0.0,0.0,-0.441,-0.5683,-0.917,-1.2055,-1.3495,-1.8224,-2.1658,-2.3038,-2.1943,-2.1212,-2.1141,-1.8856,0.0,-1.7419,-1.6484,-1.4033,-1.003,-0.7287,-0.2356,0.4653,0.7649,1.0539,1.32,0.6508,0.2369,0.0557,0.1922,0.1635,0.0542,0.3906,0.6153,0.7576,0.7801,0.7775,0.7704,0.7806,0.7847,0.7961,0.7863,0.8857,1.0243,1.0093,0.9944,0.9822,0.0,0.0,0.0,0.0,2.5237,0.0,3.1396,3.6226,0.0,0.0,0.0,0.0,0.0,0.0,0.0,0.0,0.0,0.0,0.0,0.0,0.0,0.0,0.0,0.0,0.0,0.0,0.0,0.0,0.0,0.0,0.0,0.0,4.5917,4.5917,4.7813,4.8912,4.8912,4.8335,4.8058,4.8083,4.7983,4.7431,4.6401,4.6903,4.6276,4.4744,4.5824,4.5723,4.4769,4.5849,4.6301,4.6301,4.618,4.6481,4.6661,4.4443,4.3008,4.2136,4.2028,4.1133,4.0308,0.0,0.0,0.0,0.0,0.0,0.0,0.0,0.0,0.0,0.0,0.0,0.0,0.0,-1.1211,-1.3874,-1.5978,-1.929,-2.148,-2.1943,-2.0854,-2.0116,-2.0116,-1.9314,-1.8856,-1.8856,-1.8832,-1.6346,-1.1334,-0.8749,-0.3522,0.406,0.7291,0.9995,1.2112,0.8898,0.7089,0.6272,0.4934,0.4108,0.3798,0.6006,0.7292,0.8044,0.8878,0.9311,0.9497,0.946,0.9497,0.9577,0.9621,0.9916,1.027,1.0215,1.0025,0.9822,0.9822,1.2431,1.5913,1.8114,0.0,0.0,3.005,3.2992,0.0,0.0,0.0,0.0,0.0,0.0,0.0,0.0,0.0,0.0,0.0,0.0,0.0,0.0,0.0,0.0,0.0,0.0,0.0,0.0,0.0,0.0,0.0,0.0,0.0,4.5432,4.7301,4.8209,4.8209,4.7355,4.6527,4.5799,4.6527,4.6326,4.5221,4.5422,4.502,4.4116,4.4895,4.4819,4.4141,4.4895,4.5447,4.5799,4.6175,4.6426,4.6456,4.4446,4.3451,4.2858,4.0671,4.0344,4.1067,0.0,0.0,0.0,0.0,0.0,-1.0122,-1.1465,-1.302,-1.3333,-1.1362,0.0,0.0,0.0,0.0,-1.5444,-1.7919,-1.972,-2.0709,-2.0849,-2.0019,-1.9729,-2.0229,-1.9954,-1.9862,-2.032,-1.9952,-1.7343,-1.2194,-0.9665,-0.4279,0.3653,0.6377,0.8731,1.0681,0.9731,0.9245,0.9096,0.72,0.6405,0.6419,0.8096,0.8944,0.9291,1.0228,1.0792,1.1221,1.1653,1.1851,1.1777,1.1666,1.1379,1.0951,1.0328,1.0025,0.993,1.0357,1.2525,1.4976,1.6973,1.9969,0.0,0.0,0.0,0.0,0.0,0.0,0.0,0.0,0.0,0.0,0.0,0.0,0.0,0.0,0.0,0.0,0.0,0.0,0.0,0.0,0.0,0.0,0.0,0.0,0.0,0.0,0.0,0.0,4.5005,4.634,4.7004,4.6803,4.6125,4.5397,4.4644,4.5372,4.5271,4.4342,4.4543,4.4242,4.3539,4.4292,4.4217,4.3564,4.4292,4.4844,4.5246,4.5799,4.564,4.5036,4.4055,4.2958,4.167,3.8645,3.8716,3.996,0.0,0.0,-0.669,-0.9266,-1.1754,-1.3873,-1.5322,-1.5402,-1.506,-1.4136,0.0,0.0,0.0,0.0,0.0,-1.933,-1.953,-1.9586,-1.9837,-1.9619,-2.0062,-2.1657,-2.0619,-2.0602,-2.1951,-2.0183,-1.6981,-1.2615,-0.9992,-0.4505,0.357,0.512,0.7157,0.9259,0.8786,0.8399,0.8255,0.8513,0.845,0.8246,1.0141,1.1131,1.1463,1.187,1.2135,1.2588,1.4358,1.462,0.0,1.3604,0.0,0.0,1.0543,0.9944,1.0151,1.1524,1.3249,1.4955,0.0,0.0,0.0,0.0,0.0,0.0,0.0,0.0,0.0,0.0,0.0,0.0,0.0,0.0,0.0,0.0,0.0,0.0,0.0,0.0,0.0,0.0,0.0,0.0,0.0,0.0,0.0,0.0,0.0,4.5196,4.4644,4.5171,4.5221,4.4644,4.4644,4.4644,4.4593,4.4593,4.4317,4.379,4.4317,4.4016,4.3011,4.4091,4.3991,4.3037,4.4116,4.4568,4.4502,4.5246,4.447,4.2994,4.3393,4.1542,3.8333,3.6455,3.6133,3.6421,0.0,-0.9839,-1.0658,-1.2292,-1.4628,-1.6183,-1.5738,-1.6602,-1.6961,0.0,0.0,0.0,-1.5853,-1.7216,-1.8611,-2.0004,-1.9555,-1.9063,-1.8911,-1.8043,-1.8028,-1.938,-1.909,-1.9573,-2.0802,-1.9527,-1.6813,-1.2417,-0.8723,-0.3516,0.2994,0.5774,0.7531,0.8296,0.8365,0.7593,0.6389,0.7712,0.917,1.0544,1.0611,1.1192,1.1972,1.1335,1.1592,0.0,0.0,1.3769,1.4817,0.0,1.3003,1.3515,1.084,0.9944,1.0051,1.1679,1.3361,1.4924,1.6275,0.0,0.0,0.0,0.0,0.0,0.0,3.6496,0.0,0.0,0.0,0.0,0.0,0.0,0.0,0.0,0.0,0.0,0.0,0.0,0.0,0.0,0.0,0.0,0.0,0.0,0.0,0.0,4.4161,4.4367,4.4618,4.5171,4.5221,4.4644,4.502,4.4869,4.4041,4.4041,4.374,4.3212,4.3363,4.3263,4.2986,4.3288,4.3263,4.2986,4.3288,4.2821,4.1861,4.4426,4.447,4.2871,4.212,4.0537,3.8333,3.6614,3.6055,3.6113,-1.1945,-1.2814,-1.3797,-1.523,-1.729,-1.8093,-1.6332,-1.7386,-1.7738,0.0,0.0,0.0,-1.6874,-1.7867,-1.8657,-1.9094,-1.8411,-1.8038,-1.7981,-1.7168,-1.7355,-1.8651,-1.8254,-1.8599,-1.9881,-1.7661,-1.4624,-1.0966,-0.6589,-0.1602,0.3661,0.6262,0.7148,0.6562,0.6841,0.6381,0.5598,0.6469,0.8117,1.0166,1.0796,1.1545,1.2264,1.2026,1.2393,0.0,0.0,0.0,1.7217,1.5286,1.5096,0.0,1.2721,1.193,1.2293,1.3679,1.4754,1.5987,1.8033,1.9401,2.1103,2.4541,0.0,0.0,3.0549,3.3247,0.0,0.0,0.0,0.0,0.0,0.0,0.0,0.0,0.0,0.0,0.0,0.0,0.0,0.0,0.0,0.0,0.0,0.0,0.0,4.3212,4.3388,4.3689,4.4242,4.5145,4.5602,4.5243,4.6117,4.6297,4.559,4.472,4.413,4.3797,4.3295,4.2986,4.2986,4.2986,4.2625,4.2012,4.2012,4.1076,3.9732,4.1947,4.1798,4.0253,3.9963,3.8827,3.7064,3.5491,3.5429,3.621,0.0,-1.4825,-1.616,-1.7604,-1.9047,-1.9228,-1.6954,-1.7705,-1.7687,0.0,-1.5921,-1.6703,-1.6911,-1.7378,-1.7456,-1.6911,-1.6587,-1.6625,-1.7067,-1.6843,-1.7211,-1.8585,-1.7644,-1.7423,-1.822,-1.4636,-1.1343,-0.8388,-0.3931,0.0587,0.4924,0.6612,0.6547,0.492,0.4857,0.4923,0.512,0.5332,0.6419,0.8186,1.0735,1.204,0.0,0.0,1.377,1.4222,1.5763,1.7899,1.9894,1.9047,1.8032,0.0,0.0,1.4939,1.5245,1.6448,1.7053,1.7935,2.0831,2.1774,2.2855,2.6373,2.6713,0.0,2.8233,2.9635,3.0141,0.0,0.0,0.0,0.0,0.0,0.0,0.0,0.0,0.0,0.0,0.0,0.0,0.0,0.0,0.0,0.0,4.1279,4.1279,4.1329,4.2308,4.3224,4.3891,4.5311,4.6217,4.6326,4.7643,4.8304,4.8304,4.6196,4.5127,4.5127,4.3628,4.2874,4.2737,4.2737,4.1899,4.0361,4.0361,3.9405,3.8007,3.8452,3.7819,3.6645,3.7548,3.6901,3.5296,3.4009,3.4834,3.6502,-1.4982,-1.6281,-1.7211,-1.698,-1.6977,-1.715,-1.7649,-1.6736,-1.6336,-1.7533,-1.7055,-1.6217,-1.523,-1.5199,-1.5161,-1.4761,-1.4749,-1.512,-1.6208,-1.6258,-1.6356,-1.6625,-1.6453,-1.5199,-1.2907,-1.0948,-0.8341,-0.5334,-0.1887,0.1551,0.4924,0.6561,0.649,0.4916,0.493,0.4206,0.3109,0.4721,0.6356,0.8175,1.0633,1.2196,1.3003,1.3071,1.3498,1.4048,1.4235,1.5949,1.7935,1.8651,1.7298,1.5247,0.0,0.0,0.0,1.6931,1.8264,1.9703,2.1612,2.32,2.4829,0.0,0.0,0.0,2.9998,3.1061,3.1508,0.0,0.0,0.0,0.0,0.0,0.0,0.0,0.0,0.0,0.0,0.0,0.0,0.0,0.0,0.0,0.0,4.0927,4.0852,4.1304,4.1957,4.3085,4.4666,4.602,4.7267,4.8297,4.9086,4.955,4.955,4.7109,4.5843,4.5843,4.3917,4.2375,4.1076,4.1076,4.0245,3.8698,3.8698,3.7723,3.6295,3.638,3.641,3.6645,3.7548,3.6901,3.5449,3.5433,3.5782,3.6211,-1.6443,-1.7208,-1.7465,-1.674,-1.7272,-1.7418,-1.6124,-1.6575,-1.6944,-1.6539,-1.6266,-1.5825,-1.4745,-1.4923,-1.4958,-1.4401,-1.4152,-1.428,-1.4848,-1.4939,-1.459,-1.3768,-1.3069,-1.1611,-0.9155,-0.6892,-0.5022,-0.3472,-0.0242,0.2187,0.377,0.5384,0.5604,0.4687,0.4882,0.4916,0.5046,0.6088,0.7667,0.9486,1.1372,0.0,1.3003,1.3458,1.3858,1.4177,1.4095,1.5488,1.7776,1.9696,1.9432,0.0,0.0,1.8664,1.877,0.0,2.0884,2.1818,0.0,0.0,0.0,2.9276,0.0,0.0,0.0,3.1291,3.0724,0.0,0.0,0.0,0.0,0.0,0.0,0.0,0.0,0.0,0.0,0.0,0.0,0.0,0.0,0.0,0.0,4.0099,4.0325,4.0877,4.2021,4.3306,4.4599,4.7349,4.9342,4.9973,5.1327,5.2012,5.2012,4.8719,4.7054,4.7054,4.4274,4.215,4.0592,4.0592,3.9288,3.7002,3.7002,3.6051,3.4612,3.4612,3.4754,3.5058,3.5949,3.579,3.5137,3.5781,3.6539,3.7388,-1.6749,-1.6922,-1.6717,-1.6062,-1.7145,-1.7238,-1.4805,-1.6136,-1.6621,-1.436,-1.4865,-1.4857,-1.358,-1.3913,-1.3904,-1.2807,-1.2312,-1.229,-1.2495,-1.2418,-1.1914,-1.0593,-0.9537,-0.8056,-0.6085,-0.3664,-0.235,-0.1979,0.074,0.2218,0.2585,0.418,0.473,0.4618,0.5072,0.6115,0.7403,0.7692,0.8845,1.086,0.0,1.2635,1.3092,1.4387,1.4814,1.466,1.4434,1.5513,1.7577,2.021,2.1367,2.1402,2.1559,2.1617,0.0,0.0,0.0,0.0,0.0,0.0,0.0,0.0,0.0,3.204,0.0,0.0,0.0,0.0,0.0,0.0,0.0,0.0,0.0,0.0,0.0,0.0,0.0,0.0,0.0,0.0,0.0,0.0,0.0,3.9421,4.0027,4.0765,4.2294,4.3748,4.4958,4.8742,5.1121,5.1468,5.3425,5.4401,5.4401,5.0303,4.8277,4.8277,4.4655,4.2086,4.027,4.0176,3.8365,3.5459,3.5376,3.4612,3.3418,3.3418,3.3418,3.3516,3.4355,3.4707,3.4805,3.5684,3.7059,3.866,-1.4256,-1.4351,-1.4107,-1.3527,-1.3362,-1.4008,-1.6034,-1.4015,-1.2374,-1.2809,-1.3325,-1.2581,-0.9821,-0.9268,-0.8476,-0.6634,-0.609,-0.6469,-0.7973,-0.7975,-0.7943,-0.7713,-0.7664,-0.6098,-0.3125,-0.2723,-0.1761,-0.0252,0.0124,0.0986,0.2585,0.418,0.4906,0.4885,0.6077,0.699,0.763,0.7434,0.873,0.0,1.1938,1.2969,0.0,1.5913,1.6295,1.5719,1.4625,1.4476,1.5235,0.0,1.9514,1.975,0.0,2.2726,2.2603,2.3804,0.0,0.0,0.0,0.0,0.0,0.0,3.4031,0.0,0.0,0.0,0.0,0.0,0.0,0.0,0.0,0.0,0.0,0.0,0.0,0.0,0.0,0.0,0.0,0.0,0.0,0.0,0.0,0.0,4.0414,4.203,4.244,4.4003,4.7543,4.9408,5.1116,5.2949,5.4301,5.5089,5.5089,5.1062,4.8941,4.8941,4.4947,4.1686,3.9115,3.8664,3.6896,3.4221,3.3828,3.3544,3.3418,3.3418,3.3418,3.3516,3.4355,3.4707,3.4805,3.5684,3.7059,3.8618,-1.2619,-1.2716,-1.2548,-1.1773,-1.2298,-1.3126,-1.3884,-1.3269,-1.2863,-1.3087,-1.1973,-1.0429,-0.899,-0.756,-0.6297,-0.5379,-0.5159,-0.5218,0.0,-0.5953,-0.5511,-0.4605,-0.4563,-0.3433,-0.1129,-0.1016,-0.0767,0.0,0.0,0.0378,0.1124,0.2744,0.3932,0.4783,0.6309,0.7725,0.8922,0.0,0.964,0.0,0.0,0.0,0.0,1.6886,1.7205,1.682,1.4792,1.417,1.4735,0.0,1.8957,0.0,0.0,0.0,0.0,0.0,0.0,0.0,0.0,0.0,0.0,0.0,0.0,0.0,3.6162,0.0,3.5318,0.0,0.0,0.0,0.0,0.0,0.0,0.0,0.0,0.0,0.0,0.0,0.0,0.0,0.0,0.0,0.0,0.0,0.0,0.0,0.0,4.448,4.6517,4.9291,5.1491,5.3144,5.4102,5.4357,5.3964,5.096,4.9117,4.8268,4.5268,4.2345,3.9388,3.8873,3.6951,3.4043,3.3613,3.3418,3.3418,3.3418,3.3418,3.3476,3.4101,3.4336,3.4453,3.5332,3.7319,3.9777,-1.0753,-1.1404,-1.1647,-1.0871,-1.1897,-1.249,-1.1397,-1.2488,-1.3157,-1.2909,-1.0717,-0.8779,-0.8063,-0.6085,-0.4502,-0.3784,-0.3746,-0.3732,0.0,0.0,-0.2984,-0.1909,-0.1807,-0.1294,0.0,0.0,0.0,0.0,0.0,0.0,0.0,0.1768,0.3216,0.4661,0.6408,0.8227,1.0019,0.0,1.0555,1.0995,1.1335,1.3785,1.7194,1.7656,1.7826,1.7421,1.4902,1.4007,1.44,1.6994,1.8442,0.0,2.2423,0.0,0.0,0.0,0.0,0.0,2.9314,0.0,0.0,0.0,0.0,0.0,0.0,0.0,0.0,0.0,0.0,0.0,0.0,0.0,3.3982,3.3847,0.0,0.0,0.0,0.0,0.0,0.0,0.0,0.0,0.0,0.0,0.0,0.0,0.0,0.0,4.5705,4.8894,5.1416,5.3144,5.3585,5.3598,5.2963,5.0568,4.873,4.7661,4.554,4.3138,4.0296,3.9431,3.7493,3.4664,3.3867,3.3418,3.3418,3.3418,3.3418,3.3457,3.3906,3.4082,3.416,3.4922,3.7171,3.9853,-0.8635,-1.0319,-1.1688,-1.0793,-1.169,-1.176,-0.9752,-1.0955,-1.1916,-1.1316,-0.9613,-0.786,0.0,0.0,0.0,0.0,0.0,-0.0153,-0.0156,0.0,-0.0133,-0.0124,-0.0131,0.0,0.0,0.0,0.0,0.0,0.0,0.0,0.0,0.1777,0.3394,0.5011,0.6768,0.8661,1.0487,1.0792,1.1179,1.1633,1.2074,1.4079,1.7034,0.0,1.8216,1.7061,1.4693,0.0,0.0,1.5782,1.7928,0.0,0.0,0.0,0.0,0.0,0.0,0.0,0.0,0.0,0.0,3.4548,0.0,0.0,0.0,0.0,4.0971,0.0,0.0,0.0,0.0,3.7551,3.5451,3.402,3.2358,0.0,0.0,0.0,0.0,0.0,0.0,0.0,0.0,0.0,0.0,0.0,0.0,0.0,4.6217,4.8345,5.0554,5.3144,5.3129,5.3069,5.2963,4.9499,4.7774,4.7661,4.554,4.3634,4.1898,3.9916,3.8108,3.6269,3.4226,3.3418,3.3418,3.3418,3.3418,3.3457,3.3906,3.4082,3.4121,3.457,3.6123,3.8293,-0.8364,-0.9816,-1.1001,-1.0809,-1.0314,-0.9919,-0.9957,-1.0953,-1.1959,0.0,-0.9482,0.0,0.0,-0.345,-0.0725,0.0,0.0,0.0,0.0,0.0,0.0,0.0,0.0,0.0705,0.0,0.0681,0.0,0.0,0.0,0.0,0.0,0.1673,0.2794,0.3394,0.4974,0.6164,0.0,0.0,0.0,0.0,0.0,1.5861,1.4891,0.0,0.0,1.6843,1.4412,1.3485,0.0,1.5707,1.6707,1.7854,2.1268,2.2329,2.2768,2.4499,2.7256,0.0,0.0,0.0,3.6681,3.5002,0.0,0.0,0.0,0.0,0.0,0.0,0.0,0.0,0.0,3.816,3.6508,3.5012,3.3182,3.1381,0.0,0.0,0.0,0.0,0.0,0.0,0.0,0.0,0.0,0.0,3.5979,0.0,0.0,4.4952,4.7659,4.9734,5.017,5.0237,4.996,4.8779,4.769,4.6806,4.6061,4.4664,4.2539,4.0518,3.8415,3.6394,3.4352,3.3418,3.3418,3.3418,3.3418,3.3583,3.5245,3.5787,3.5763,3.5258,3.6254,3.8206,-0.8499,-0.9297,-1.0293,-1.0816,-1.0429,-1.0026,-1.0362,-1.0323,0.0,0.0,-0.7862,0.0,-0.6016,0.0,0.0,0.0,0.0,0.0,0.0,0.0,0.0,0.1958,0.1354,0.0,0.0,0.1708,0.1122,0.0941,0.0273,-0.0272,-0.0928,0.0784,0.1543,0.1647,0.3315,0.4494,0.5318,0.6745,0.7798,0.0,0.0,1.7134,0.0,0.0,1.8293,1.5482,0.0,1.3214,1.3336,1.4777,1.5699,1.6773,2.0496,2.1499,2.1869,2.4058,2.7182,3.0136,3.0236,3.3852,0.0,3.5371,3.7415,0.0,3.7117,0.0,0.0,0.0,0.0,0.0,0.0,0.0,3.7021,3.4869,3.286,3.0782,0.0,2.9794,0.0,0.0,0.0,0.0,0.0,0.0,0.0,3.0273,3.3166,0.0,0.0,0.0,4.586,4.7751,4.827,4.843,4.8215,4.7873,4.7205,4.6301,4.6125,4.5077,4.3385,4.1368,3.953,3.7846,3.5356,3.4258,3.4258,3.365,3.3776,3.4443,3.6269,3.7252,3.7691,3.7207,3.7758,3.898,-0.8913,-0.8967,-0.9439,-1.088,-1.1686,0.0,0.0,0.0,-0.818,0.0,-0.534,-0.2735,-0.3126,-0.1182,0.0,0.0,0.0,0.0,0.0,0.0,0.0,0.0,0.1994,0.2878,0.2734,0.0,0.0,0.0,0.0701,-0.0979,-0.2684,-0.106,-0.0261,-0.0257,0.1878,0.3633,0.5142,0.5852,0.7378,0.9951,1.6411,1.7969,1.6432,1.8465,1.6808,1.3514,1.3057,1.303,1.3139,1.3146,1.4697,1.6734,1.8804,2.05,2.2094,2.4,2.7375,3.0435,3.0136,3.3436,3.6582,3.5742,0.0,0.0,0.0,0.0,4.4267,0.0,0.0,0.0,0.0,0.0,3.7043,3.3727,3.1471,2.9276,2.7027,2.7611,0.0,0.0,0.0,0.0,0.0,0.0,2.6451,2.8048,3.0901,3.4381,0.0,0.0,4.5177,4.7019,4.7374,4.7547,4.76,4.6713,4.6301,4.6301,4.5748,4.5171,4.4477,4.2345,4.1091,4.0476,3.7243,3.5928,3.5806,3.4258,3.4487,3.6013,3.7065,3.8603,4.0017,3.9994,4.0185,4.0278,-0.8933,-0.9388,-0.9992,0.0,-1.1627,-1.1492,0.0,0.0,0.0,0.0,-0.4812,-0.3126,-0.3935,-0.1669,0.0,0.0,0.0,0.0,0.0,0.0,0.0,0.2259,0.1374,0.1499,0.2991,0.1542,0.0,0.0704,-0.1115,-0.2193,-0.2684,-0.3571,-0.3275,-0.209,-0.1453,-0.0263,0.143,0.315,0.688,1.2127,1.7386,1.9223,0.0,0.0,1.7966,1.5448,1.3525,1.2739,1.2691,1.2807,1.3179,1.4328,1.8031,1.944,2.032,2.415,2.8074,3.138,3.1828,3.5136,3.834,3.748,3.9553,4.1414,0.0,0.0,0.0,0.0,0.0,0.0,0.0,0.0,0.0,3.5468,3.2437,2.9964,2.9316,0.0,0.0,2.7833,0.0,0.0,0.0,0.0,2.363,2.548,2.8742,3.2017,0.0,0.0,0.0,4.4126,4.494,4.5781,4.6645,4.6465,4.6301,4.6301,4.5748,4.5171,4.4477,4.2345,4.1091,4.0476,3.8461,3.7604,3.7484,3.7144,3.7265,3.7834,4.0174,4.2516,4.4354,4.1811,4.0867,4.0746,-0.9408,-1.008,0.0,-1.0968,0.0,0.0,-0.8755,0.0,0.0,-0.5747,-0.323,0.0,-0.2252,-0.105,0.0,0.0,0.0,0.0,0.0,0.0,0.0,0.1642,0.1441,0.1919,0.2967,0.1911,0.0,0.0,0.0,-0.3441,-0.4958,-0.5318,-0.528,-0.4985,-0.4229,-0.2896,-0.0914,0.275,0.7144,1.19,1.718,0.0,0.0,2.0819,1.9437,1.7196,1.4719,1.3389,1.2617,1.2698,1.2773,1.3461,1.6756,1.8232,1.9552,2.2931,2.7478,3.1446,3.201,3.5172,3.8301,3.8008,3.9626,4.1306,4.0906,4.3373,4.5305,0.0,0.0,0.0,0.0,0.0,0.0,3.449,3.1496,2.9448,0.0,0.0,0.0,0.0,0.0,0.0,0.0,0.0,1.9911,2.2243,2.5984,2.9702,0.0,0.0,0.0,4.261,4.4166,4.5296,4.5949,4.6426,4.6426,4.5949,4.5372,4.4819,4.4242,4.2725,4.194,4.1558,3.9989,3.9403,3.9492,3.8896,3.9152,4.0287,4.3468,4.5775,4.7061,4.5785,4.4402,4.2966,-1.0127,-1.086,0.0,0.0,0.0,0.0,0.0,-0.6839,0.0,-0.3464,0.0,0.0,0.0,0.0,0.0,0.0,0.0,0.0,0.0,0.0,0.0,0.0,0.1652,0.2505,0.2383,0.2283,0.1387,0.0,-0.2422,-0.5144,-0.8291,-0.6831,-0.6916,-0.8274,-0.6527,-0.4528,0.0,0.3804,0.7814,1.0803,1.6742,2.0457,2.2764,2.2306,2.1,1.907,1.659,1.4307,1.2698,1.2698,1.2786,1.3193,1.5228,1.7171,1.9172,2.1311,2.6066,3.071,3.1218,3.4109,3.7022,3.7592,3.8928,4.0265,4.1089,4.2591,4.3791,4.3738,4.3776,4.2999,0.0,0.0,0.0,3.2702,0.0,0.0,0.0,0.0,0.0,0.0,0.0,0.0,0.0,0.0,1.6277,1.9022,2.3245,0.0,0.0,0.0,0.0,4.1903,4.3995,0.0,4.5316,0.0,4.5969,4.4953,4.4308,4.383,4.3422,4.2987,4.2899,4.3087,4.1655,4.1345,4.1731,4.026,4.0945,4.3046,4.6219,4.7686,4.8416,4.9847,4.8805,4.6188,-1.0711,0.0,0.0,0.0,0.0,-1.107,-0.7324,-0.4803,-0.3409,-0.3859,-0.1625,0.0,0.0,0.0,0.0,0.0,0.0,0.0,0.0,0.0,0.0,0.0,0.0383,0.0561,0.0547,-0.1004,-0.1884,0.0,-0.5547,-0.8163,-1.0116,-0.9889,-0.9877,-1.0077,-0.8275,0.0,-0.0134,0.434,0.0,1.2613,1.7316,2.0863,2.3058,2.2964,2.2513,2.1356,1.7419,1.4587,1.2542,1.2542,1.2562,1.2887,1.4992,1.6959,1.9088,2.106,2.4757,2.8656,3.0565,3.2823,3.4975,3.7003,3.8705,3.9993,3.9778,4.2243,4.4213,4.3433,4.3579,4.3601,4.3049,0.0,0.0,0.0,0.0,0.0,0.0,0.0,0.0,0.0,0.0,0.0,0.0,0.0,0.0,0.0,0.0,0.0,0.0,0.0,0.0,0.0,4.2448,0.0,0.0,0.0,4.2509,4.1937,4.0998,4.1014,4.1846,4.1317,4.203,4.3664,4.3412,4.3597,4.3979,4.3746,4.4184,4.4967,4.5658,4.6273,4.6874,4.83,4.9254,4.9684,0.0,0.0,0.0,0.0,0.0,0.0,0.0,-0.3558,0.0,-0.1968,-0.2016,-0.1642,-0.0205,-0.1257,-0.1695,-0.0209,0.0,0.0,0.0,0.0,0.0,0.0,-0.1362,0.0,-0.185,-0.3718,-0.524,-0.6045,-0.742,-0.8979,-1.0792,-1.0744,-1.0704,-1.0545,-0.7892,-0.4195,0.0,0.0,0.0,1.2956,1.6346,1.982,2.3105,2.2847,2.2588,2.202,1.8667,1.5932,1.374,1.2692,1.2393,1.2539,1.3595,1.5186,1.7207,1.9266,2.2568,2.6098,2.8129,3.0852,3.3349,3.4602,3.6055,3.7452,3.813,3.9409,4.0796,4.1661,4.2055,4.2544,4.325,4.1184,0.0,0.0,0.0,0.0,0.0,0.0,0.0,0.0,0.0,0.0,0.0,0.0,0.0,0.0,0.0,0.0,0.0,0.0,0.0,0.0,0.0,0.0,0.0,0.0,0.0,4.0778,4.0038,3.9801,4.0025,3.9636,4.0528,4.2476,4.1612,4.2208,4.3695,4.3118,4.3359,4.4375,4.5291,4.64,4.7677,4.9427,5.107,5.2311,0.0,-0.8823,0.0,0.0,-0.5094,0.0,-0.6058,-0.3291,-0.1049,-0.1807,-0.321,-0.3618,-0.1997,-0.3318,-0.3385,-0.1045,-0.042,0.0,0.0,0.0,-0.0203,-0.0797,-0.2732,-0.4,-0.4447,-0.6312,-0.7877,0.0,-0.9093,-0.9775,-1.1425,-1.0939,-1.0478,-0.9915,0.0,0.0,0.0,0.0,0.8676,1.2725,1.5144,1.861,2.2293,2.1894,2.1986,2.1989,1.9008,1.6747,1.4902,1.2943,1.2216,1.2244,1.2244,1.3641,1.545,1.7468,2.0405,2.3655,2.5952,2.8575,3.112,3.2097,3.3177,3.4342,3.5927,3.6353,3.6939,3.9081,4.0124,4.107,4.2712,4.1569,0.0,0.0,0.0,0.0,0.0,0.0,0.0,0.0,0.0,0.0,0.0,0.0,0.0,0.0,0.0,0.0,0.0,0.0,0.0,0.0,0.0,4.2892,4.3411,0.0,4.0759,0.0,3.8864,3.8569,3.8353,3.7846,3.8896,4.0927,3.9606,4.0418,4.2497,4.142,4.1754,4.2891,4.4281,4.5785,4.7221,4.9507,5.1123,5.2234,0.0,0.0,0.0,0.0,0.0,0.0,0.0,-0.3716,-0.4668,-0.7378,-0.5696,-0.5066,-0.7375,-0.5508,-0.4037,-0.382,-0.1478,0.0,0.0,0.0,-0.1015,-0.3381,-0.3705,-0.4774,-0.6914,-0.8684,-0.9312,0.0,0.0,-1.1956,-1.3095,-1.1531,-0.9899,0.0,0.0,0.0,0.0,0.5304,0.8612,1.2498,1.509,1.7364,1.9604,1.9709,2.0517,2.1349,1.7531,1.5621,1.4843,1.2647,1.1965,1.2081,1.2081,1.3542,1.5398,1.7116,1.9052,2.1579,2.5215,2.6451,2.7541,3.068,3.1606,3.1911,3.3,3.435,3.5255,3.5125,3.77,4.0636,4.2662,4.2399,4.1706,0.0,0.0,0.0,0.0,0.0,0.0,0.0,0.0,0.0,0.0,0.0,0.0,0.0,0.0,0.0,0.0,0.0,0.0,3.7148,0.0,4.0447,4.2613,3.9392,3.7371,3.6324,3.5607,3.5726,3.6644,3.6262,3.7378,3.9882,3.9635,4.032,4.1347,4.0792,4.0882,4.1369,4.152,4.1797,4.2282,4.5303,4.6501,4.725,0.0,0.0,0.0,0.0,0.0,0.0,0.0,-0.1473,-0.2766,-0.5523,-0.4888,-0.404,-0.3403,-0.3828,-0.3601,-0.1888,-0.063,0.0,0.0,0.0,-0.122,-0.3807,-0.5305,-0.7128,-0.9624,-1.1389,-1.2191,0.0,0.0,-1.2136,-1.2499,-1.149,0.0,0.0,0.0,0.0139,0.486,0.5873,0.8605,1.2433,1.3567,1.5309,1.7326,1.708,1.8256,1.9586,1.6487,1.5197,1.465,1.2467,1.1803,1.1925,1.1925,1.2443,1.3382,1.5281,1.6964,1.8838,2.1457,2.3644,2.551,2.6937,2.8879,3.0429,3.0501,3.1832,3.3231,3.3947,3.7291,4.0491,4.2213,4.2585,4.2499,0.0,0.0,0.0,0.0,0.0,0.0,0.0,0.0,0.0,0.0,0.0,0.0,0.0,0.0,0.0,0.0,0.0,0.0,3.9478,0.0,4.133,4.3063,3.9302,3.6992,3.6406,3.5527,3.5416,3.5872,3.5389,3.5733,3.6722,3.7997,3.7336,3.5361,3.5567,3.5607,3.575,3.7258,3.854,3.9736,4.2512,4.3927,4.4962,-0.2758,0.0,-0.1892,0.0,0.0,0.0,0.0,0.0,-0.0637,-0.2756,-0.2974,-0.2766,-0.2553,-0.3615,-0.3386,-0.1465,-0.042,0.0,0.0,0.0,-0.1628,-0.5011,-0.6722,0.0,-1.2339,-1.3706,-1.4048,-1.3464,-1.2942,0.0,-1.2054,0.0,0.0,0.0,-0.2993,0.0726,0.5203,0.6029,0.8296,1.1629,1.2324,1.3931,1.5819,1.4952,1.5841,1.7327,1.4939,1.4027,1.3746,1.1973,1.1613,1.1762,1.1714,1.166,1.2065,1.4026,1.5283,1.657,1.8993,2.1391,2.3318,2.4183,2.6657,2.8818,2.8931,3.02,3.1958,3.4359,3.711,3.9801,4.1977,4.271,4.2911,4.2685,0.0,0.0,0.0,0.0,0.0,0.0,0.0,0.0,0.0,0.0,0.0,0.0,0.0,0.0,0.0,0.0,0.0,0.0,0.0,0.0,0.0,4.0869,3.882,3.8228,3.733,3.6901,3.6901,3.6554,3.6071,3.5471,3.7053,3.5601,3.2356,3.2295,3.189,3.1318,3.3928,3.5664,3.7034,3.9886,4.1472,4.265,0.0,0.0,0.0,0.0,0.0,0.0,0.0,0.0,0.0,0.0,0.0,-0.2128,-0.7852,-0.5947,-0.4251,-0.4251,-0.169,0.0,0.0,0.0,-0.223,0.0,0.0,-1.0162,-1.4999,-1.5038,-1.4523,-1.3627,0.0,0.0,-1.206,0.0,-0.5954,-0.5872,-0.1812,0.1072,0.3281,0.5402,0.7472,0.9687,1.1622,1.3625,1.5119,1.3036,1.3431,1.4694,1.2388,1.1619,1.1572,1.1267,1.1369,1.1592,1.1443,1.1497,1.19,1.3872,1.4432,1.5229,1.8627,1.9663,2.0343,2.3307,2.5282,2.68,2.814,2.9667,3.2029,3.6064,3.6951,3.8181,4.2289,4.2961,4.3162,4.3689,0.0,0.0,0.0,0.0,0.0,0.0,0.0,0.0,1.1322,0.0,0.0,0.0,0.0,0.0,0.0,0.0,0.0,3.8231,4.2282,0.0,4.6192,4.4295,4.2861,4.1898,4.0912,4.0442,4.0442,4.0419,3.9165,3.7085,3.7191,3.6234,3.4342,3.2611,3.0885,2.9713,3.2276,3.3055,3.3292,3.7217,3.8891,3.9516,0.0,0.0,0.0,0.0,0.0,0.0,0.0,0.0,0.0,0.0,0.0,-0.0629,-0.253,-0.1909,-0.1275,0.0,-0.0419,0.0,0.0,0.0,-0.2423,-0.7605,-0.7755,-1.0193,-1.5154,-1.5194,-1.4821,-1.4231,0.0,0.0,0.0,-0.836,-0.6414,-0.6032,-0.1876,0.1267,0.3207,0.3833,0.6238,0.9642,1.0079,1.1522,1.3304,1.2387,1.2423,1.2831,1.1997,1.1619,1.1572,1.1267,1.2197,1.3539,1.3245,1.3356,1.3587,1.429,1.5176,1.5996,1.5786,1.6435,1.7719,1.9732,2.1515,2.3464,2.6106,2.892,3.152,3.3891,3.5685,3.761,3.9922,4.1768,4.2675,4.1776,4.0106,0.0,0.0,0.0,0.0,0.0,0.0,0.0,0.0,1.3592,0.0,0.0,0.0,0.0,0.0,0.0,0.0,0.0,4.6299,0.0,4.7241,4.5724,4.4557,4.3881,4.3983,4.3479,4.2514,4.2514,4.1103,3.8832,3.8957,3.7481,3.5189,3.365,3.2077,3.068,3.2123,3.2683,3.2884,3.5801,3.7069,3.7763,-0.0197,0.0,0.0,0.0,0.0,0.0,0.0,0.0,0.0,0.0,0.0,0.0,0.0,0.0,0.0,0.0,0.0,0.0,0.0,0.0,-0.2419,-0.7841,-0.7994,-1.0263,-1.5308,0.0,0.0,-1.4685,-1.4272,-1.3831,-1.3376,-0.8779,-0.6567,-0.6344,-0.1971,0.0827,0.2152,0.28,0.4737,0.7275,0.8716,1.0008,1.1293,1.1742,1.1938,1.1938,1.164,1.1531,1.1497,1.1246,1.2153,1.3444,1.4662,1.5183,1.5298,1.5298,1.5431,1.5503,1.49,1.4888,1.5668,1.7927,1.9738,2.2089,2.5951,2.8545,3.0626,3.2965,3.4819,3.656,3.8248,4.0021,4.0822,3.9873,3.7643,3.4935,3.1609,0.0,0.0,0.0,0.0,0.0,0.0,1.74,0.0,0.0,0.0,0.0,0.0,0.0,0.0,4.8031,5.0509,0.0,5.0558,5.0204,4.9477,4.8377,4.9072,4.8541,4.7057,4.7702,4.6299,4.3522,4.3522,4.1686,3.8597,3.6652,3.4338,3.2004,3.3671,3.4088,3.3932,3.7132,3.8491,3.9081,-0.0598,0.0,0.0,0.0,0.0,0.0,0.0,0.0,0.0,0.0,0.0,0.0,0.0,0.0,0.0,0.0,0.0,0.0,0.0,-0.0204,-0.2623,-0.7848,-0.8249,-1.0564,-1.5448,-1.5642,-1.5411,-1.4957,-1.438,-1.4095,-1.4082,-0.9139,-0.687,-0.6755,-0.2259,-0.0173,0.0171,0.2029,0.2987,0.341,0.7358,0.8944,0.9213,1.1202,1.1811,1.151,1.1511,1.1409,1.1382,1.1226,1.1413,1.2197,1.5437,1.6576,1.6854,1.6874,1.5512,1.424,1.5786,1.4796,1.4086,1.7529,1.9611,2.2213,2.7177,2.8307,2.9468,3.2971,3.4127,3.5157,3.7066,3.7887,3.8201,3.806,3.5039,3.1996,2.9806,0.0,0.0,0.0,0.0,0.0,0.0,2.1015,2.0784,0.0,0.0,0.0,0.0,0.0,4.7908,5.143,5.477,5.6121,5.5483,5.688,5.6694,5.4827,5.5664,5.5162,5.3597,5.5099,5.3793,5.0278,5.0278,4.8054,4.4327,4.1447,3.7887,3.4318,3.6874,3.7006,3.6426,4.0454,4.2365,4.286,0.0,0.0,0.0,0.0,0.0,0.0,0.0,0.0,0.0,0.0,0.0,0.0,0.0,0.0,0.0,0.0,0.0,0.0,0.0,-0.2051,-0.4679,-0.7924,-1.0151,-1.2636,-1.5455,-1.5642,-1.5364,-1.4794,-1.4536,-1.4353,-1.4245,-1.1154,-0.8803,-0.7006,-0.4036,-0.1747,0.0,0.0514,0.1689,0.3157,0.4033,0.5396,0.7228,0.89,0.9546,0.9722,1.1089,1.1565,1.1545,1.1389,1.233,1.371,1.4344,1.5422,1.684,1.8228,1.7297,1.6001,1.6052,1.3871,1.2373,1.5714,1.8836,2.1964,2.5708,2.7554,2.9131,3.1624,3.3325,3.4804,3.5627,3.7057,3.7732,3.6187,3.4126,3.1427,2.7813,2.558,0.0,0.0,2.5894,2.6151,2.6226,2.4535,2.3926,0.0,0.0,0.0,0.0,4.8351,5.2296,5.3672,5.7513,5.8723,5.688,5.9319,6.0183,5.9543,5.9924,5.9251,5.7764,5.7508,5.6404,5.4611,5.3284,5.2305,5.1296,4.7858,4.5183,4.3059,4.1921,4.1576,4.1788,4.1995,4.3265,4.4898,-0.0813,0.0,0.0,0.0,0.0,0.0,0.0,0.0,0.0,0.0,0.0,0.0,0.0,0.0,0.0,0.0,0.0,0.0,0.0,-0.1433,-0.4065,-0.7744,-0.9536,-1.2012,-1.5448,-1.5642,-1.5343,-1.474,-1.4584,-1.4441,-1.4299,-1.1788,-0.9437,-0.7085,-0.4611,-0.229,0.0,0.0,0.0681,0.1831,0.2598,0.3683,0.5071,0.6827,0.809,0.9014,0.996,1.0805,1.1409,1.1396,1.1985,1.2803,1.3518,1.4352,1.5461,1.7203,1.641,1.5196,1.5873,1.3998,1.2797,1.6203,1.9127,2.1783,2.4271,2.6239,2.8147,2.9971,3.2194,3.378,3.4045,3.5167,3.5292,3.3351,3.1456,2.9119,2.5988,2.4546,0.0,2.6635,2.6919,2.7074,2.78,2.6012,2.5276,2.6087,0.0,0.0,4.2771,4.9508,5.4798,5.8278,6.0276,6.1079,6.0866,6.207,6.3391,6.4985,6.4353,6.3615,6.2822,6.2401,6.1229,5.9659,5.8708,5.7906,5.7033,5.4465,5.1693,4.9145,4.8862,4.8123,4.721,4.7897,4.9101,5.0089,-0.1026,0.0,0.0,0.0,0.0,0.0,0.0,0.0,0.0,0.0,0.0,0.0,0.0,0.0,0.0,0.0,0.0,0.0,0.0,-0.0408,-0.2635,-0.7134,-0.7877,-0.996,-1.4273,-1.477,-1.4871,-1.474,-1.4563,-1.4421,-1.4299,-1.2148,-1.0002,-0.7502,-0.5177,-0.283,-0.0523,-0.0173,0.0,0.0166,0.1955,0.2571,0.2851,0.4739,0.6616,0.8067,0.8169,0.9111,1.0341,1.0461,1.0335,1.0386,1.1851,1.2231,1.2578,1.3857,1.343,1.3046,1.5265,1.4874,1.4493,1.7731,1.9546,2.1209,2.3201,2.4937,2.6686,2.8465,3.0698,3.242,3.2478,3.3039,3.2777,3.0719,2.8628,2.6722,2.4918,0.0,2.4735,2.7386,2.7394,2.7437,2.8097,2.6776,2.5981,2.6512,3.1516,3.6808,0.0,4.836,5.5251,6.2569,6.2467,6.3356,6.5513,6.4992,6.625,6.9189,6.7961,6.7369,6.7369,6.7263,6.626,6.466,6.4251,6.3335,6.1998,6.0636,5.7635,5.402,5.5996,5.4986,5.2869,5.4898,5.5974,5.5987,-0.1037,0.0,0.0,0.0,0.0,0.0,0.0,0.0,0.0,0.0,0.0,0.0,0.0,0.0,0.0,0.0,0.0,0.0,0.0,-0.2248,-0.3874,-0.4489,-0.6872,-0.8566,-0.8986,-1.0775,-1.2598,-1.474,-1.4468,-1.4319,-1.4299,-1.3938,-1.2503,-0.9997,-0.7611,-0.5283,-0.2984,-0.0856,0.0,0.0,0.0325,0.0477,0.0628,0.2594,0.3576,0.4085,0.56,0.6363,0.67,0.6713,0.6509,0.6425,0.6689,0.6774,0.6711,0.696,0.7887,0.9877,1.4605,1.5654,1.5913,1.7988,1.864,1.9776,2.2937,2.4079,2.5014,2.6942,2.9116,3.0683,3.1011,3.2327,3.2746,3.0828,2.8673,2.7074,2.6518,0.0,2.536,2.8906,2.8374,2.7701,2.813,2.8278,2.8341,2.8423,3.2537,3.7587,4.3151,4.6709,5.2526,6.0998,6.2857,6.5041,6.7659,6.7905,6.7904,6.7849,6.8151,6.8294,6.8294,6.751,6.7654,6.8339,6.597,6.5694,6.6801,6.5135,6.2752,6.0203,6.0289,5.9937,5.9082,5.6983,5.7863,5.9457,-0.0826,0.0,0.0,0.0,0.0,0.0,0.0,0.0,0.0,0.0,0.0,0.0,0.0,0.0,0.0,0.0,0.0,0.0,0.0,-0.1213,-0.2623,-0.3849,-0.5193,-0.648,-0.7698,-0.9906,-1.1566,-1.2601,-1.3681,-1.4299,-1.4299,-1.4299,-1.304,-1.0535,-0.8125,-0.5788,-0.3488,-0.1021,0.0,0.0,0.0,0.0,0.0155,0.1051,0.2059,0.3045,0.3978,0.489,0.566,0.566,0.5607,0.5548,0.5548,0.5389,0.5362,0.5362,0.7351,1.0386,1.4725,1.656,1.7731,1.9419,2.0055,2.0541,2.2215,2.3592,2.4879,2.581,2.7668,2.9526,3.0606,3.066,3.0201,2.9198,2.795,0.0,0.0,2.6836,2.7954,3.1001,2.9906,2.9188,2.957,2.9952,3.0264,3.0606,3.4429,3.8199,4.1633,4.5561,5.0791,5.7254,6.2746,6.6235,6.7557,6.7444,6.7563,6.8028,6.8319,6.8884,6.961,6.8889,6.9313,7.0554,6.9001,6.8964,6.9941,6.8851,6.704,6.4986,6.5031,6.4619,6.3681,6.2161,6.2676,6.3577,-0.0617,0.0,0.0,0.0,0.0,0.0,0.0,0.0,0.0,0.0,0.0,0.0,0.0,0.0,0.0,0.0,0.0,0.0,0.0,0.0595,-0.0396,-0.301,-0.3149,-0.4241,-0.6795,-0.8889,-1.0235,-1.0875,-1.3108,-1.4299,-1.4299,-1.4299,-1.3205,-1.1384,-0.8974,-0.6608,-0.4293,-0.1847,-0.0493,0.0,0.0,0.0,0.0,0.0,0.0867,0.229,0.2245,0.3172,0.4357,0.4357,0.4192,0.4158,0.4693,0.4426,0.4292,0.4693,0.6947,1.0109,1.3665,1.6291,1.8384,2.0144,2.112,2.1577,2.1643,2.3084,2.451,2.451,2.6075,2.8032,2.9327,2.9213,2.8622,2.803,0.0,0.0,0.0,2.9628,3.1392,3.3579,3.2076,3.1046,3.1359,3.1483,3.1655,3.2095,3.5382,3.8158,3.9605,4.3974,4.9039,5.4796,6.2618,6.6758,6.686,6.6564,6.706,6.8238,6.8445,6.9207,7.0558,7.0128,7.0755,7.2129,7.1501,7.1589,7.2167,7.182,7.061,6.9027,6.9741,6.9282,6.8131,6.7658,6.7934,6.8002,-0.0623,0.0,0.0,0.0,0.0,0.0,0.0,0.0,0.0,0.0,0.0,0.0,0.0,0.0,0.0,0.0,0.0,0.0,0.0,0.2123,0.232,-0.0199,-0.0388,-0.1514,-0.4073,-0.6215,-0.8533,-1.0875,-1.3108,-1.4299,-1.4299,-1.4299,-1.4224,-1.3727,-1.1312,-0.8901,-0.6536,-0.4057,-0.1908,0.0,0.0,0.0,0.0,0.0,0.0141,0.0276,0.0275,0.0273,0.0404,0.0404,0.0404,0.0672,0.2417,0.1747,0.0672,0.2417,0.4292,0.6556,0.9977,1.3526,1.6613,1.8676,2.0345,2.163,2.1897,2.2324,2.2553,2.2553,2.4238,2.5771,2.5905,2.8541,3.01,2.871,0.0,0.0,3.2527,3.376,3.5338,3.6993,3.4778,3.3039,3.3078,3.2488,3.2095,3.2132,3.4642,3.6924,3.857,4.1044,4.6681,5.5886,6.2802,6.6323,6.6141,6.706,6.7593,6.7724,6.8297,6.9207,7.0599,7.0558,7.1559,7.3321,7.2244,7.2357,7.3398,7.3594,7.3166,7.2569,7.3954,7.4107,7.3356,7.2082,7.2101,7.2205,-0.0208,0.0,0.0,0.0,0.0,0.0,0.0,0.0,0.0,0.0,0.0,0.0,0.0,0.0,0.0,0.0,0.0,0.0,0.0,0.0764,0.1703,0.2281,0.0753,-0.0372,-0.1466,-0.5098,-0.7599,-0.8624,-1.2349,-1.4299,-1.4299,-1.4299,-1.4217,-1.4061,-1.1646,-0.9229,-0.6686,-0.4365,-0.2052,0.0,0.0,-0.0729,-0.1724,-0.1686,-0.2352,-0.3285,-0.3392,-0.2562,-0.1613,-0.1613,-0.0941,0.0269,0.2148,0.2283,0.1747,0.2551,0.4024,0.5626,0.6951,1.1769,1.6671,1.8473,2.0611,2.2124,2.2231,2.2485,2.2699,2.2699,2.3311,2.4196,2.5248,2.5771,2.6486,2.808,0.0,3.0208,3.3638,3.4113,3.5229,3.8112,3.681,3.5784,3.5784,3.5432,3.5261,3.5261,3.6648,3.7945,3.8862,4.3914,4.9505,5.5381,5.9945,6.3283,6.5301,6.6332,6.7125,6.7637,6.8365,6.9916,7.2067,7.1757,7.2928,7.5194,7.4382,7.4581,7.5449,7.5696,7.5668,7.5408,7.5428,7.563,7.5818,7.4434,7.4508,7.4904,-0.1247,-0.0615,0.0,0.0,0.0,0.0,0.0,0.0,0.0,0.0,0.0,0.0,0.0,0.0,0.0,0.0,0.0,0.0,0.0,0.0,0.0742,0.2392,0.0921,0.0,0.0,-0.4702,-0.7021,-0.7146,-1.1971,-1.4299,-1.4299,-1.4299,-1.419,-1.3994,-1.2318,-1.0213,-0.7608,-0.5294,-0.3127,-0.0916,-0.0293,-0.1146,-0.2687,-0.2753,-0.3811,-0.5434,-0.5383,-0.4292,-0.2685,-0.2685,-0.1074,0.1209,0.2954,0.389,0.4155,0.3088,0.4426,0.6168,0.5658,1.0819,1.6747,1.7951,2.0488,2.2579,2.2686,2.2859,2.3006,2.3006,2.2926,2.3256,2.4452,2.4196,2.4723,2.7768,2.8392,3.0296,3.5191,3.5613,3.6522,3.9546,3.8751,3.7999,3.8182,3.7692,3.7506,3.7931,3.915,4.0573,4.2546,4.7699,5.242,5.6453,5.9588,6.267,6.5654,6.6132,6.7004,6.8377,6.9155,7.0809,7.301,7.3161,7.4514,7.6682,7.6335,7.663,7.7399,7.7329,7.7448,7.7641,7.7256,7.7352,7.7614,7.6376,7.6185,7.6359,-0.4147,-0.1852,0.0,0.0,0.0,0.0,0.0,0.0,0.0,0.0,0.0,0.0,0.0,0.0,0.0,0.0,0.0,0.0,0.0,0.0,0.0,0.0,0.0,0.0,0.0,-0.4651,-0.7146,-0.7146,-1.1971,-1.4299,-1.4299,-1.4299,-1.4136,-1.3838,-1.3838,-1.2322,-0.9687,-0.7574,-0.5243,-0.2859,-0.0859,-0.1121,-0.2651,-0.2714,-0.389,-0.5362,-0.5496,-0.4292,-0.2685,-0.2685,-0.0268,0.2954,0.4827,0.6564,0.7365,0.3756,0.5225,0.7655,0.5994,1.1104,1.685,1.685,1.9947,2.2953,2.326,2.3327,2.3327,2.3327,2.3073,2.2859,2.2859,2.4317,2.6039,2.79,3.0592,3.3801,3.7635,3.8756,3.9902,4.1948,4.0245,3.9101,3.976,3.8732,3.8484,3.9613,4.155,4.4786,4.9748,5.147,5.4601,5.958,6.2753,6.5441,6.7559,6.6667,6.7509,7.011,7.0708,7.1724,7.3095,7.4746,7.6289,7.7616,7.7826,7.8387,7.9141,7.827,7.8426,7.9272,7.9851,7.9742,7.9062,7.8044,7.7306,7.6567,-0.4152,-0.1862,0.0,0.0,0.0,0.0,0.0,0.0,0.0,0.0,0.0,0.0,0.0,0.0,0.0,0.0,0.0,0.0,0.0,0.0,0.0,0.0,0.0,-0.072,-0.2509,-0.5544,-0.7862,-0.9646,-1.2686,-1.4299,-1.4299,-1.419,-1.4034,-1.3838,-1.3736,-1.2235,-0.9687,-0.7574,-0.5243,-0.286,-0.0868,-0.113,-0.2793,-0.4113,-0.5676,-0.7365,-0.8706,-0.7236,-0.4559,-0.4559,-0.134,0.322,0.6293,0.7631,0.7779,0.6909,0.7337,0.8178,0.7736,1.2328,1.7323,1.7323,2.0225,2.3207,2.33,2.3327,2.326,2.3046,2.2926,2.2859,2.2859,2.3256,2.4723,2.7768,2.8612,3.1002,3.6816,3.72,3.7863,4.0657,4.0401,4.0285,4.0829,4.1013,4.1997,4.3979,4.7217,5.0268,5.3054,5.5189,5.7903,6.1379,6.3794,6.6582,6.9791,6.9814,7.0381,7.1612,7.2473,7.3869,7.5589,7.6134,7.7209,7.8663,7.8554,7.8774,7.9164,7.9515,7.9548,7.9466,8.0076,7.9586,7.8359,7.6824,7.6386,7.6365,-0.722,-0.4335,-0.165,-0.1624,-0.0605,0.0,0.0,0.0,0.0,0.0,0.0,0.0,0.0,0.0,0.0,0.0,0.0,0.0,0.0,0.0,0.0,0.0,0.0,-0.1076,-0.358,-0.5901,-0.8219,-1.0717,-1.3046,-1.4299,-1.4299,-1.4204,-1.4048,-1.3838,-1.3749,-1.2785,-1.1057,-0.8893,-0.6519,-0.4242,-0.2046,-0.1857,-0.2817,-0.3887,-0.588,-0.8097,-0.918,-0.7804,-0.5362,-0.5362,-0.1339,0.4158,0.6293,0.7498,0.7784,0.6401,0.7111,0.8245,0.7603,1.2389,1.759,1.7714,2.0781,2.3647,2.3527,2.35,2.342,2.3113,2.2953,2.2859,2.2859,2.3393,2.5099,2.8605,2.9334,3.155,3.7556,3.7427,3.7801,4.0184,4.0325,4.0501,4.1254,4.2214,4.4652,4.9059,5.2085,5.5113,5.815,5.9554,6.1845,6.4983,6.6551,6.8779,7.1727,7.2879,7.3329,7.31,7.433,7.5321,7.6227,7.7235,7.8141,7.8965,7.8924,7.939,8.0147,8.0318,8.0204,7.9894,8.0268,7.9275,7.7532,7.6014,7.5301,7.4754,-1.2247,-0.8201,-0.4509,-0.3992,-0.1989,-0.0198,0.0,0.0,0.0,0.0,0.0,0.0,0.0,0.0,0.0,0.0,-0.018,-0.0179,0.0,-0.0179,-0.0178,0.0,0.0,-0.1073,-0.357,-0.5892,-0.8397,-1.1072,-1.3224,-1.4476,-1.4646,-1.4632,-1.4472,-1.4365,-1.4166,-1.3916,-1.3329,-1.0918,-0.8476,-0.6288,-0.3992,-0.2891,-0.2428,-0.2677,-0.4719,-0.7533,-0.7669,-0.666,-0.5114,-0.4836,-0.0268,0.5238,0.5372,0.6447,0.7143,0.4106,0.5635,0.8178,0.7044,1.2137,1.7765,1.8371,2.1372,2.4155,2.3848,2.3768,2.3674,2.3354,2.306,2.2996,2.3133,2.4452,2.6659,3.0188,3.1778,3.4245,3.9078,3.8904,3.8803,4.029,4.0178,4.0383,4.1443,4.3335,4.7389,5.422,5.6552,5.9566,6.3966,6.4385,6.6135,6.9585,7.0396,7.158,7.3374,7.5507,7.5935,7.4719,7.6111,7.6433,7.578,7.8118,7.9074,7.8945,7.918,8.0193,8.1593,8.0798,8.0423,8.0376,8.0306,7.8857,7.6631,7.5381,7.3956,7.2226,-1.213,-0.954,-0.6504,-0.4385,-0.3576,-0.2376,-0.0392,0.0,0.0,0.0,0.0,0.0,0.0,0.0,0.0,0.0,-0.1795,-0.1971,-0.018,-0.1778,-0.1945,0.0,0.0,-0.105,-0.3491,-0.585,-0.9286,-1.3584,-1.4122,-1.5168,-1.7063,-1.6933,-1.7673,-1.9269,-1.7281,-1.6352,-1.5755,-1.1586,-0.8517,-0.6368,-0.4045,-0.2053,-0.0725,-0.2143,-0.3241,-0.4036,-0.5418,-0.4857,-0.2905,0.0,0.2045,0.3548,0.4907,0.5625,0.6099,0.7025,0.7955,0.9198,1.2251,1.5558,1.8487,2.0264,2.2705,2.4409,2.3888,2.3768,2.3621,2.3073,2.2913,2.3256,2.4723,2.5248,2.7057,3.1903,3.2459,3.4124,3.9078,3.8904,3.8695,4.029,4.1389,4.2262,4.2866,4.9216,5.455,5.7498,6.1625,6.4527,6.5606,6.7419,6.9359,7.1244,7.221,7.3144,7.4072,7.5208,7.5856,7.5976,7.7129,7.78,7.8071,7.8624,7.9232,7.9874,8.0409,8.0895,8.1242,8.1049,8.0638,8.0125,7.9654,7.8366,7.647,7.3928,7.2147,7.0423,-1.4101,-1.1894,-0.9055,-0.6324,-0.4891,-0.31,-0.0383,0.0,0.0,0.0,0.0,0.0,0.0,0.0,0.0,0.0,-0.215,-0.2503,-0.0178,-0.23,-0.2457,-0.0174,0.0,-0.1216,-0.3467,-0.5981,-0.8862,-1.2589,-1.4942,-1.6553,-1.7755,-1.8867,-1.9961,-2.0867,-1.8361,-1.7127,-1.6749,-1.2996,-0.9555,-0.6448,-0.519,-0.2238,0.1322,0.0291,-0.0574,-0.1409,-0.2391,-0.2655,-0.2213,0.0546,0.2046,0.2742,0.2742,0.3456,0.434,0.5527,0.7308,0.9568,1.2685,1.6627,2.0036,2.1207,2.2399,2.2978,2.2569,2.243,2.2019,2.0602,2.0979,2.2173,2.3885,2.6306,2.9302,3.3624,3.526,3.705,4.0057,4.0261,4.0379,4.0901,4.2968,4.5419,4.8248,5.3533,5.8059,6.1173,6.4894,6.7476,6.8547,7.0296,7.2045,7.3894,7.4165,7.4981,7.6437,7.6591,7.7094,7.8036,7.8378,7.83,7.796,7.8967,7.9456,7.9546,8.0299,8.0883,8.1231,8.1374,8.0988,8.0414,7.9933,7.8624,7.6648,7.444,7.1165,6.716,-1.6069,-1.4211,-1.1926,-0.9184,-0.6342,-0.3592,-0.1116,-0.0368,0.0,0.0,0.0,0.0,0.0,-0.0359,-0.0538,-0.0538,-0.3224,-0.3744,-0.1417,-0.317,-0.3139,-0.0687,-0.0172,-0.0864,-0.2933,-0.5743,-0.8241,-1.075,-1.506,-1.7572,-1.84,-2.0298,-2.1382,-2.2001,-1.9091,-1.7741,-1.7382,-1.4268,-1.0622,-0.6684,-0.6361,-0.2574,0.2973,0.2966,0.2188,0.1141,0.0713,-0.0562,-0.2062,-0.0544,0.0955,0.1928,0.0415,0.1255,0.2823,0.328,0.6324,1.0179,1.2626,1.7301,2.1479,2.1543,2.1601,2.1324,2.0252,2.015,1.9926,1.7909,1.8877,2.0889,2.2881,2.7254,3.1757,3.5474,3.8364,4.0536,4.1613,4.2397,4.2678,4.2547,4.5324,4.9265,5.4547,5.7161,6.0399,6.471,6.7457,6.9745,7.1557,7.2754,7.4286,7.6244,7.5936,7.6638,7.858,7.8178,7.8476,7.9484,7.94,7.8696,7.7566,7.9268,7.9692,7.9159,7.9983,8.0755,8.1458,8.1653,8.1364,8.0881,8.0512,7.928,7.7426,7.5614,7.1001,6.5135,-1.5886,-1.5582,-1.4267,-1.1589,-0.8984,-0.6432,-0.3747,-0.1486,0.0,0.0,0.0,0.0,0.0,-0.1792,-0.3045,-0.3045,-0.7149,-0.8748,-0.6243,-0.6485,-0.5545,-0.3288,-0.1194,-0.0169,-0.0507,-0.4767,-0.8145,-1.0692,-1.3382,-1.6649,-2.0426,-2.0767,-2.2854,-2.6298,-2.1871,-1.9931,-1.9532,-1.4908,-1.0512,-0.6602,-0.6386,-0.2587,0.2859,0.2828,0.3816,0.4777,0.3188,0.1285,-0.028,-0.014,0.014,0.028,0.0142,0.1291,0.3182,0.4924,0.8504,1.2647,1.625,1.9391,2.1554,2.159,2.1601,2.0613,1.6899,1.7298,1.8224,1.7662,1.9151,2.1549,2.4409,2.8213,3.2497,3.7122,3.9884,4.2099,4.3544,4.4037,4.4788,4.6187,4.9682,5.3766,5.8324,6.16,6.462,6.7428,7.0541,7.2477,7.2793,7.441,7.5641,7.6281,7.6783,7.7294,7.7849,7.8108,7.825,7.8258,7.9438,7.98,7.9422,7.97,7.9874,8.0009,8.0841,8.1406,8.1648,8.168,8.1533,8.1265,8.0629,8.0203,7.9453,7.5292,7.2074,6.9098,-1.575,-1.5547,-1.459,-1.1852,-0.939,-0.666,-0.4056,-0.1647,-0.0545,-0.1806,-0.1985,-0.2521,-0.3761,-0.4829,-0.5544,-0.5544,-0.8753,-0.9619,-0.7265,-0.8424,-0.8007,-0.5715,-0.4438,-0.3905,-0.393,-0.7156,-0.9284,-1.0524,-1.418,-1.7639,-2.0887,-2.1947,-2.4105,-2.6839,-2.3422,-2.1114,-1.9664,-1.614,-1.2159,-0.8154,-0.6836,-0.2596,0.3033,0.4173,0.5753,0.7173,0.4044,0.0999,-0.1555,-0.1685,-0.2391,-0.3119,-0.2012,-0.1019,0.0441,0.4733,0.8076,1.1768,1.6878,1.9818,2.19,2.2967,2.1601,1.9446,1.7538,1.6917,1.6533,1.6388,1.8612,2.2074,2.6709,3.1037,3.55,4.0387,4.2238,4.3676,4.5164,4.586,4.7561,5.163,5.4547,5.8246,6.3358,6.6001,6.8439,7.1131,7.3204,7.4493,7.4824,7.5274,7.6045,7.7147,7.7034,7.7686,7.9179,7.9044,7.9365,8.0049,8.0337,8.019,7.9654,8.0367,8.0602,8.0539,8.1381,8.1805,8.1878,8.1984,8.1933,8.1679,8.0895,7.9918,7.8507,7.5474,7.3066,7.0757]}]]